Date StartTime U_cm/s V_cm/s W_cm/s Ustd_cm/s Vstd_cm/s Wstd_cm/s Uvar_(cm/s)^2 Vvar_(cm/s)^2 Wvar_(cm/s)^2 KE_(m/s)^2 TurbulentKE_(m/s)^2 HorizWindSpeed_cm/s FrictionSpeec_cm/s DragCoef SpeedOfSound_m/s SonicTemperature_C Pressure_mb 
05/13/2013  00:00:00       65.909       46.192       24.239       26.282       16.679       16.903      690.753      278.205      285.720        0.416        0.063       80.484        9.017        0.013      343.335       19.374      865.323
05/13/2013  00:01:00       80.078       54.427       18.975       21.105       16.896       16.220      445.423      285.481      263.097        0.536        0.050       96.823       13.291        0.019      343.395       19.477      865.304
05/13/2013  00:02:00      112.949       75.521       21.258       26.027       19.151       23.825      677.393      366.762      567.651        1.026        0.081      135.871       15.970        0.014      343.458       19.585      865.293
05/13/2013  00:03:00      105.700       75.276       15.204       34.035       25.409       31.145     1158.357      645.602      970.023        0.992        0.139      129.765       22.098        0.029      343.435       19.546      865.298
05/13/2013  00:04:00       99.534       73.297        1.647       33.915       22.551       27.153     1150.206      508.566      737.271        0.884        0.120      123.610       17.559        0.020      343.464       19.592      865.296
05/13/2013  00:05:00       79.997       46.794       12.838       31.238       24.593       18.716      975.830      604.836      350.277        0.534        0.097       92.678        6.826        0.005      343.428       19.534      865.303
05/13/2013  00:06:00      102.977       52.826       25.901       18.816       12.913       17.147      354.043      166.734      294.015        0.744        0.041      115.736       10.221        0.008      343.509       19.670      865.308
05/13/2013  00:07:00      105.648       59.491       25.727       34.603       20.048       21.749     1197.383      401.915      473.015        0.872        0.104      121.246       15.798        0.017      343.473       19.609      865.309
05/13/2013  00:08:00      103.931       65.035       21.375       30.383       20.316       24.384      923.145      412.743      594.599        0.871        0.097      122.602       18.901        0.024      343.474       19.611      865.303
05/13/2013  00:09:00      108.004       59.445       27.131       18.921       17.500       13.204      358.008      306.244      174.347        0.839        0.042      123.283        7.307        0.004      343.543       19.728      865.317
05/13/2013  00:10:00       85.283       52.397       23.006       18.904       21.097       19.474      357.362      445.102      379.246        0.586        0.059      100.093       11.969        0.014      343.391       19.469      865.327
05/13/2013  00:11:00       76.005       26.499       18.067       27.575       16.418       20.328      760.384      269.545      413.229        0.412        0.072       80.492       17.877        0.049      343.308       19.328      865.320
05/13/2013  00:12:00       76.328       36.705       15.569       29.274       20.551       20.628      856.962      422.342      425.506        0.456        0.085       84.695       12.525        0.022      343.231       19.196      865.309
05/13/2013  00:13:00       96.655       48.929       20.153       34.256       24.522       17.301     1173.496      601.311      299.321        0.711        0.104      108.334       15.872        0.021      343.249       19.227      865.310
05/13/2013  00:14:00      106.683       51.567       15.689       27.856       28.323       22.595      775.943      802.189      510.529        0.819        0.104      118.492       15.281        0.017      343.237       19.207      865.310
05/13/2013  00:15:00       99.090       43.384       25.026       39.870       24.262       23.401     1589.652      588.643      547.610        0.753        0.136      108.171       16.909        0.024      343.292       19.301      865.306
05/13/2013  00:16:00       78.093       25.439       41.132       41.417       34.940       28.461     1715.343     1220.792      810.041        0.609        0.187       82.132       29.814        0.132      343.218       19.175      865.300
05/13/2013  00:17:00       73.203       11.745       45.584       63.911       28.096       27.752     4084.637      789.375      770.161        0.661        0.282       74.139       26.990        0.133      343.337       19.379      865.307
05/13/2013  00:18:00       32.481       17.887       35.252       45.791       27.953       23.749     2096.817      781.366      564.004        0.303        0.172       37.080       26.820        0.523      343.254       19.236      865.304
05/13/2013  00:19:00        1.364       41.014       59.877       21.331       30.644       14.621      455.009      939.070      213.786        0.344        0.080       41.037       17.764        0.187      343.335       19.373      865.289
05/13/2013  00:20:00        5.024       34.841       52.523       16.341       19.006       10.345      267.037      361.215      107.027        0.237        0.037       35.202        8.974        0.065      343.377       19.446      865.285
05/13/2013  00:21:00        2.767       22.269       41.690       14.276       24.865       13.656      203.810      618.289      186.485        0.162        0.050       22.441       13.208        0.346      343.367       19.429      865.278
05/13/2013  00:22:00        2.663       19.281       28.842       14.171       23.564       14.164      200.820      555.277      200.616        0.108        0.048       19.464       11.083        0.324      343.312       19.335      865.271
05/13/2013  00:23:00       13.384       12.906       17.706       20.882       20.695       14.182      436.049      428.286      201.136        0.086        0.053       18.593       11.465        0.380      343.328       19.363      865.249
05/13/2013  00:24:00       16.728       13.797       30.848       14.727       17.282       10.286      216.881      298.678      105.795        0.102        0.031       21.683        6.921        0.102      343.244       19.220      865.247
05/13/2013  00:25:00        0.790       -2.372       11.303        5.617        6.925        7.072       31.551       47.962       50.017        0.013        0.006        2.500        3.844        2.363      343.212       19.166      865.243
05/13/2013  00:26:00       25.346       12.404       15.947       14.001        8.089        7.109      196.032       65.427       50.538        0.068        0.016       28.219        3.061        0.012      343.162       19.079      865.244
05/13/2013  00:27:00       70.816       29.425       17.821       13.492       13.495       11.748      182.035      182.107      138.011        0.335        0.025       76.686        6.874        0.008      343.245       19.220      865.250
05/13/2013  00:28:00       80.449       40.238       22.589       25.381       26.733       23.537      644.186      714.668      554.008        0.526        0.096       89.951       14.670        0.027      343.189       19.126      865.226
05/13/2013  00:29:00       76.349       58.420       47.206       28.219       22.252       27.909      796.292      495.159      778.915        0.677        0.104       96.135       13.624        0.020      343.245       19.221      865.207
05/13/2013  00:30:00       52.420       56.751       59.521       28.372       32.315       23.886      804.954     1044.291      570.527        0.597        0.121       77.256       18.053        0.055      343.174       19.101      865.203
05/13/2013  00:31:00       63.205       42.093       53.496       32.576       30.791       27.458     1061.210      948.112      753.957        0.570        0.138       75.939       26.134        0.118      343.228       19.192      865.188
05/13/2013  00:32:00       40.244       68.446       65.035       30.844       27.937       24.122      951.343      780.485      581.892        0.642        0.116       79.400       16.965        0.046      343.228       19.192      865.164
05/13/2013  00:33:00       19.113       63.788       83.429       35.499       32.679       26.199     1260.161     1067.890      686.362        0.720        0.151       66.590       27.840        0.175      343.225       19.187      865.163
05/13/2013  00:34:00       12.160       83.358       95.031       30.328       34.270       25.159      919.791     1174.466      632.962        0.943        0.136       84.240       26.783        0.101      343.290       19.298      865.170
05/13/2013  00:35:00        8.569       91.351       99.085       24.054       31.846       17.086      578.613     1014.182      291.922        1.006        0.094       91.752       17.573        0.037      343.360       19.416      865.163
05/13/2013  00:36:00       35.582       63.517       62.874       38.321       28.536       34.993     1468.536      814.329     1224.487        0.638        0.175       72.805       23.702        0.106      343.315       19.340      865.157
05/13/2013  00:37:00       49.939       42.845       52.022       44.182       27.090       18.548     1952.031      733.849      344.026        0.503        0.151       65.800       18.794        0.082      343.137       19.038      865.171
05/13/2013  00:38:00       18.700       44.183       51.968       30.999       26.808       16.840      960.946      718.667      283.601        0.348        0.098       47.978       13.206        0.076      343.148       19.055      865.156
05/13/2013  00:39:00       10.619       11.361       36.770       24.296       33.562       20.703      590.317     1126.437      428.622        0.187        0.107       15.551       21.237        1.865      343.179       19.109      865.153
05/13/2013  00:40:00      -13.888      -44.821        4.463       20.941       21.059       16.170      438.517      443.464      261.454        0.168        0.057       46.924        9.705        0.043      343.195       19.138      865.161
05/13/2013  00:41:00      -53.231       -6.638      -10.123       11.027        8.792        7.376      121.599       77.297       54.403        0.162        0.013       53.643        4.983        0.009      343.021       18.840      865.155
05/13/2013  00:42:00      -72.148        2.063      -12.337        9.979       14.041        8.400       99.580      197.144       70.559        0.286        0.018       72.177        2.605        0.001      342.999       18.804      865.149
05/13/2013  00:43:00      -97.705        5.522       -5.914       12.794        9.512        8.102      163.677       90.476       65.635        0.497        0.016       97.861        2.372        0.001      343.075       18.932      865.156
05/13/2013  00:44:00      -71.340       13.935       -8.291       15.421       11.572        7.853      237.795      133.908       61.674        0.289        0.022       72.688        4.084        0.003      343.110       18.992      865.145
05/13/2013  00:45:00      -31.450        2.548      -15.110       15.500       12.588       11.865      240.237      158.464      140.787        0.088        0.027       31.553       10.981        0.121      343.119       19.006      865.115
05/13/2013  00:46:00       -1.491       13.564        2.769       30.931       21.294       16.869      956.738      453.421      284.579        0.094        0.085       13.645       16.423        1.449      343.209       19.160      865.079
05/13/2013  00:47:00       28.828       22.457       11.356        7.515        9.570        7.518       56.477       91.577       56.515        0.083        0.010       36.542        4.960        0.018      343.190       19.124      865.049
05/13/2013  00:48:00       32.457       17.235       -3.146       10.118       19.808        9.207      102.368      392.355       84.771        0.097        0.029       36.750        9.503        0.067      343.199       19.141      865.039
05/13/2013  00:49:00       17.523        5.153       11.480       15.886       10.927       11.293      252.355      119.398      127.541        0.048        0.025       18.265        3.925        0.046      343.252       19.230      865.035
05/13/2013  00:50:00        0.139        2.129       10.958        5.096        6.103        3.611       25.964       37.243       13.037        0.010        0.004        2.133        2.162        1.027      343.069       18.922      865.023
05/13/2013  00:51:00       23.053       12.901       11.772       19.497       21.017       10.771      380.121      441.725      116.025        0.089        0.047       26.417        9.126        0.119      343.086       18.949      865.015
05/13/2013  00:52:00       39.471       34.194        9.985       17.834       14.955       11.737      318.042      223.665      137.749        0.175        0.034       52.223        2.323        0.002      343.033       18.859      865.002
05/13/2013  00:53:00       51.888       38.531       13.547       19.294       12.984       11.780      372.260      168.590      138.774        0.252        0.034       64.630        5.841        0.008      343.070       18.923      864.989
05/13/2013  00:54:00       25.849        7.685        9.536       32.020       17.811        8.019     1025.268      317.243       64.308        0.111        0.070       26.968        8.827        0.107      342.978       18.767      864.983
05/13/2013  00:55:00        2.223        3.805       -3.811       18.007       10.933        5.765      324.244      119.529       33.240        0.026        0.024        4.407        3.511        0.635      343.010       18.818      864.994
05/13/2013  00:56:00      -38.258        2.861       -5.770       17.434       11.285        6.090      303.932      127.346       37.087        0.099        0.023       38.365        3.888        0.010      342.941       18.703      865.003
05/13/2013  00:57:00      -90.387      -16.740      -11.088       16.932       21.690       11.466      286.692      470.437      131.475        0.473        0.044       91.924        5.523        0.004      342.653       18.213      865.002
05/13/2013  00:58:00      -79.779      -30.958        0.652       32.243       24.246       18.845     1039.607      587.855      355.127        0.465        0.099       85.575       14.005        0.027      342.405       17.791      864.995
05/13/2013  00:59:00     -112.542      -30.948      -12.981       26.531       25.353       16.330      703.884      642.785      266.673        0.770        0.081      116.720       15.230        0.017      342.423       17.821      864.981
05/13/2013  01:00:00      -57.572      -37.341       -4.280       30.284       26.338       16.060      917.091      693.693      257.930        0.330        0.093       68.622       16.747        0.060      342.455       17.877      864.973
05/13/2013  01:01:00      -53.280      -19.154       -4.064       13.107       17.200        9.763      171.781      295.852       95.314        0.189        0.028       56.618        4.886        0.007      342.541       18.023      864.966
05/13/2013  01:02:00      -51.781        8.812       -2.742        8.646       14.233        8.616       74.755      202.573       74.228        0.156        0.018       52.526        4.124        0.006      342.746       18.370      864.959
05/13/2013  01:03:00      -53.191      -12.098      -11.899        9.564       15.329        8.035       91.477      234.971       64.557        0.175        0.020       54.549        6.754        0.015      342.652       18.210      864.956
05/13/2013  01:04:00      -53.980      -21.753       -2.251       21.178       13.541       11.635      448.515      183.371      135.384        0.208        0.038       58.198       11.846        0.041      342.547       18.034      864.944
05/13/2013  01:05:00      -69.874        8.508       -5.812       10.809       13.819        7.982      116.828      190.953       63.717        0.268        0.019       70.390        4.218        0.004      342.525       17.995      864.927
05/13/2013  01:06:00      -45.677        3.999       -6.892       11.555       10.987        6.266      133.518      120.704       39.258        0.122        0.015       45.851        4.255        0.009      342.583       18.093      864.912
05/13/2013  01:07:00      -63.989      -16.503      -15.589        8.738       11.318        6.804       76.347      128.106       46.298        0.243        0.013       66.083        3.621        0.003      342.465       17.894      864.925
05/13/2013  01:08:00      -74.671      -19.268      -12.680       12.167        9.958        8.746      148.031       99.166       76.489        0.322        0.016       77.117        3.238        0.002      342.379       17.747      864.959
05/13/2013  01:09:00      -46.478      -31.483       -5.695       17.076       16.275       11.217      291.598      264.877      125.819        0.193        0.034       56.138        6.103        0.012      342.395       17.774      864.970
05/13/2013  01:10:00      -59.311        0.737      -12.777       13.266       17.908        8.354      175.981      320.691       69.784        0.212        0.028       59.315        6.809        0.013      342.547       18.033      864.963
05/13/2013  01:11:00      -54.240       11.045       -7.884        6.590       15.119        5.398       43.433      228.576       29.142        0.171        0.015       55.353        2.590        0.002      342.506       17.961      864.948
05/13/2013  01:12:00      -74.965      -12.264      -10.379       12.188        8.176        9.656      148.555       66.847       93.239        0.309        0.015       75.961        6.909        0.008      342.377       17.744      864.941
05/13/2013  01:13:00      -67.673      -14.666      -10.438       11.995       17.575       11.942      143.884      308.882      142.616        0.275        0.030       69.244        8.973        0.017      342.353       17.703      864.948
05/13/2013  01:14:00      -63.887       -8.055       -9.675       13.045       12.526        9.291      170.185      156.908       86.327        0.233        0.021       64.392        6.877        0.011      342.321       17.649      864.939
05/13/2013  01:15:00      -85.069      -22.457      -15.642       14.759       12.305       10.975      217.841      151.410      120.450        0.424        0.024       87.983        8.849        0.010      342.303       17.618      864.926
05/13/2013  01:16:00      -99.525       -9.942      -16.388       16.017       17.393       12.662      256.550      302.506      160.336        0.550        0.036      100.020        8.616        0.007      342.216       17.470      864.914
05/13/2013  01:17:00      -69.651      -11.749      -15.754       27.952       14.447       10.074      781.295      208.702      101.490        0.316        0.055       70.635       10.771        0.023      342.278       17.575      864.902
05/13/2013  01:18:00      -77.156      -10.892      -10.511       12.213       15.066        9.058      149.165      226.983       82.044        0.332        0.023       77.921        4.845        0.004      342.368       17.728      864.903
05/13/2013  01:19:00     -113.617      -30.067       -9.521       17.538       20.171        9.549      307.595      406.881       91.191        0.735        0.040      117.528        3.363        0.001      342.269       17.561      864.910
05/13/2013  01:20:00     -112.595      -34.590      -11.920       24.150       30.335       14.269      583.241      920.217      203.603        0.786        0.085      117.788        6.621        0.003      342.132       17.327      864.913
05/13/2013  01:21:00     -119.037      -45.899      -17.175       19.802       22.091       15.726      392.102      488.016      247.302        0.885        0.056      127.580        9.624        0.006      342.000       17.103      864.904
05/13/2013  01:22:00      -78.563      -27.533       -9.705       25.074       20.996       16.666      628.697      440.821      277.770        0.419        0.067       83.248       11.253        0.018      341.948       17.017      864.893
05/13/2013  01:23:00      -72.959      -17.081       -2.294       24.337       24.465       17.268      592.310      598.519      298.182        0.355        0.074       74.932       14.592        0.038      342.047       17.185      864.883
05/13/2013  01:24:00     -103.982       -2.046       -8.568       46.341       33.957       27.197     2147.491     1153.074      739.670        0.746        0.202      104.002       20.942        0.041      341.954       17.025      864.873
05/13/2013  01:25:00     -118.882       -4.646      -17.278       37.194       40.623       23.864     1383.391     1650.212      569.509        0.903        0.180      118.973       13.014        0.012      341.947       17.013      864.873
05/13/2013  01:26:00      -89.160        9.487       -4.914       48.294       29.391       28.406     2332.295      863.815      806.886        0.603        0.200       89.663       25.405        0.080      342.012       17.125      864.874
05/13/2013  01:27:00      -77.633        8.215      -14.470       23.358       24.088       14.588      545.591      580.230      212.799        0.382        0.067       78.067       11.377        0.021      342.021       17.140      864.865
05/13/2013  01:28:00      -45.863      -14.311      -17.333       16.891       18.573       14.270      285.298      344.952      203.626        0.172        0.042       48.043       11.976        0.062      342.077       17.236      864.841
05/13/2013  01:29:00      -39.466      -21.061       -9.265       24.636       17.170       12.750      606.936      294.811      162.551        0.158        0.053       44.734        9.668        0.047      342.141       17.343      864.830
05/13/2013  01:30:00     -109.506      -36.584       -9.321       23.695       23.382       17.006      561.443      546.703      289.201        0.741        0.070      115.455        9.008        0.006      341.969       17.050      864.832
05/13/2013  01:31:00     -115.143      -19.389       -4.433       53.988       53.389       28.935     2914.666     2850.427      837.233        1.013        0.330      116.764       26.041        0.050      341.807       16.776      864.830
05/13/2013  01:32:00     -128.482      -27.335      -12.864       39.064       40.637       23.255     1526.027     1651.331      540.783        1.057        0.186      131.358       20.203        0.024      341.591       16.410      864.834
05/13/2013  01:33:00     -143.434       -8.589      -14.827       35.880       30.150       18.086     1287.380      908.997      327.090        1.169        0.126      143.691       13.990        0.009      341.679       16.560      864.844
05/13/2013  01:34:00     -108.175      -46.344        0.169       35.295       36.078       28.373     1245.769     1301.588      805.008        0.860        0.168      117.684       22.245        0.036      341.615       16.451      864.850
05/13/2013  01:35:00     -124.887      -12.809       -6.116       48.515       42.750       23.804     2353.722     1827.604      566.618        1.027        0.237      125.542       24.794        0.039      341.634       16.482      864.835
05/13/2013  01:36:00      -74.523       -1.320       -1.126       49.815       26.361       19.202     2481.527      694.904      368.733        0.455        0.177       74.535       22.726        0.093      341.608       16.438      864.815
05/13/2013  01:37:00      -61.686       -6.454        2.088       40.777       34.511       25.333     1662.742     1190.992      641.767        0.367        0.175       62.023       23.317        0.141      341.657       16.522      864.795
05/13/2013  01:38:00      -47.187       -1.154        6.562       36.348       32.964       21.452     1321.148     1086.617      460.171        0.257        0.143       47.201       21.225        0.202      341.690       16.579      864.773
05/13/2013  01:39:00      -68.692      -12.922       -6.080       50.003       22.866       22.597     2500.315      522.872      510.610        0.423        0.177       69.897       23.394        0.112      341.761       16.700      864.755
05/13/2013  01:40:00     -120.344       -2.801       -5.439       59.655       38.000       29.268     3558.738     1443.998      856.639        1.019        0.293      120.376       31.256        0.067      341.643       16.498      864.749
05/13/2013  01:41:00     -111.231       -9.734       -2.237       59.851       42.024       30.736     3582.183     1765.997      944.705        0.938        0.315      111.656       28.478        0.065      341.592       16.411      864.736
05/13/2013  01:42:00     -174.012      -14.419      -11.161       65.684       35.592       25.906     4314.358     1266.794      671.145        1.843        0.313      174.608       28.891        0.027      341.501       16.255      864.729
05/13/2013  01:43:00     -140.366       13.135      -11.414       65.579       39.939       29.577     4300.640     1595.159      874.783        1.339        0.339      140.979       30.210        0.046      341.480       16.221      864.733
05/13/2013  01:44:00     -134.940        3.056       -8.621       60.555       54.432       30.432     3666.871     2962.813      926.120        1.292        0.378      134.975       26.898        0.040      341.521       16.290      864.720
05/13/2013  01:45:00     -145.190      -44.796      -16.625       46.790       44.182       19.029     2189.343     1952.072      362.096        1.393        0.225      151.944       16.757        0.012      341.517       16.284      864.711
05/13/2013  01:46:00     -125.243       11.149       -8.104       48.882       46.579       33.405     2389.447     2169.578     1115.911        1.077        0.284      125.738       26.568        0.045      341.459       16.187      864.707
05/13/2013  01:47:00     -180.398        1.641      -18.765       38.561       35.247       26.497     1486.931     1242.329      702.105        1.816        0.172      180.405       19.342        0.011      341.553       16.344      864.685
05/13/2013  01:48:00     -115.939       -6.168       -6.653       38.907       34.128       24.173     1513.793     1164.714      584.353        0.839        0.163      116.103       21.824        0.035      341.560       16.358      864.676
05/13/2013  01:49:00     -122.448       18.711       -9.270       54.283       42.013       23.452     2946.670     1765.062      550.004        1.034        0.263      123.869       14.936        0.015      341.640       16.493      864.672
05/13/2013  01:50:00     -143.346       19.988      -15.500       49.468       54.511       27.027     2447.050     2971.471      730.439        1.367        0.307      144.732       26.690        0.034      341.566       16.367      864.655
05/13/2013  01:51:00     -136.082      -57.747       -4.653       45.454       40.706       23.101     2066.061     1656.939      533.674        1.306        0.213      147.828       23.193        0.025      341.454       16.176      864.647
05/13/2013  01:52:00     -176.487      -37.789      -10.019       49.762       32.124       24.454     2476.224     1031.975      598.009        1.839        0.205      180.487       22.255        0.015      341.353       16.005      864.634
05/13/2013  01:53:00     -122.821      -37.109        6.093       61.506       51.153       28.991     3783.001     2616.637      840.470        1.187        0.362      128.305       31.659        0.061      341.341       15.987      864.628
05/13/2013  01:54:00     -149.019       -4.896       -6.882       74.522       40.580       31.042     5553.486     1646.722      963.595        1.522        0.408      149.099       38.925        0.068      341.325       15.958      864.620
05/13/2013  01:55:00     -192.108        3.545      -18.526       52.441       42.314       27.341     2750.070     1790.494      747.553        2.127        0.264      192.140       21.462        0.012      341.251       15.832      864.611
05/13/2013  01:56:00     -197.503        4.524      -15.690       55.878       38.337       23.260     3122.407     1469.735      541.018        2.220        0.257      197.555       18.559        0.009      341.388       16.062      864.621
05/13/2013  01:57:00     -174.431       -0.769      -14.634       47.995       42.043       27.940     2303.513     1767.583      780.638        1.775        0.243      174.433       25.060        0.021      341.339       15.983      864.626
05/13/2013  01:58:00     -150.069       13.311      -20.417       42.022       38.168       24.527     1765.816     1456.775      601.554        1.347        0.191      150.659       13.813        0.008      341.315       15.941      864.621
05/13/2013  01:59:00     -103.577       -1.725       -8.066       44.499       38.022       21.878     1980.146     1445.694      478.651        0.735        0.195      103.591       21.418        0.043      341.331       15.970      864.611
05/13/2013  02:00:00      -72.575      -10.164        0.662       47.032       30.379       24.201     2212.031      922.868      585.690        0.455        0.186       73.283       23.554        0.103      341.317       15.945      864.585
05/13/2013  02:01:00      -79.686      -39.358       -4.238       55.951       28.498       25.846     3130.515      812.133      668.017        0.626        0.231       88.876       28.081        0.100      341.343       15.991      864.580
05/13/2013  02:02:00     -144.587      -63.017      -20.471       26.631       30.322       15.690      709.234      919.450      246.191        1.358        0.094      157.723       12.821        0.007      341.327       15.962      864.567
05/13/2013  02:03:00     -122.369      -58.928       -3.618       45.302       40.782       23.317     2052.241     1663.162      543.672        1.136        0.213      135.819       23.061        0.029      341.321       15.951      864.581
05/13/2013  02:04:00     -142.259      -77.032       -4.574       36.595       32.715       23.996     1339.204     1070.297      575.808        1.459        0.149      161.776       17.886        0.012      341.315       15.942      864.582
05/13/2013  02:05:00     -166.596      -32.558       -9.469       57.800       50.972       31.016     3340.861     2598.120      961.970        1.790        0.345      169.748       23.416        0.019      341.219       15.778      864.587
05/13/2013  02:06:00     -153.482       22.569      -17.221       81.251       42.123       29.527     6601.688     1774.382      871.847        1.680        0.462      155.133       28.283        0.033      341.228       15.795      864.577
05/13/2013  02:07:00     -173.034       10.814      -25.700       44.543       56.491       35.058     1984.049     3191.257     1229.087        1.856        0.320      173.371       26.732        0.024      341.280       15.883      864.580
05/13/2013  02:08:00     -156.982      -37.305      -22.559       25.056       31.607       20.519      627.783      999.002      421.018        1.430        0.102      161.353       14.217        0.008      341.315       15.943      864.579
05/13/2013  02:09:00     -107.488      -19.677       -3.380       40.028       26.596       21.261     1602.271      707.358      452.026        0.736        0.138      109.275       19.140        0.031      341.239       15.815      864.578
05/13/2013  02:10:00      -61.375      -29.851       -2.145       23.914       19.974       17.048      571.866      398.960      290.642        0.296        0.063       68.249       14.131        0.043      341.333       15.973      864.561
05/13/2013  02:11:00      -68.597      -37.495      -14.081       30.491       15.417       13.334      929.680      237.680      177.802        0.383        0.067       78.175       14.890        0.036      341.390       16.069      864.549
05/13/2013  02:12:00      -85.396      -33.193       -5.025       36.637       26.791       18.337     1342.273      717.772      336.245        0.541        0.120       91.620       17.842        0.038      341.302       15.920      864.557
05/13/2013  02:13:00      -71.086      -24.683       -6.171       29.525       29.470       16.636      871.732      868.464      276.741        0.386        0.101       75.249       12.211        0.026      341.286       15.894      864.543
05/13/2013  02:14:00      -84.334      -33.250       -0.385       27.848       32.820       22.153      775.511     1077.149      490.766        0.528        0.117       90.653       14.375        0.025      341.262       15.853      864.532
05/13/2013  02:15:00      -72.453      -32.902      -12.433       23.468       22.344       20.119      550.762      499.243      404.756        0.397        0.073       79.574        8.584        0.012      341.300       15.915      864.536
05/13/2013  02:16:00     -107.889      -53.815      -12.477       22.641       22.269       13.939      512.632      495.892      194.299        0.795        0.060      120.566        7.379        0.004      341.209       15.763      864.540
05/13/2013  02:17:00     -130.382      -63.562      -20.502       57.680       49.697       27.939     3327.001     2469.790      780.567        1.402        0.329      145.051       24.939        0.030      341.300       15.916      864.568
05/13/2013  02:18:00     -195.322      -63.276      -10.761       57.208       47.158       32.246     3272.755     2223.896     1039.795        2.440        0.327      205.316       26.595        0.017      341.244       15.820      864.584
05/13/2013  02:19:00      -99.734       17.977        1.932       48.449       42.192       28.451     2347.278     1780.173      809.439        0.760        0.247      101.341       22.886        0.051      341.303       15.923      864.575
05/13/2013  02:20:00      -55.027       48.782       -0.315       30.869       39.768       29.615      952.903     1581.525      877.063        0.441        0.171       73.537        9.711        0.017      341.329       15.966      864.562
05/13/2013  02:21:00      -24.484       18.007        4.227       22.095       31.192       17.168      488.190      972.971      294.725        0.135        0.088       30.393       12.675        0.174      341.600       16.425      864.537
05/13/2013  02:22:00      -20.712      -16.039       -4.688       16.011       10.515       10.607      256.343      110.574      112.501        0.059        0.024       26.196        7.696        0.086      341.601       16.426      864.512
05/13/2013  02:23:00      -70.984      -33.816      -14.637       33.550       19.402       12.581     1125.602      376.440      158.293        0.403        0.083       78.627       10.100        0.017      341.582       16.396      864.506
05/13/2013  02:24:00     -140.782      -47.889      -20.251       32.197       19.304       16.391     1036.667      372.651      268.678        1.210        0.084      148.705        8.229        0.003      341.320       15.953      864.501
05/13/2013  02:25:00      -71.631      -10.844       -5.632       31.322       31.156       17.774      981.057      970.669      315.928        0.377        0.113       72.447       13.078        0.033      341.246       15.827      864.499
05/13/2013  02:26:00      -69.482      -30.568       -9.769       32.414       26.634       17.428     1050.697      709.388      303.747        0.396        0.103       75.909       11.713        0.024      341.236       15.810      864.509
05/13/2013  02:27:00      -14.219      -21.126      -13.655       32.244       20.373       23.937     1039.694      415.067      572.957        0.143        0.101       25.465       17.902        0.494      341.320       15.951      864.507
05/13/2013  02:28:00      -84.308      -22.278      -15.261       20.040       20.138       22.874      401.609      405.543      523.228        0.458        0.067       87.201       12.451        0.020      341.396       16.079      864.503
05/13/2013  02:29:00     -141.469      -30.060      -16.380       21.385       23.228       14.827      457.316      539.547      219.839        1.120        0.061      144.627       12.465        0.007      341.191       15.734      864.490
05/13/2013  02:30:00      -90.650      -33.522      -10.815       32.785       38.816       18.023     1074.841     1506.702      324.817        0.618        0.145       96.650       16.310        0.028      341.124       15.619      864.469
05/13/2013  02:31:00      -81.259      -29.396       -9.333       27.188       25.745       20.773      739.186      662.824      431.506        0.469        0.092       86.413       12.493        0.021      341.228       15.796      864.452
05/13/2013  02:32:00      -72.130      -50.479       -7.373       54.409       28.840       29.741     2960.380      831.760      884.525        0.624        0.234       88.039       33.079        0.141      341.146       15.657      864.455
05/13/2013  02:33:00      -88.329      -41.675      -19.671       41.114       31.630       16.513     1690.382     1000.453      272.674        0.644        0.148       97.667       12.854        0.017      341.190       15.731      864.452
05/13/2013  02:34:00      -65.911      -28.082      -24.950       29.553       26.529       19.876      873.393      703.810      395.037        0.386        0.099       71.644       12.651        0.031      341.247       15.828      864.426
05/13/2013  02:35:00      -54.207        1.267      -11.978       29.490       27.344       20.185      869.689      747.686      407.445        0.255        0.101       54.222       18.230        0.113      341.648       16.506      864.403
05/13/2013  02:36:00      -23.079      -21.908       -6.285       20.329       14.525       11.524      413.269      210.976      132.807        0.090        0.038       31.821        8.671        0.074      341.622       16.463      864.403
05/13/2013  02:37:00     -107.212      -49.193      -16.195       50.745       18.862       13.522     2575.069      355.756      182.843        0.864        0.156      117.959       11.567        0.010      341.295       15.906      864.411
05/13/2013  02:38:00     -127.025      -61.497      -24.850       39.242       25.664       21.524     1539.931      658.664      463.295        1.160        0.133      141.129       16.937        0.014      341.136       15.640      864.414
05/13/2013  02:39:00     -122.197      -61.565      -13.682       51.315       34.182       26.637     2633.274     1168.422      709.534        1.171        0.226      136.830       15.938        0.014      341.043       15.483      864.428
05/13/2013  02:40:00     -167.881      -19.233      -10.217       52.374       44.784       25.111     2742.998     2005.622      630.584        1.702        0.269      168.979       21.471        0.016      340.989       15.388      864.423
05/13/2013  02:41:00     -104.762       -4.991       -2.536       69.622       39.070       31.090     4847.222     1526.491      966.596        0.917        0.367      104.881       32.767        0.098      340.968       15.355      864.416
05/13/2013  02:42:00      -19.793      -15.651       -0.394       27.716       23.345       14.753      768.151      544.994      217.637        0.108        0.077       25.233       14.736        0.341      341.046       15.487      864.406
05/13/2013  02:43:00       -4.665       12.083        1.876       12.806       16.726        9.252      163.993      279.757       85.597        0.035        0.026       12.952        6.258        0.233      341.244       15.824      864.394
05/13/2013  02:44:00        6.091       -5.294       -0.617        7.725       11.274        5.597       59.676      127.097       31.322        0.014        0.011        8.070        4.549        0.318      341.406       16.096      864.378
05/13/2013  02:45:00      -10.167      -28.390      -10.384       20.509       11.434        9.109      420.620      130.741       82.968        0.083        0.032       30.156        8.897        0.087      341.712       16.614      864.375
05/13/2013  02:46:00      -95.137      -38.737      -13.810       18.588       16.745        9.482      345.519      280.406       89.899        0.573        0.036      102.721        6.884        0.004      341.295       15.909      864.392
05/13/2013  02:47:00     -147.676      -31.501      -17.169       26.931       12.853       10.985      725.291      165.196      120.661        1.205        0.051      150.999       10.091        0.004      341.216       15.775      864.399
05/13/2013  02:48:00     -166.575      -21.710      -25.878       30.690       22.090       15.321      941.868      487.973      234.743        1.528        0.083      167.984       14.771        0.008      341.184       15.720      864.396
05/13/2013  02:49:00     -202.499       17.652      -13.099       72.113       57.197       33.799     5200.294     3271.495     1142.398        2.555        0.481      203.267       27.935        0.019      341.117       15.604      864.414
05/13/2013  02:50:00     -176.258       64.211      -20.208       70.522       44.691       34.166     4973.383     1997.255     1167.339        2.187        0.407      187.590       20.947        0.012      341.144       15.650      864.430
05/13/2013  02:51:00     -129.657       19.966      -11.696       39.538       45.475       27.613     1563.282     2067.979      762.460        1.087        0.220      131.185       15.153        0.013      341.070       15.527      864.428
05/13/2013  02:52:00     -145.334        0.740      -13.579       41.279       40.192       25.128     1703.940     1615.412      631.409        1.263        0.198      145.336       19.068        0.017      341.113       15.600      864.423
05/13/2013  02:53:00      -20.463      -16.357        7.823       32.022       30.297       20.356     1025.397      917.925      414.362        0.155        0.118       26.197       10.476        0.160      341.019       15.442      864.422
05/13/2013  02:54:00       -5.274       -7.593      -14.960       27.964       19.389       15.531      781.998      375.927      241.224        0.085        0.070        9.245       13.729        2.205      341.159       15.679      864.408
05/13/2013  02:55:00      -13.592       -4.902       -5.096        9.570        7.721        6.760       91.590       59.607       45.696        0.022        0.010       14.449        5.107        0.125      341.271       15.868      864.403
05/13/2013  02:56:00      -16.391       -8.616        1.347       11.582        9.289       10.401      134.154       86.283      108.182        0.034        0.016       18.518        8.841        0.228      341.309       15.930      864.411
05/13/2013  02:57:00      -56.110      -16.738      -13.135       18.654       17.303       11.711      347.984      299.410      137.142        0.219        0.039       58.553        8.584        0.021      341.262       15.854      864.421
05/13/2013  02:58:00      -97.368      -51.133       -7.615       18.380       19.581       11.947      337.839      383.411      142.737        0.651        0.043      109.978        8.663        0.006      341.135       15.638      864.438
05/13/2013  02:59:00     -139.339      -73.451      -16.689       15.119       18.292       12.199      228.590      334.615      148.814        1.290        0.036      157.513        5.659        0.001      341.087       15.557      864.469
05/13/2013  03:00:00     -134.496      -60.840       -6.225       36.595       24.491       27.274     1339.175      599.795      743.844        1.226        0.134      147.617       23.482        0.025      341.018       15.440      864.487
05/13/2013  03:01:00      -66.643      -46.767        5.582       61.483       47.052       26.361     3780.198     2213.876      694.918        0.667        0.334       81.415       19.532        0.058      341.032       15.463      864.503
05/13/2013  03:02:00      -97.177      -36.688        1.660       52.839       28.704       15.878     2791.951      823.937      252.110        0.733        0.193      103.872       12.123        0.014      341.088       15.560      864.519
05/13/2013  03:03:00      -10.616      -32.460       -7.995       25.746       28.038       24.358      662.832      786.145      593.300        0.164        0.102       34.152       15.386        0.203      341.276       15.875      864.511
05/13/2013  03:04:00       36.012       35.359        8.229       12.905       12.603       20.549      166.528      158.823      422.271        0.168        0.037       50.469       11.297        0.050      341.302       15.920      864.478
05/13/2013  03:05:00       10.340       23.311       -7.093       18.417       13.108        7.242      339.178      171.812       52.446        0.063        0.028       25.501        6.480        0.065      341.255       15.843      864.449
05/13/2013  03:06:00      -75.758        9.706       -9.189       40.083        8.812        8.426     1606.644       77.644       71.002        0.384        0.088       76.377        9.936        0.017      341.195       15.740      864.469
05/13/2013  03:07:00     -160.940      -32.083      -14.266       42.764       31.116       23.272     1828.730      968.205      541.564        1.524        0.167      164.107       23.557        0.021      341.068       15.524      864.504
05/13/2013  03:08:00     -223.117     -117.520      -11.098       43.823       31.863       25.096     1920.453     1015.257      629.825        3.364        0.178      252.175        8.273        0.001      340.967       15.348      864.541
05/13/2013  03:09:00     -212.493      -54.268        0.284       76.980       57.459       39.864     5925.844     3301.578     1589.125        2.946        0.541      219.313       36.915        0.028      340.736       14.958      864.572
05/13/2013  03:10:00     -124.485      -14.921        3.070       49.829       38.864       27.115     2482.974     1510.413      735.197        1.023        0.236      125.376       27.846        0.049      340.777       15.032      864.590
05/13/2013  03:11:00      -91.475       -7.636      -10.771       28.423       31.852       17.484      807.866     1014.531      305.677        0.533        0.106       91.793       12.102        0.017      340.838       15.134      864.573
05/13/2013  03:12:00       15.629       -4.804        6.739       26.901       31.921       20.306      723.678     1018.944      412.345        0.123        0.108       16.351       21.589        1.743      341.056       15.503      864.544
05/13/2013  03:13:00       58.062       33.488       21.893       21.878       21.539       23.360      478.651      463.941      545.707        0.323        0.074       67.027       19.195        0.082      341.040       15.478      864.539
05/13/2013  03:14:00       28.651       25.348       32.006       42.435       27.320       29.803     1800.759      746.408      888.215        0.296        0.172       38.254       30.855        0.651      341.029       15.459      864.542
05/13/2013  03:15:00      -12.718       22.114       30.924       13.018       26.359       22.827      169.461      694.779      521.089        0.150        0.069       25.510       21.883        0.736      341.036       15.473      864.547
05/13/2013  03:16:00      -99.014      -26.831       -2.990       68.041       29.945       18.907     4629.592      896.681      357.467        0.821        0.294      102.585       15.672        0.023      341.115       15.604      864.558
05/13/2013  03:17:00     -187.467      -10.341       -4.595       77.148       52.798       38.393     5951.743     2787.593     1474.037        2.274        0.511      187.752       34.446        0.034      340.761       15.001      864.581
05/13/2013  03:18:00     -177.646      -77.175       -7.226       57.890       57.634       33.994     3351.234     3321.724     1155.617        2.270        0.391      193.685       27.652        0.020      340.859       15.169      864.586
05/13/2013  03:19:00     -108.219       17.708      -15.428       44.555       20.162       13.010     1985.146      406.501      169.251        0.741        0.128      109.658       14.410        0.017      340.853       15.161      864.549
05/13/2013  03:20:00      -35.743       20.503       -8.712        9.795       12.901        6.347       95.951      166.437       40.285        0.104        0.015       41.206        5.762        0.020      341.205       15.757      864.507
05/13/2013  03:21:00      -20.885       -1.238       -2.432        8.604       13.061        7.418       74.021      170.595       55.027        0.037        0.015       20.921        5.968        0.081      341.788       16.743      864.485
05/13/2013  03:22:00      -78.716      -57.534       -5.408       47.872       32.914       25.396     2291.681     1083.319      644.967        0.678        0.201       97.501       12.961        0.018      341.185       15.722      864.493
05/13/2013  03:23:00     -171.584      -69.256        1.529       58.453       41.322       27.296     3416.794     1707.545      745.046        2.005        0.293      185.033       21.553        0.014      340.828       15.116      864.510
05/13/2013  03:24:00     -121.950      -44.846       -7.969       49.859       34.119       18.919     2485.914     1164.137      357.940        1.048        0.200      129.934       20.257        0.024      340.798       15.069      864.520
05/13/2013  03:25:00     -114.612       19.315       -4.905       48.555       21.761       18.927     2357.616      473.521      358.213        0.836        0.159      116.228       23.812        0.042      341.531       16.308      864.510
05/13/2013  03:26:00      -37.372       15.949        0.321       11.132       13.491        8.354      123.926      182.009       69.796        0.101        0.019       40.633        2.569        0.004      342.082       17.243      864.481
05/13/2013  03:27:00      -45.107       66.276      -16.763       18.608       16.694       11.169      346.270      278.679      124.756        0.373        0.037       80.169        6.903        0.007      341.277       15.880      864.453
05/13/2013  03:28:00      -62.632       71.152      -19.677       16.122       10.945        8.771      259.922      119.792       76.932        0.491        0.023       94.791        5.760        0.004      341.614       16.449      864.421
05/13/2013  03:29:00      -80.881        6.191      -14.127       29.877       39.849        9.529      892.620     1587.910       90.796        0.468        0.129       81.118        8.156        0.010      341.418       16.116      864.410
05/13/2013  03:30:00     -159.332      -32.475       -6.383       43.694       62.001       27.368     1909.137     3844.148      749.029        1.649        0.325      162.607       20.224        0.015      340.764       15.008      864.439
05/13/2013  03:31:00     -119.653      -16.604       -2.928       49.277       36.863       28.962     2428.175     1358.915      838.799        0.961        0.231      120.799       24.176        0.040      340.630       14.783      864.446
05/13/2013  03:32:00      -40.695      -17.051        4.740       21.378       22.580       17.862      457.035      509.878      319.068        0.163        0.064       44.123        7.184        0.027      340.676       14.861      864.420
05/13/2013  03:33:00      -50.107       25.234      -12.972       20.474       23.984       13.966      419.167      575.241      195.045        0.225        0.059       56.102       14.009        0.062      340.892       15.226      864.385
05/13/2013  03:34:00      -54.690       31.975       -6.709       12.819       15.953        7.079      164.322      254.508       50.110        0.226        0.023       63.351        4.320        0.005      341.441       16.157      864.387
05/13/2013  03:35:00      -71.566      -44.376      -11.606       31.313       32.985       13.362      980.505     1088.009      178.541        0.474        0.112       84.208        8.440        0.010      341.115       15.605      864.403
05/13/2013  03:36:00      -83.504      -64.824        5.152       67.774       49.011       39.137     4593.331     2402.072     1531.737        0.986        0.426      105.712       34.495        0.106      340.829       15.120      864.419
05/13/2013  03:37:00     -121.788      -98.463        2.249       67.454       51.552       38.491     4550.097     2657.614     1481.560        1.661        0.434      156.612       35.083        0.050      340.758       14.999      864.420
05/13/2013  03:38:00     -178.765      -59.773      -12.178       58.977       37.338       23.451     3478.317     1394.111      549.971        2.055        0.271      188.493       24.469        0.017      340.823       15.107      864.416
05/13/2013  03:39:00     -118.660       -6.537       -7.965       43.553       29.605       19.424     1896.884      876.455      377.274        0.867        0.158      118.840       22.705        0.037      340.903       15.245      864.404
05/13/2013  03:40:00      -93.691      -23.608       -0.280       24.747       17.924       15.405      612.406      321.278      237.307        0.525        0.059       96.620       14.326        0.022      340.976       15.368      864.390
05/13/2013  03:41:00     -138.254      -36.186      -12.169       23.699       22.189       15.170      561.664      492.367      230.115        1.093        0.064      142.911       10.617        0.006      340.841       15.139      864.377
05/13/2013  03:42:00     -115.695      -39.999       -8.301       40.952       46.155       23.309     1677.078     2130.283      543.318        0.970        0.218      122.415       14.730        0.014      340.654       14.824      864.357
05/13/2013  03:43:00     -140.561        8.103       -8.494       55.879       43.451       26.455     3122.418     1887.948      699.883        1.280        0.286      140.794       21.973        0.024      340.555       14.657      864.342
05/13/2013  03:44:00      -79.365      -55.591       -2.689       79.715       33.392       20.347     6354.408     1115.009      413.981        0.864        0.394       96.897       25.956        0.072      340.578       14.695      864.354
05/13/2013  03:45:00      -20.853      -18.851        4.717       39.874       24.924       21.540     1589.914      621.228      463.971        0.174        0.134       28.111       21.449        0.582      340.594       14.722      864.362
05/13/2013  03:46:00      -31.344      -19.589        1.473       35.696       16.809       15.413     1274.175      282.542      237.556        0.158        0.090       36.962       15.092        0.167      340.582       14.701      864.370
05/13/2013  03:47:00      -26.458      -25.474       -0.690       30.378       20.847        8.931      922.807      434.603       79.771        0.139        0.072       36.728        9.862        0.072      340.646       14.812      864.369
05/13/2013  03:48:00       -5.751      -21.672       -7.406       18.631       11.547       11.021      347.121      133.324      121.455        0.058        0.030       22.422       10.781        0.231      340.839       15.136      864.374
05/13/2013  03:49:00     -108.958      -35.817      -10.488       39.868       16.428       10.504     1589.496      269.886      110.338        0.762        0.098      114.694       11.301        0.010      340.692       14.888      864.388
05/13/2013  03:50:00     -197.363      -95.194      -12.762       32.844       29.401       16.920     1078.751      864.447      286.274        2.520        0.111      219.121        4.510        0.000      340.606       14.740      864.409
05/13/2013  03:51:00     -178.227      -40.027       -8.706       62.552       48.295       27.513     3912.719     2332.417      756.949        2.022        0.350      182.666       30.669        0.028      340.558       14.660      864.430
05/13/2013  03:52:00      -93.861      -40.066        1.524       36.199       47.077       23.474     1310.398     2216.220      551.024        0.725        0.204      102.055       22.546        0.049      340.536       14.624      864.437
05/13/2013  03:53:00      -39.565      -41.925        6.076       53.634       22.388       16.148     2876.606      501.223      260.752        0.350        0.182       57.646       23.054        0.160      340.612       14.753      864.445
05/13/2013  03:54:00       -9.845       -0.877        3.668       18.406       26.113       15.167      338.781      681.867      230.027        0.068        0.063        9.884       16.743        2.869      340.670       14.851      864.423
05/13/2013  03:55:00      -23.651       11.065       -6.189       18.000       10.342        8.816      324.017      106.961       77.723        0.061        0.025       26.111        9.456        0.131      340.962       15.345      864.366
05/13/2013  03:56:00      -37.817       22.985       -4.676       19.316       13.789        8.925      373.104      190.130       79.647        0.131        0.032       44.254        9.542        0.046      340.837       15.132      864.327
05/13/2013  03:57:00      -57.712      -21.366       -9.488       19.729       16.861       11.516      389.225      284.280      132.625        0.234        0.040       61.540       11.619        0.036      340.599       14.731      864.313
05/13/2013  03:58:00      -19.455      -30.194       -3.295       14.807       21.191       10.380      219.257      449.040      107.734        0.104        0.039       35.919        1.906        0.003      340.627       14.780      864.336
05/13/2013  03:59:00      -28.331      -39.888       -3.978       25.229       22.180       18.527      636.522      491.932      343.237        0.194        0.074       48.925       15.050        0.095      340.772       15.024      864.375
05/13/2013  04:00:00      -60.732      -38.413      -14.119       32.377       17.010       12.618     1048.297      289.339      159.220        0.343        0.075       71.860        4.576        0.004      340.807       15.082      864.393
05/13/2013  04:01:00     -122.252      -59.000       -7.454       35.561       28.392       24.560     1264.618      806.094      603.183        1.058        0.134      135.745       19.575        0.021      340.695       14.894      864.390
05/13/2013  04:02:00     -135.541      -73.550      -10.441       31.866       25.434       20.030     1015.430      646.906      401.206        1.298        0.103      154.211       13.988        0.008      340.637       14.795      864.400
05/13/2013  04:03:00     -144.169      -57.555      -11.130       26.338       34.819       18.139      693.697     1212.371      329.036        1.323        0.112      155.233       13.415        0.007      340.605       14.741      864.419
05/13/2013  04:04:00     -123.818      -52.886       -3.275       46.595       32.531       22.521     2171.049     1058.281      507.212        1.094        0.187      134.639       16.336        0.015      340.581       14.700      864.436
05/13/2013  04:05:00      -75.216      -20.931       -3.845       59.373       43.164       28.746     3525.200     1863.164      826.333        0.616        0.311       78.074       27.492        0.124      340.526       14.607      864.418
05/13/2013  04:06:00     -115.104       -6.983      -14.018       38.045       30.201       23.690     1447.442      912.092      561.216        0.821        0.146      115.316       19.867        0.030      340.445       14.471      864.371
05/13/2013  04:07:00      -50.768       -7.414       -1.432       33.758       25.736       15.510     1139.608      662.365      240.549        0.234        0.102       51.307       12.759        0.062      340.368       14.340      864.346
05/13/2013  04:08:00      -92.598      -38.819      -10.774       19.803       14.703       10.451      392.148      216.169      109.225        0.546        0.036      100.406        7.145        0.005      340.456       14.488      864.372
05/13/2013  04:09:00     -104.009      -58.502       -1.566       47.387       25.856       21.900     2245.501      668.545      479.596        0.882        0.170      119.333       24.564        0.042      340.494       14.554      864.418
05/13/2013  04:10:00      -91.063      -50.844        4.716       52.253       25.433       18.587     2730.423      646.851      345.460        0.731        0.186      104.296       24.240        0.054      340.447       14.473      864.445
05/13/2013  04:11:00      -65.111      -26.938       -7.292       23.640       15.191       11.888      558.868      230.780      141.327        0.297        0.047       70.464       10.137        0.021      340.452       14.481      864.434
05/13/2013  04:12:00      -12.080       -9.766       -0.773       16.220        7.857       10.134      263.087       61.728      102.691        0.033        0.021       15.534       11.917        0.589      340.498       14.560      864.398
05/13/2013  04:13:00      -12.933       29.482       -3.615       11.970       17.346        8.041      143.274      300.895       64.661        0.078        0.025       32.194        6.756        0.044      340.590       14.718      864.353
05/13/2013  04:14:00       -4.318       62.147      -11.621       10.789       15.517        6.655      116.401      240.765       44.290        0.221        0.020       62.297        5.797        0.009      340.977       15.370      864.350
05/13/2013  04:15:00      -47.591       23.715       -9.205       19.913       20.706       11.226      396.540      428.744      126.021        0.193        0.048       53.173        7.620        0.021      340.903       15.246      864.356
05/13/2013  04:16:00     -124.873      -26.843      -11.189       30.236       39.779       16.665      914.192     1582.369      277.729        0.961        0.139      127.725       13.334        0.011      340.368       14.340      864.348
05/13/2013  04:17:00     -156.775      -14.221       -9.033       55.395       42.938       28.632     3068.647     1843.649      819.789        1.530        0.287      157.419       29.703        0.036      340.215       14.082      864.326
05/13/2013  04:18:00      -97.119      -12.497        0.149       58.161       34.998       28.135     3382.759     1224.858      791.557        0.749        0.270       97.920       32.104        0.107      340.184       14.029      864.345
05/13/2013  04:19:00      -20.367      -37.169        6.318       38.374       27.781       22.529     1472.552      771.795      507.537        0.229        0.138       42.383       18.934        0.200      340.379       14.359      864.406
05/13/2013  04:20:00      -24.631      -37.702        3.557       32.941       25.267       21.216     1085.134      638.405      450.103        0.211        0.109       45.034       22.136        0.242      340.498       14.559      864.439
05/13/2013  04:21:00      -30.874      -23.196        0.790       27.165       16.687       13.882      737.936      278.449      192.700        0.135        0.060       38.617       15.261        0.156      340.516       14.591      864.445
05/13/2013  04:22:00      -69.732        1.409       -7.513       15.231       11.298        7.799      231.994      127.636       60.817        0.267        0.021       69.746        7.459        0.011      340.489       14.545      864.430
05/13/2013  04:23:00     -101.414      -21.883      -12.276       18.880       22.366       11.215      356.438      500.246      125.773        0.595        0.049      103.748        8.255        0.006      340.511       14.582      864.403
05/13/2013  04:24:00      -91.803      -36.723       -7.628       37.808       21.184       15.586     1429.462      448.763      242.910        0.598        0.106       98.876       16.442        0.028      340.404       14.402      864.368
05/13/2013  04:25:00      -85.914      -32.579       -8.244       27.866       28.810       19.910      776.535      830.009      396.404        0.526        0.100       91.884       19.167        0.044      340.413       14.417      864.349
05/13/2013  04:26:00      -55.384      -35.060        3.897       49.644       49.035       24.421     2464.517     2404.477      596.400        0.489        0.273       65.548       29.150        0.198      340.469       14.510      864.373
05/13/2013  04:27:00      -89.509      -61.125       -2.130       53.288       37.315       21.664     2839.648     1392.383      469.330        0.823        0.235      108.388       17.591        0.026      340.417       14.424      864.410
05/13/2013  04:28:00     -121.923      -29.664       -9.573       25.318       19.678       14.169      641.026      387.213      200.755        0.853        0.061      125.480       10.649        0.007      340.441       14.464      864.410
05/13/2013  04:29:00      -98.763       -3.418       -4.150       28.389       22.099       17.537      805.941      488.384      307.537        0.569        0.080       98.822       14.683        0.022      340.418       14.426      864.382
05/13/2013  04:30:00      -16.676      -31.151        3.912       32.115       25.578       16.866     1031.403      654.250      284.454        0.162        0.099       35.334       11.192        0.100      340.458       14.495      864.400
05/13/2013  04:31:00        2.883      -58.407        1.938       20.074       18.378       18.893      402.973      337.734      356.937        0.226        0.055       58.478       12.392        0.045      340.524       14.605      864.413
05/13/2013  04:32:00      -41.784      -48.654       -8.901       21.287       16.617        8.502      453.116      276.138       72.276        0.250        0.040       64.133        7.472        0.014      340.629       14.783      864.404
05/13/2013  04:33:00     -119.148      -29.329      -14.381       19.069       19.925       16.124      363.610      396.988      259.973        0.814        0.051      122.705        4.313        0.001      340.646       14.810      864.395
05/13/2013  04:34:00     -188.379      -73.012       -8.899       29.703       34.309       20.076      882.275     1177.116      403.059        2.168        0.123      202.033        9.977        0.002      340.401       14.395      864.390
05/13/2013  04:35:00     -197.526      -31.076       -4.854       59.365       35.827       30.217     3524.162     1283.559      913.063        2.286        0.286      199.956       29.911        0.022      340.274       14.178      864.377
05/13/2013  04:36:00     -189.124      -12.973      -17.896       43.273       34.944       24.766     1872.569     1221.062      613.356        1.998        0.185      189.569       21.069        0.012      340.213       14.078      864.365
05/13/2013  04:37:00      -96.088      -22.135       -1.547       76.405       40.967       25.243     5837.716     1678.307      637.227        0.894        0.408       98.604       34.945        0.126      340.180       14.024      864.386
05/13/2013  04:38:00      -16.068      -49.934       14.989       61.634       32.652       29.919     3798.773     1066.181      895.126        0.437        0.288       52.456       28.016        0.285      340.304       14.233      864.430
05/13/2013  04:39:00      -44.557     -148.431       -7.290       26.663       32.253       22.123      710.913     1040.239      489.427        1.315        0.112      154.974       11.044        0.005      340.307       14.237      864.472
05/13/2013  04:40:00      -31.329      -57.642       -6.097       12.016       30.646        9.876      144.377      939.161       97.536        0.276        0.059       65.606        7.746        0.014      340.517       14.593      864.464
05/13/2013  04:41:00      -78.122      -25.482      -10.939       24.006       12.814        8.526      576.307      164.204       72.685        0.384        0.041       82.173        5.012        0.004      340.554       14.653      864.443
05/13/2013  04:42:00     -140.984      -37.228       -8.271       33.133       28.258       16.927     1097.787      798.541      286.516        1.176        0.109      145.817       16.653        0.013      340.477       14.525      864.445
05/13/2013  04:43:00     -168.656      -56.245      -13.982       34.189       36.632       19.445     1168.885     1341.911      378.102        1.735        0.144      177.788       14.654        0.007      340.285       14.200      864.459
05/13/2013  04:44:00     -104.863      -74.038       -2.645       51.525       35.020       31.574     2654.785     1226.416      996.925        1.068        0.244      128.367       19.984        0.024      340.239       14.123      864.467
05/13/2013  04:45:00     -102.996      -76.960       10.710       74.201       51.370       31.879     5505.833     2638.923     1016.300        1.290        0.458      128.573       34.540        0.072      340.220       14.089      864.498
05/13/2013  04:46:00     -133.825      -95.477       -7.042       56.956       54.705       32.679     3243.972     2992.633     1067.941        1.719        0.365      164.392       33.450        0.041      340.377       14.355      864.542
05/13/2013  04:47:00     -101.444      -62.746        0.698       70.974       37.131       22.714     5037.375     1378.700      515.948        1.058        0.347      119.281       34.895        0.086      340.540       14.631      864.529
05/13/2013  04:48:00      -92.881        8.705       -2.974       32.120       32.136       14.690     1031.673     1032.697      215.803        0.550        0.114       93.288        8.779        0.009      340.783       15.042      864.463
05/13/2013  04:49:00     -132.721       42.921       -7.210       36.231       20.622       13.977     1312.685      425.258      195.345        1.072        0.097      139.489       11.133        0.006      340.801       15.073      864.406
05/13/2013  04:50:00     -142.458       27.250       -8.991       37.153       28.557       20.890     1380.367      815.525      436.399        1.187        0.132      145.041       11.373        0.006      340.740       14.969      864.422
05/13/2013  04:51:00     -134.493       20.463       -9.065       41.916       30.766       19.470     1756.965      946.533      379.064        1.084        0.154      136.041       18.742        0.019      340.823       15.110      864.443
05/13/2013  04:52:00     -135.301        9.366      -12.224       49.693       31.843       19.764     2469.382     1013.971      390.613        1.121        0.194      135.625       17.413        0.016      340.719       14.933      864.461
05/13/2013  04:53:00     -183.097        7.627      -20.874       39.362       44.844       22.519     1549.339     2011.004      507.087        1.904        0.203      183.255       13.081        0.005      340.686       14.879      864.475
05/13/2013  04:54:00     -133.281      -20.769       -7.250       56.896       44.728       29.023     3237.183     2000.590      842.353        1.216        0.304      134.889       26.978        0.040      340.406       14.404      864.486
05/13/2013  04:55:00     -128.308        2.176       -3.545       53.412       40.154       32.617     2852.893     1612.323     1063.854        1.100        0.276      128.327       31.253        0.059      340.308       14.237      864.470
05/13/2013  04:56:00     -121.361       14.321       -6.626       45.071       37.484       28.346     2031.370     1405.038      803.506        0.961        0.212      122.204       25.520        0.044      340.449       14.476      864.435
05/13/2013  04:57:00      -93.499       -4.366       -6.983       43.139       33.021       21.948     1860.962     1090.374      481.725        0.612        0.172       93.601       20.053        0.046      340.499       14.562      864.454
05/13/2013  04:58:00      -40.647       12.112        5.515       61.215       33.722       23.384     3747.334     1137.200      546.826        0.363        0.272       42.413       26.765        0.398      340.508       14.577      864.475
05/13/2013  04:59:00       -6.475       57.694        0.660       18.545       34.575       18.708      343.925     1195.419      349.981        0.263        0.094       58.056       16.011        0.076      340.546       14.640      864.470
05/13/2013  05:00:00       -2.170       19.310       -0.938       14.961       18.871       10.533      223.829      356.098      110.954        0.053        0.035       19.432       10.114        0.271      340.476       14.523      864.447
05/13/2013  05:01:00      -87.412      -39.719      -11.206       43.560       33.846       10.503     1897.489     1145.531      110.323        0.625        0.158       96.013        8.774        0.008      340.530       14.614      864.461
05/13/2013  05:02:00     -148.115      -91.782       -5.960       53.046       40.623       27.469     2813.882     1650.213      754.572        1.781        0.261      174.247       13.165        0.006      340.333       14.279      864.498
05/13/2013  05:03:00     -197.753      -41.128       -3.669       60.223       62.505       29.872     3626.832     3906.855      892.343        2.462        0.421      201.984       28.874        0.020      340.125       13.926      864.490
05/13/2013  05:04:00     -162.449      -31.792      -21.410       39.314       30.560       15.860     1545.598      933.917      251.539        1.529        0.137      165.530       12.574        0.006      340.256       14.150      864.464
05/13/2013  05:05:00     -111.201      -32.064       -3.631       45.848       31.423       21.145     2102.032      987.424      447.118        0.847        0.177      115.731       25.098        0.047      340.325       14.267      864.432
05/13/2013  05:06:00     -155.734       -4.104      -14.639       67.373       32.922       21.812     4539.162     1083.850      475.768        1.529        0.305      155.788       30.524        0.038      340.224       14.095      864.419
05/13/2013  05:07:00     -191.477      -49.666      -12.867       36.168       48.357       24.964     1308.136     2338.396      623.185        2.178        0.213      197.813       20.135        0.010      340.143       13.958      864.436
05/13/2013  05:08:00     -102.185      -38.796       -5.323       70.173       37.899       27.061     4924.309     1436.365      732.311        0.953        0.355      109.302       34.320        0.099      340.114       13.910      864.468
05/13/2013  05:09:00      -20.955       -9.380        6.779       22.815       18.668       24.071      520.535      348.502      579.398        0.101        0.072       22.958       16.843        0.538      340.145       13.962      864.456
05/13/2013  05:10:00        0.682       -0.856       -1.902       15.275       24.668       16.799      233.331      608.501      282.211        0.056        0.056        1.094        5.242       22.963      340.422       14.432      864.416
05/13/2013  05:11:00       46.067      -38.688      -10.383       28.017       42.964       29.275      784.962     1845.876      857.053        0.361        0.174       60.158       26.601        0.196      340.328       14.273      864.410
05/13/2013  05:12:00        4.959       -9.987        9.329       16.692       15.822       13.024      278.631      250.320      169.635        0.045        0.035       11.150       10.449        0.878      340.279       14.189      864.439
05/13/2013  05:13:00      -65.881       10.754       -4.688       46.808        7.849       11.141     2190.969       61.612      124.126        0.343        0.119       66.753       20.463        0.094      340.396       14.389      864.457
05/13/2013  05:14:00     -198.034      -60.821      -12.544       69.365       66.252       29.066     4811.498     4389.310      844.808        2.656        0.502      207.163       26.035        0.016      340.164       13.993      864.463
05/13/2013  05:15:00     -220.714      -41.250       -9.878       64.032       57.401       36.612     4100.082     3294.907     1340.408        2.962        0.437      224.535       29.729        0.018      340.211       14.072      864.497
05/13/2013  05:16:00     -111.950      -72.447       -1.391       45.959       37.783       24.876     2112.274     1427.519      618.809        1.097        0.208      133.347       24.088        0.033      340.245       14.132      864.518
05/13/2013  05:17:00      -79.783      -20.601        0.437       34.105       33.842       15.235     1163.171     1145.256      232.105        0.466        0.127       82.400       14.024        0.029      340.381       14.361      864.502
05/13/2013  05:18:00      -46.179        3.749       -3.317       20.032       15.166       11.549      401.299      229.999      133.380        0.146        0.038       46.331       11.592        0.063      340.347       14.304      864.469
05/13/2013  05:19:00      -37.046      -16.174       -0.837       37.686       16.857       13.548     1420.243      284.147      183.540        0.176        0.094       40.422       17.333        0.184      340.288       14.204      864.472
05/13/2013  05:20:00       34.129       18.990       16.968       31.453       35.529       14.896      989.274     1262.293      221.879        0.214        0.124       39.057       14.587        0.139      340.271       14.176      864.438
05/13/2013  05:21:00       33.658       19.592       21.494       43.298       66.128       28.213     1874.686     4372.916      795.992        0.451        0.352       38.945       34.635        0.791      340.294       14.214      864.401
05/13/2013  05:22:00      -56.576      -51.195       14.429       81.408       51.720       36.226     6627.188     2674.929     1312.356        0.832        0.531       76.301       43.180        0.320      340.394       14.384      864.460
05/13/2013  05:23:00     -173.897      -94.183        1.575       65.382       56.881       27.574     4274.773     3235.402      760.346        2.369        0.414      197.764       26.898        0.018      340.358       14.321      864.480
05/13/2013  05:24:00     -159.322      -22.915       -7.140       57.967       43.636       23.290     3360.176     1904.141      542.417        1.588        0.290      160.961       27.247        0.029      340.229       14.105      864.460
05/13/2013  05:25:00      -88.662       67.364      -15.105       57.272       65.991       35.534     3280.034     4354.766     1262.691        1.076        0.445      111.350       31.565        0.080      340.212       14.076      864.414
05/13/2013  05:26:00      -42.830      109.138       -4.473       56.236       44.008       25.177     3162.522     1936.722      633.886        0.975        0.287      117.242       31.773        0.073      340.666       14.844      864.346
05/13/2013  05:27:00       19.403       28.471       -0.674       22.237       47.272       17.767      494.503     2234.677      315.670        0.212        0.152       34.454       16.062        0.217      340.456       14.488      864.378
05/13/2013  05:28:00       27.114      -84.018      -18.894       30.898       23.982       16.419      954.714      575.141      269.577        0.498        0.090       88.285       17.551        0.040      340.630       14.783      864.471
05/13/2013  05:29:00       35.611      -84.813       -7.633       36.933       29.424       20.998     1364.011      865.763      440.895        0.559        0.134       91.986        5.061        0.003      340.633       14.789      864.529
05/13/2013  05:30:00      -34.499      -13.588       -8.235       41.353       18.590       16.749     1710.054      345.590      280.536        0.189        0.117       37.079        7.969        0.046      340.605       14.741      864.563
05/13/2013  05:31:00      -22.090      -33.308       -6.588       33.105       20.338       17.807     1095.911      413.639      317.080        0.173        0.091       39.967       17.298        0.187      340.560       14.664      864.601
05/13/2013  05:32:00      -12.364       18.915       15.321       12.308       28.167       14.740      151.481      793.370      217.253        0.095        0.058       22.597       10.209        0.204      340.477       14.524      864.593
05/13/2013  05:33:00       -1.642      104.301      -16.568       19.516       26.318       18.063      380.888      692.653      326.272        0.628        0.070      104.314       13.633        0.017      340.471       14.515      864.502
05/13/2013  05:34:00      -79.769       88.602      -21.952       30.568       39.237       20.682      934.396     1539.541      427.743        0.880        0.145      119.220       24.088        0.041      340.467       14.507      864.453
05/13/2013  05:35:00     -123.414      -11.122      -10.352       50.354       52.921       22.514     2535.540     2800.633      506.863        1.065        0.292      123.914       19.921        0.026      340.520       14.597      864.478
05/13/2013  05:36:00      -56.701      -55.582       12.083      109.990       50.836       30.976    12097.821     2584.265      959.504        1.104        0.782       79.400       44.410        0.313      340.270       14.174      864.552
05/13/2013  05:37:00      -83.793      -88.939       -4.736       56.803       65.484       36.987     3226.579     4288.107     1368.009        1.192        0.444      122.194       37.085        0.092      340.188       14.035      864.664
05/13/2013  05:38:00      -92.934     -155.005        0.104       56.957       64.067       36.720     3244.078     4104.581     1348.343        2.068        0.435      180.730       38.201        0.045      340.233       14.110      864.745
05/13/2013  05:39:00      -95.313      -27.145      -19.284       40.067       50.901       25.810     1605.342     2590.952      666.166        0.753        0.243       99.103       10.304        0.011      340.396       14.388      864.720
05/13/2013  05:40:00       25.618       40.731        2.513       26.770       24.973       17.897      716.620      623.640      320.317        0.199        0.083       48.118       11.782        0.060      340.342       14.297      864.649
05/13/2013  05:41:00       -3.606       65.402      -10.532       26.776       17.515       10.540      716.960      306.759      111.096        0.277        0.057       65.501        8.347        0.016      340.610       14.750      864.592
05/13/2013  05:42:00      -88.097       96.909      -26.335       27.480       24.333       15.269      755.152      592.106      233.147        0.971        0.079      130.968       18.244        0.019      340.507       14.575      864.568
05/13/2013  05:43:00      -86.874       35.444      -13.764       40.049       41.839       24.858     1603.957     1750.540      617.926        0.648        0.199       93.827       23.969        0.065      340.660       14.834      864.551
05/13/2013  05:44:00     -109.403      -10.803       -5.968       66.226       38.316       30.904     4385.922     1468.133      955.029        0.946        0.340      109.935       36.517        0.110      340.634       14.791      864.552
05/13/2013  05:45:00      -56.064      -41.606        4.718       68.766       34.718       30.091     4728.741     1205.356      905.479        0.587        0.342       69.816       32.454        0.216      340.294       14.215      864.581
05/13/2013  05:46:00      -16.298       -4.809       -1.334       19.345       19.350       19.296      374.228      374.426      372.326        0.071        0.056       16.992       14.546        0.733      340.258       14.154      864.569
05/13/2013  05:47:00      -10.894       -2.896       -3.329       16.963       12.430       10.672      287.760      154.508      113.899        0.035        0.028       11.272        7.976        0.501      340.568       14.679      864.558
05/13/2013  05:48:00     -129.146      -34.105      -10.975       64.177       20.119       15.528     4118.664      404.787      241.109        1.136        0.238      133.574       20.825        0.024      340.411       14.413      864.607
05/13/2013  05:49:00     -122.103      -43.269      -17.623       49.977       30.201       27.951     2497.749      912.075      781.256        1.064        0.210      129.543       21.483        0.028      340.255       14.150      864.667
05/13/2013  05:50:00       -7.241       -7.675       19.386       23.352       39.908       22.378      545.332     1592.669      500.773        0.156        0.132       10.552       21.324        4.084      340.198       14.054      864.675
05/13/2013  05:51:00       21.182      -46.408        7.787       33.087       32.741       26.629     1094.727     1071.989      709.085        0.277        0.144       51.013       23.402        0.210      340.193       14.043      864.638
05/13/2013  05:52:00      -14.664      -19.871        9.396       20.094       33.047       18.558      403.778     1092.089      344.393        0.127        0.092       24.696       17.027        0.475      340.247       14.136      864.623
05/13/2013  05:53:00      -69.947      -20.507       -0.823       36.746       21.775       20.181     1350.298      474.150      407.263        0.377        0.112       72.892       12.703        0.030      340.404       14.402      864.657
05/13/2013  05:54:00     -141.633      -40.206      -18.768       16.414       18.399       12.636      269.409      338.507      159.668        1.140        0.038      147.229        5.387        0.001      340.170       14.006      864.702
05/13/2013  05:55:00      -67.178      -14.390       -8.770       53.828       25.331       14.641     2897.490      641.649      214.359        0.427        0.188       68.702       17.844        0.067      340.230       14.108      864.714
05/13/2013  05:56:00       40.103       30.992        8.795       24.959       19.103       21.352      622.932      364.915      455.904        0.204        0.072       50.683       16.711        0.109      340.570       14.681      864.672
05/13/2013  05:57:00       26.362       23.874        4.203       25.439       20.640       13.957      647.145      426.010      194.803        0.128        0.063       35.566        6.444        0.033      340.524       14.604      864.647
05/13/2013  05:58:00      -77.950      -35.397       -0.897       42.172       17.953       11.972     1778.471      322.322      143.327        0.479        0.112       85.610       10.233        0.014      340.264       14.165      864.692
05/13/2013  05:59:00     -108.420      -73.519       -5.952       54.071       35.822       26.258     2923.703     1283.240      689.469        1.105        0.245      130.996       19.890        0.023      340.070       13.836      864.771
05/13/2013  06:00:00      -77.450      -63.725        0.827       36.452       36.006       22.108     1328.774     1296.430      488.781        0.659        0.156      100.296       21.861        0.048      340.112       13.906      864.765
05/13/2013  06:01:00       -9.490        0.262       16.485       17.353       15.888       13.745      301.115      252.419      188.937        0.055        0.037        9.494       12.259        1.667      340.221       14.090      864.701
05/13/2013  06:02:00      -33.612       -0.728        0.644       23.637       33.720       19.603      558.715     1137.036      384.280        0.161        0.104       33.620       17.354        0.266      340.386       14.370      864.701
05/13/2013  06:03:00     -155.534      -25.120      -16.763       46.362       28.185       22.399     2149.446      794.374      501.715        1.427        0.172      157.549       21.980        0.019      340.348       14.306      864.748
05/13/2013  06:04:00     -138.193      -74.521      -11.131       38.364       30.541       21.948     1471.816      932.740      481.724        1.383        0.144      157.005       14.081        0.008      340.039       13.785      864.831
05/13/2013  06:05:00      -75.474      -66.175       -2.664       47.855       30.544       18.261     2290.147      932.932      333.462        0.682        0.178      100.376       18.348        0.033      340.113       13.908      864.900
05/13/2013  06:06:00       -7.851      -38.288       13.016       42.491       30.833       24.225     1805.482      950.697      586.839        0.252        0.167       39.085       23.689        0.367      340.209       14.071      864.896
05/13/2013  06:07:00      100.076       56.946        8.033       52.257       34.514       28.178     2730.789     1191.218      793.987        0.902        0.236      115.143       25.016        0.047      340.211       14.074      864.774
05/13/2013  06:08:00      170.337       79.744        6.334       69.383       37.295       36.758     4814.018     1390.926     1351.134        2.148        0.378      188.079       25.608        0.019      340.236       14.114      864.651
05/13/2013  06:09:00     -123.916      -32.079       -6.185      110.137       57.531       36.821    12130.102     3309.821     1355.780        1.661        0.840      128.001       46.166        0.130      340.307       14.235      864.814
05/13/2013  06:10:00     -208.530     -186.093       -9.059      115.044       80.183       53.240    13235.164     6429.295     2834.529        5.034        1.125      279.492       60.523        0.047      340.151       13.971      865.002
05/13/2013  06:11:00     -108.809      -68.187       -1.471       50.811       54.275       25.069     2581.803     2945.812      628.467        1.132        0.308      128.409       18.026        0.020      340.272       14.176      865.015
05/13/2013  06:12:00       25.934       39.609        4.414       42.476       24.492       19.680     1804.221      599.878      387.306        0.253        0.140       47.344        4.637        0.010      340.311       14.241      864.842
05/13/2013  06:13:00       21.613       52.461      -15.035       30.360       44.037       25.227      921.757     1939.251      636.397        0.347        0.175       56.739       28.079        0.245      340.279       14.189      864.735
05/13/2013  06:14:00      -35.028       31.581       -9.080       55.592       48.230       24.145     3090.491     2326.144      582.980        0.415        0.300       47.163       27.011        0.328      340.458       14.492      864.786
05/13/2013  06:15:00     -102.984      -58.868       -5.695       43.307       37.901       22.409     1875.460     1436.478      502.182        0.896        0.191      118.622       20.006        0.028      340.366       14.336      864.895
05/13/2013  06:16:00      -47.151      -50.949       -1.502       70.849       32.933       24.273     5019.633     1084.592      589.170        0.576        0.335       69.419       26.453        0.145      340.363       14.333      865.011
05/13/2013  06:17:00      -19.077      -70.729        3.302       41.420       31.538       21.402     1715.576      994.620      458.033        0.427        0.158       73.256       22.181        0.092      340.377       14.354      865.076
05/13/2013  06:18:00       49.501      -46.159        6.152       56.536       67.807       64.349     3196.310     4597.740     4140.835        0.827        0.597       67.683       43.604        0.415      340.233       14.112      865.045
05/13/2013  06:19:00       13.023       -6.695       32.787       24.887       38.107       39.542      619.374     1452.107     1563.596        0.246        0.182       14.643       34.036        5.403      340.304       14.232      864.968
05/13/2013  06:20:00      -37.932      -24.884       -4.152       32.621       39.661       18.494     1064.115     1573.013      342.040        0.253        0.149       45.366       16.334        0.130      340.540       14.631      864.939
05/13/2013  06:21:00     -132.162      -59.251       -8.710       42.261       38.105       21.547     1785.952     1451.996      464.281        1.238        0.185      144.836       13.870        0.009      340.631       14.785      864.993
05/13/2013  06:22:00     -113.550      -50.028       -0.717       44.713       28.570       23.079     1999.257      816.253      532.647        0.937        0.167      124.082       14.471        0.014      340.510       14.581      865.018
05/13/2013  06:23:00       -5.078        9.480       15.113       51.195       37.104       19.694     2620.887     1376.738      387.844        0.236        0.219       10.754       21.662        4.057      340.580       14.699      864.975
05/13/2013  06:24:00       75.790       67.576       11.753       41.683       30.353       25.806     1737.507      921.293      665.959        0.689        0.166      101.541       21.112        0.043      340.537       14.626      864.863
05/13/2013  06:25:00       87.055       55.419       10.798       68.161       35.278       36.920     4645.983     1244.566     1363.123        0.901        0.363      103.198       29.259        0.080      340.514       14.587      864.816
05/13/2013  06:26:00        1.726      -70.150       -6.673       42.856       31.131       30.322     1836.608      969.153      919.408        0.435        0.186       70.171       23.066        0.108      340.472       14.516      864.883
05/13/2013  06:27:00      -32.548      -18.189       13.461       67.864       29.208       30.584     4605.563      853.086      935.384        0.398        0.320       37.286       33.805        0.822      340.594       14.722      864.969
05/13/2013  06:28:00      -68.625      -14.137       -2.514       41.971       30.846       16.139     1761.537      951.474      260.457        0.394        0.149       70.066       18.805        0.072      340.808       15.085      865.016
05/13/2013  06:29:00      -10.591       25.467        5.364       23.645       26.856       14.767      559.092      721.258      218.076        0.114        0.075       27.582       16.279        0.348      341.012       15.429      865.000
05/13/2013  06:30:00       -1.028       83.479      -17.462       22.912       26.907       11.149      524.937      724.012      124.300        0.432        0.069       83.485       12.147        0.021      340.816       15.097      864.941
05/13/2013  06:31:00       -5.504       -4.169       -4.496       30.889       57.842       20.555      954.140     3345.702      422.509        0.239        0.236        6.904       11.069        2.570      340.841       15.138      864.987
05/13/2013  06:32:00       52.977      -74.875       15.637       46.491       29.051       35.957     2161.392      843.961     1292.927        0.648        0.215       91.721       19.735        0.046      340.696       14.896      865.067
05/13/2013  06:33:00      -46.564      -80.495       12.312       35.963       54.410       28.731     1293.307     2960.399      825.445        0.694        0.254       92.993       18.431        0.039      340.491       14.546      865.091
05/13/2013  06:34:00       12.226       -6.308       45.612       40.411       86.080       48.006     1633.009     7409.712     2304.571        0.681        0.567       13.757       41.246        8.989      340.374       14.349      865.015
05/13/2013  06:35:00      -40.849       47.274        4.957       54.061       29.364       32.901     2922.542      862.263     1082.466        0.440        0.243       62.478       25.182        0.162      340.502       14.567      864.964
05/13/2013  06:36:00     -221.151      -81.855       -4.267      109.038       80.444       37.581    11889.256     6471.246     1412.366        3.770        0.989      235.813       23.916        0.010      340.640       14.797      865.043
05/13/2013  06:37:00     -252.173     -138.858       -5.442      114.496      102.382       50.560    13109.310    10482.091     2556.324        5.452        1.307      287.877       49.270        0.029      340.263       14.159      865.170
05/13/2013  06:38:00      -42.545     -133.131       10.819       57.247       63.644       34.501     3277.188     4050.598     1190.312        1.408        0.426      139.763       33.549        0.058      340.279       14.188      865.192
05/13/2013  06:39:00       50.034       14.320       29.376       58.463       44.814       41.845     3417.900     2008.274     1751.034        0.537        0.359       52.043       37.197        0.511      340.336       14.287      865.069
05/13/2013  06:40:00       69.751       31.862        6.961       66.938       38.595       22.477     4480.652     1489.587      505.225        0.620        0.324       76.684       18.594        0.059      340.387       14.371      864.964
05/13/2013  06:41:00        3.577       27.106       -3.986       53.289       22.698       17.280     2839.742      515.197      298.605        0.221        0.183       27.341       14.933        0.298      340.532       14.617      864.988
05/13/2013  06:42:00     -148.795      -69.787      -11.140       47.119       27.270       16.261     2220.231      743.651      264.422        1.518        0.161      164.348       11.633        0.005      340.562       14.669      865.098
05/13/2013  06:43:00     -164.069      -82.831       -2.639       46.394       33.504       19.591     2152.424     1122.526      383.798        1.872        0.183      183.792        7.286        0.002      340.510       14.579      865.191
05/13/2013  06:44:00     -130.586      -11.372        0.506       54.764       46.742       31.020     2999.149     2184.801      962.246        1.166        0.307      131.080       33.368        0.065      340.527       14.608      865.203
05/13/2013  06:45:00        0.876        3.248        8.864       33.252       36.597       28.719     1105.679     1339.343      824.788        0.168        0.163        3.364        8.053        5.730      340.717       14.931      865.154
05/13/2013  06:46:00        0.315       -3.322        6.821       16.534       26.281       14.796      273.366      690.714      218.933        0.062        0.059        3.337       11.478       11.834      340.728       14.950      865.151
05/13/2013  06:47:00      -33.210      -44.942        2.275       31.106       25.625       20.950      967.555      656.646      438.883        0.260        0.103       55.881       16.253        0.085      340.689       14.883      865.213
05/13/2013  06:48:00        5.043      -14.656       26.376       25.042       16.620       19.010      627.118      276.218      361.399        0.110        0.063       15.499       17.902        1.334      340.936       15.302      865.259
05/13/2013  06:49:00       59.833       26.871       18.970       54.782       25.505       25.240     3001.069      650.522      637.078        0.447        0.214       65.590       16.816        0.066      340.813       15.093      865.225
05/13/2013  06:50:00      108.822       65.134       26.393       60.382       42.810       35.008     3645.949     1832.694     1225.547        1.174        0.335      126.825       29.083        0.053      340.779       15.036      865.114
05/13/2013  06:51:00      111.224       48.739        4.370       64.685       42.516       34.845     4184.113     1807.632     1214.202        1.098        0.360      121.434       17.673        0.021      340.802       15.074      865.088
05/13/2013  06:52:00     -123.146      -24.256      -12.486       80.196       40.198       16.265     6431.352     1615.893      264.548        1.211        0.416      125.512        9.662        0.006      340.819       15.102      865.192
05/13/2013  06:53:00     -203.019      -90.964       -4.769       53.037       56.329       33.445     2812.957     3172.937     1118.564        2.831        0.355      222.467       21.064        0.009      340.818       15.097      865.327
05/13/2013  06:54:00      -67.366      -54.924       -4.292       88.693       40.519       29.291     7866.377     1641.786      857.976        0.897        0.518       86.918       31.346        0.130      340.885       15.214      865.393
05/13/2013  06:55:00      -26.346      -56.226        4.497       10.890       32.023        7.860      118.588     1025.447       61.774        0.254        0.060       62.093       12.113        0.038      340.961       15.343      865.332
05/13/2013  06:56:00       -7.511       20.077        8.695       10.962       14.180       18.846      120.159      201.069      355.156        0.061        0.034       21.436       11.030        0.265      341.330       15.968      865.248
05/13/2013  06:57:00      -18.035       31.051       -4.277       33.903       33.117       14.597     1149.406     1096.718      213.073        0.188        0.123       35.908       12.527        0.122      341.216       15.776      865.246
05/13/2013  06:58:00       -9.573      -28.818       -7.951       13.779       17.729       13.019      189.856      314.311      169.491        0.083        0.034       30.366        7.944        0.068      341.130       15.629      865.295
05/13/2013  06:59:00      -10.860      -43.906        6.852       20.248       37.933       22.565      409.996     1438.948      509.198        0.222        0.118       45.229       15.590        0.119      341.410       16.105      865.330
05/13/2013  07:00:00       14.763      -62.805       23.762       29.668       50.214       38.856      880.173     2521.459     1509.754        0.482        0.246       64.517       26.885        0.174      341.444       16.162      865.368
05/13/2013  07:01:00      -18.687      -16.298       25.215       18.606       26.710       23.737      346.169      713.441      563.446        0.144        0.081       24.795       13.757        0.308      341.555       16.349      865.370
05/13/2013  07:02:00       13.956       -3.568       25.854       22.294       20.844       22.092      497.044      434.459      488.077        0.115        0.071       14.405       19.046        1.748      341.743       16.668      865.315
05/13/2013  07:03:00       24.615       26.702       23.165       27.270       28.354       20.216      743.632      803.960      408.689        0.191        0.098       36.317       18.164        0.250      341.515       16.282      865.278
05/13/2013  07:04:00      -21.236       48.472       -4.954       23.656       18.147       11.017      559.594      329.299      121.379        0.192        0.051       52.920       10.243        0.037      341.174       15.703      865.270
05/13/2013  07:05:00      -54.698       -3.515       -8.632       29.642       31.252       18.814      878.641      976.702      353.963        0.264        0.110       54.811       14.785        0.073      341.476       16.216      865.287
05/13/2013  07:06:00     -122.038      -42.813      -11.484       40.673       30.075       16.141     1654.279      904.499      260.543        0.984        0.141      129.330       16.497        0.016      341.189       15.731      865.346
05/13/2013  07:07:00      -47.670      -34.807       12.919       48.704       24.357       24.950     2372.042      593.283      622.481        0.362        0.179       59.025       28.358        0.231      341.513       16.278      865.409
05/13/2013  07:08:00      -41.238     -103.600        9.921       58.354       54.474       35.523     3405.220     2967.465     1261.908        1.008        0.382      111.506       30.785        0.076      341.301       15.918      865.436
05/13/2013  07:09:00      -31.244      -29.553       10.753       57.626       31.957       29.856     3320.754     1021.228      891.399        0.360        0.262       43.006       28.620        0.443      341.331       15.969      865.386
05/13/2013  07:10:00       35.538       23.684       15.997       61.760       44.774       28.166     3814.352     2004.696      793.316        0.434        0.331       42.707       14.639        0.117      341.431       16.140      865.287
05/13/2013  07:11:00      118.971       88.386       35.683       32.676       31.381       37.741     1067.748      984.771     1424.361        1.336        0.174      148.210       20.251        0.019      341.240       15.816      865.202
05/13/2013  07:12:00       68.005       78.827       61.744       47.858       33.788       28.669     2290.398     1141.607      821.915        0.945        0.213      104.108       23.588        0.051      341.421       16.120      865.198
05/13/2013  07:13:00       12.339       13.554       45.577       47.920       45.831       24.788     2296.337     2100.524      614.422        0.371        0.251       18.329       33.246        3.290      341.467       16.200      865.246
05/13/2013  07:14:00     -148.532      -47.073        0.303       69.650       45.127       22.722     4851.168     2036.455      516.287        1.584        0.370      155.813       32.271        0.043      341.393       16.073      865.340
05/13/2013  07:15:00     -155.948     -114.699        5.314       93.007       81.816       48.744     8650.269     6693.890     2375.978        2.761        0.886      193.586       45.927        0.056      341.367       16.028      865.430
05/13/2013  07:16:00     -134.124      -77.046       14.967      128.545      106.471       69.883    16523.888    11336.159     4883.612        2.844        1.637      154.678       70.736        0.209      341.365       16.025      865.457
05/13/2013  07:17:00     -142.550      -30.955       -5.429       81.967       60.800       35.782     6718.628     3696.662     1280.382        1.650        0.585      145.872       37.690        0.067      341.331       15.968      865.465
05/13/2013  07:18:00      -23.790       46.710       -3.290       51.107       25.402       27.574     2611.943      645.265      760.322        0.339        0.201       52.419       18.531        0.125      341.565       16.366      865.393
05/13/2013  07:19:00       70.731       92.343       23.490       48.890       39.200       45.633     2390.252     1536.675     2082.375        1.004        0.300      116.319       27.736        0.057      341.550       16.339      865.290
05/13/2013  07:20:00       47.688       88.459       94.014       43.971       46.067       27.539     1933.442     2122.188      758.417        1.188        0.241      100.494       22.151        0.049      341.579       16.388      865.256
05/13/2013  07:21:00       50.737       54.204       62.346       40.384       39.609       38.899     1630.880     1568.849     1513.128        0.706        0.236       74.245       19.642        0.070      341.499       16.255      865.299
05/13/2013  07:22:00      -34.095       27.416      -22.872       26.624       24.152       24.808      708.820      583.319      615.449        0.217        0.095       43.751       11.383        0.068      341.641       16.495      865.347
05/13/2013  07:23:00     -110.331      -18.715       -9.655       57.368       50.183       23.793     3291.094     2518.290      566.106        0.949        0.319      111.907       19.114        0.029      341.974       17.059      865.394
05/13/2013  07:24:00     -194.327      -47.586       -8.838       76.455       52.388       40.475     5845.299     2744.476     1638.229        2.516        0.511      200.068       43.058        0.046      341.751       16.677      865.425
05/13/2013  07:25:00     -223.888       23.112      -14.266       76.402       51.760       35.124     5837.244     2679.096     1233.707        3.031        0.488      225.077       35.185        0.024      341.829       16.810      865.431
05/13/2013  07:26:00     -200.085       -5.036      -23.942       68.804       42.778       33.024     4733.996     1829.922     1090.596        2.414        0.383      200.149       40.480        0.041      341.640       16.491      865.421
05/13/2013  07:27:00      -87.606      -41.576       -3.797       36.835       49.078       23.308     1356.851     2408.674      543.269        0.686        0.215       96.971       17.415        0.032      341.655       16.517      865.404
05/13/2013  07:28:00     -116.449      -40.731       -8.818       42.018       34.422       17.612     1765.473     1184.861      310.198        0.928        0.163      123.367       19.568        0.025      341.628       16.472      865.451
05/13/2013  07:29:00      -17.073      -30.243        6.478       20.343       19.015       12.926      413.855      361.552      167.094        0.110        0.047       34.730       11.575        0.111      341.850       16.850      865.485
05/13/2013  07:30:00       34.450       45.514       -4.059       40.171       36.010       29.040     1613.692     1296.733      843.319        0.351        0.188       57.082       23.939        0.176      341.976       17.063      865.464
05/13/2013  07:31:00        6.278       75.105       -7.898       28.376       49.828       19.642      805.199     2482.799      385.815        0.471        0.184       75.367       28.449        0.142      341.837       16.828      865.432
05/13/2013  07:32:00      -61.958        2.231       -8.952       36.067       63.701       14.914     1300.814     4057.812      222.442        0.475        0.279       61.998       15.398        0.062      342.081       17.242      865.435
05/13/2013  07:33:00      -22.064      -43.113       20.408       43.890       34.702       25.745     1926.319     1204.200      662.815        0.328        0.190       48.431       20.838        0.185      342.077       17.235      865.440
05/13/2013  07:34:00      -11.042       -2.140       19.261       17.435       15.007       19.049      303.980      225.222      362.855        0.069        0.045       11.248       14.501        1.662      342.566       18.066      865.421
05/13/2013  07:35:00       39.354       37.558       20.947       28.451       23.520       20.517      809.443      553.192      420.960        0.259        0.089       54.400       19.342        0.126      342.152       17.361      865.366
05/13/2013  07:36:00       51.834       88.036      -15.112       27.806       46.475       26.988      773.147     2159.961      728.372        0.716        0.183      102.162       23.345        0.052      342.058       17.202      865.323
05/13/2013  07:37:00       17.240       78.466      -14.925       31.261       36.232       17.961      977.276     1312.723      322.597        0.464        0.131       80.337       13.991        0.030      342.143       17.347      865.323
05/13/2013  07:38:00       21.905       28.160       -2.654       21.910       26.822       19.308      480.044      719.397      372.811        0.143        0.079       35.676       15.633        0.192      342.287       17.592      865.336
05/13/2013  07:39:00       -9.050        8.291       23.891       15.493       13.154       14.471      240.020      173.025      209.402        0.067        0.031       12.274        7.902        0.415      342.705       18.303      865.361
05/13/2013  07:40:00       43.501      -10.908       30.077       41.322       38.868       33.454     1707.505     1510.721     1119.181        0.363        0.217       44.847       29.343        0.428      342.137       17.339      865.369
05/13/2013  07:41:00       36.084       65.104       76.603       35.708       51.874       23.187     1275.043     2690.880      537.655        0.796        0.225       74.435       24.860        0.112      342.256       17.538      865.358
05/13/2013  07:42:00      100.913       56.406       42.089       43.718       40.163       39.593     1911.265     1613.032     1567.575        1.011        0.255      115.607       20.074        0.030      342.279       17.576      865.352
05/13/2013  07:43:00       44.391       54.611       58.607       40.479       43.505       33.514     1638.527     1892.725     1123.176        0.652        0.233       70.377       17.482        0.062      342.299       17.612      865.354
05/13/2013  07:44:00       14.012       19.581       57.639       20.435       17.088       14.291      417.569      291.987      204.233        0.241        0.046       24.078        9.712        0.163      342.449       17.866      865.381
05/13/2013  07:45:00        1.296       -7.261       24.458       11.915       27.754       16.540      141.960      770.283      273.574        0.092        0.059        7.375       16.305        4.888      342.672       18.246      865.404
05/13/2013  07:46:00       -0.368      -36.977       10.446       13.979       24.395       15.951      195.409      595.130      254.430        0.126        0.052       36.979       11.505        0.097      342.318       17.643      865.398
05/13/2013  07:47:00       21.406      -47.160       10.383       36.005       41.414       34.048     1296.377     1715.102     1159.291        0.348        0.209       51.791       28.946        0.312      342.214       17.466      865.402
05/13/2013  07:48:00       31.415      -18.184       27.776       37.298       37.274       43.597     1391.152     1389.370     1900.735        0.338        0.234       36.298       26.862        0.548      342.485       17.928      865.411
05/13/2013  07:49:00       19.070       17.716       49.266       47.103       40.919       35.511     2218.680     1674.329     1261.055        0.413        0.258       26.030       24.287        0.871      342.583       18.094      865.380
05/13/2013  07:50:00       80.011       66.904       18.543       58.346       31.480       37.292     3404.276      990.978     1390.691        0.850        0.289      104.297       23.009        0.049      342.317       17.642      865.348
05/13/2013  07:51:00       68.586       74.335       62.954       45.979       35.325       41.092     2114.110     1247.824     1688.586        0.962        0.253      101.142       26.848        0.070      342.329       17.662      865.347
05/13/2013  07:52:00       38.174        8.124       -0.522       31.189       37.190       19.442      972.737     1383.107      377.981        0.213        0.137       39.029       10.011        0.066      342.431       17.836      865.358
05/13/2013  07:53:00      -40.383      -32.951      -14.686       24.185       35.218       23.383      584.930     1240.331      546.745        0.265        0.119       52.120       16.397        0.099      342.385       17.757      865.384
05/13/2013  07:54:00      -45.574      -40.784        2.777       39.942       22.379       18.134     1595.393      500.832      328.840        0.309        0.121       61.159       19.617        0.103      342.483       17.925      865.408
05/13/2013  07:55:00        6.633       -3.861       30.203       25.964       18.696       17.584      674.109      349.556      309.202        0.115        0.067        7.675       17.225        5.037      343.280       19.281      865.413
05/13/2013  07:56:00       25.368       12.352       17.764       31.037       36.351       32.996      963.321     1321.416     1088.703        0.224        0.169       28.215       20.967        0.552      342.709       18.309      865.402
05/13/2013  07:57:00       64.438       50.603       20.500       52.795       40.476       29.591     2787.280     1638.269      875.638        0.622        0.265       81.933       18.993        0.054      342.771       18.414      865.393
05/13/2013  07:58:00      112.954       72.965       36.738       29.224       22.900       25.126      854.020      524.420      631.330        1.072        0.100      134.472        5.293        0.002      342.602       18.126      865.376
05/13/2013  07:59:00      147.340       98.857       25.181       52.219       42.275       40.683     2726.828     1787.166     1655.094        1.914        0.308      177.431       20.272        0.013      342.694       18.283      865.340
05/13/2013  08:00:00      115.967       55.444       14.119       88.132       50.429       36.110     7767.195     2543.059     1303.959        1.417        0.581      128.539       18.494        0.021      342.791       18.446      865.317
05/13/2013  08:01:00       52.213       50.229        9.448       49.015       35.523       30.359     2402.494     1261.906      921.646        0.496        0.229       72.451       19.998        0.076      342.869       18.582      865.339
05/13/2013  08:02:00       14.243        9.179        5.442       41.497       19.637       21.056     1722.023      385.599      443.351        0.143        0.128       16.944       11.965        0.499      342.813       18.485      865.398
05/13/2013  08:03:00       16.714       -5.516       20.617       33.282       31.064       22.414     1107.685      964.950      502.375        0.165        0.129       17.600       12.685        0.519      342.856       18.559      865.448
05/13/2013  08:04:00       21.142       30.112       69.279       32.286       33.215       24.346     1042.386     1103.214      592.710        0.445        0.137       36.793       17.902        0.237      343.159       19.075      865.436
05/13/2013  08:05:00      103.988      113.971       77.459       81.832       48.989       53.445     6696.516     2399.969     2856.335        2.088        0.598      154.281       43.688        0.080      342.844       18.536      865.374
05/13/2013  08:06:00      184.780      105.161       10.755       48.925       46.875       45.843     2393.612     2197.297     2101.549        2.600        0.335      212.609       23.231        0.012      342.730       18.340      865.346
05/13/2013  08:07:00      123.869       70.164       25.317       52.784       60.575       45.130     2786.127     3669.309     2036.731        1.470        0.425      142.361       20.975        0.022      342.900       18.631      865.347
05/13/2013  08:08:00      102.571       67.013        9.707       45.261       42.228       34.109     2048.596     1783.203     1163.394        1.005        0.250      122.521       21.732        0.031      342.879       18.599      865.368
05/13/2013  08:09:00       92.799       90.733       12.539       77.430       47.505       35.176     5995.425     2256.685     1237.358        1.324        0.474      129.785       27.199        0.044      342.920       18.667      865.372
05/13/2013  08:10:00       54.683       88.124        5.136       41.214       51.436       34.887     1698.560     2645.710     1217.074        0.817        0.278      103.711       31.006        0.089      342.918       18.665      865.368
05/13/2013  08:11:00       87.797       62.230       16.338       69.283       38.391       23.231     4800.087     1473.831      539.695        0.933        0.341      107.614       20.464        0.036      342.983       18.775      865.364
05/13/2013  08:12:00      134.665       76.169      -10.630       41.511       41.925       27.500     1723.123     1757.736      756.234        1.414        0.212      154.714       11.855        0.006      342.800       18.463      865.376
05/13/2013  08:13:00       30.328       21.929       29.428       34.570       26.885       28.786     1195.097      722.784      828.641        0.251        0.137       37.426       24.876        0.442      342.930       18.685      865.381
05/13/2013  08:14:00       19.010       10.982       22.576       33.635       44.891       24.537     1131.327     2015.222      602.081        0.237        0.187       21.954       18.291        0.694      343.003       18.808      865.386
05/13/2013  08:15:00        7.243        5.742       16.628       29.243       33.652       22.035      855.132     1132.470      485.547        0.142        0.124        9.243       10.925        1.397      343.319       19.347      865.394
05/13/2013  08:16:00       31.737       20.410       13.114       48.698       31.093       27.232     2371.507      966.755      741.566        0.284        0.204       37.733       26.185        0.482      343.471       19.607      865.409
05/13/2013  08:17:00      -13.723       44.713       10.600       41.169       32.722       29.716     1694.855     1070.713      883.021        0.297        0.182       46.771       23.144        0.245      343.166       19.086      865.447
05/13/2013  08:18:00       -4.380       13.443       -4.106       11.446       19.675       13.779      131.008      387.088      189.864        0.046        0.035       14.139       14.037        0.986      343.027       18.850      865.485
05/13/2013  08:19:00      -18.393       30.448        1.787       16.494       22.227       20.481      272.057      494.029      419.460        0.123        0.059       35.572        5.963        0.028      343.192       19.133      865.487
05/13/2013  08:20:00      -13.889       37.565        7.594       19.613       35.409       22.044      384.681     1253.789      485.950        0.189        0.106       40.050       23.924        0.357      343.327       19.361      865.462
05/13/2013  08:21:00       -5.485       84.175      -14.997       16.486       26.261       16.715      271.788      689.665      279.399        0.429        0.062       84.354       15.768        0.035      343.062       18.909      865.431
05/13/2013  08:22:00      -13.410       82.632      -11.754       21.865       19.776       21.593      478.058      391.085      466.262        0.424        0.067       83.713       14.748        0.031      343.205       19.154      865.407
05/13/2013  08:23:00      -10.176       52.564        0.071       24.572       21.072       22.507      603.761      444.035      506.544        0.221        0.078       53.540       13.637        0.065      343.465       19.596      865.400
05/13/2013  08:24:00        5.652       25.728        6.273       30.354       18.775       31.577      921.394      352.494      997.089        0.150        0.114       26.342       25.868        0.964      343.306       19.324      865.402
05/13/2013  08:25:00       51.204       47.388        7.823       24.222       18.267       17.735      586.729      333.689      314.544        0.308        0.062       69.767        7.601        0.012      343.109       18.988      865.401
05/13/2013  08:26:00       28.204       49.504       15.443       27.825       35.903       22.678      774.218     1289.038      514.301        0.303        0.129       56.975       18.130        0.101      343.690       19.981      865.405
05/13/2013  08:27:00        6.251      105.143      -14.982       24.874       49.746       22.054      618.724     2474.687      486.370        0.745        0.179      105.328       26.436        0.063      343.282       19.285      865.387
05/13/2013  08:28:00      -31.753      111.725      -20.127       26.609       41.100       18.423      708.056     1689.190      339.399        0.832        0.137      116.150       13.376        0.013      343.224       19.185      865.366
05/13/2013  08:29:00      -18.833       79.820       -6.888       18.764       31.645       23.083      352.101     1001.393      532.844        0.433        0.094       82.011       19.401        0.056      343.396       19.478      865.358
05/13/2013  08:30:00        3.252       52.516       10.383       20.532       24.775       27.194      421.575      613.809      739.518        0.233        0.089       52.616       21.653        0.169      343.651       19.913      865.349
05/13/2013  08:31:00       45.677       57.084        4.524       29.466       37.328       27.331      868.225     1393.385      746.988        0.419        0.150       73.109       19.292        0.070      343.334       19.374      865.351
05/13/2013  08:32:00       15.561       57.604        0.297       22.734       22.837       21.101      516.814      521.532      445.270        0.252        0.074       59.669       15.278        0.066      343.496       19.649      865.348
05/13/2013  08:33:00       29.447       22.200       24.523       22.860       19.033       18.199      522.583      362.237      331.219        0.159        0.061       36.878       10.803        0.086      343.748       20.079      865.326
05/13/2013  08:34:00       76.981       69.777        8.650       50.416       41.014       34.924     2541.724     1682.179     1219.670        0.816        0.272      103.898       21.149        0.041      343.684       19.969      865.300
05/13/2013  08:35:00       37.954       68.131       10.299       56.530       51.522       38.062     3195.690     2654.536     1448.746        0.674        0.365       77.990       22.370        0.082      343.718       20.027      865.296
05/13/2013  08:36:00       72.524       73.437       -3.181       53.142       41.888       32.352     2824.076     1754.606     1046.658        0.814        0.281      103.212       17.177        0.028      343.548       19.737      865.326
05/13/2013  08:37:00       52.501       48.119       24.073       39.432       26.396       29.668     1554.879      696.723      880.192        0.439        0.157       71.216       14.778        0.043      343.621       19.862      865.376
05/13/2013  08:38:00      -16.833        1.252       14.796       19.883       17.834       18.498      395.334      318.035      342.172        0.078        0.053       16.879       13.214        0.613      344.001       20.511      865.427
05/13/2013  08:39:00        8.014       60.799       19.342       31.875       50.244       32.634     1016.022     2524.448     1064.965        0.437        0.230       61.325       28.097        0.210      344.056       20.604      865.453
05/13/2013  08:40:00       52.360       56.053       -4.530       24.924       22.377       20.755      621.192      500.735      430.790        0.373        0.078       76.704       13.221        0.030      343.969       20.456      865.446
05/13/2013  08:41:00       48.477       44.273       20.705       38.836       22.893       27.240     1508.209      524.107      742.031        0.376        0.139       65.652       21.781        0.110      344.134       20.737      865.401
05/13/2013  08:42:00       81.786       37.980       17.849       46.721       27.058       22.382     2182.895      732.135      500.963        0.593        0.171       90.174       15.530        0.030      344.092       20.666      865.341
05/13/2013  08:43:00       85.648       56.920        7.032       58.382       37.378       39.539     3408.450     1397.149     1563.352        0.850        0.318      102.837       11.998        0.014      344.183       20.822      865.295
05/13/2013  08:44:00      101.778       78.670       10.208       31.106       27.788       32.740      967.594      772.147     1071.897        0.973        0.141      128.638       21.624        0.028      343.950       20.425      865.285
05/13/2013  08:45:00      108.513       71.898       28.526       32.998       28.300       43.315     1088.877      800.911     1876.153        1.076        0.188      130.171       24.432        0.035      343.848       20.248      865.304
05/13/2013  08:46:00       83.144       85.519       58.392       49.399       40.736       33.358     2440.223     1659.456     1112.768        1.142        0.261      119.275       19.420        0.027      343.928       20.385      865.313
05/13/2013  08:47:00       77.260       42.826       31.036       65.236       49.515       37.021     4255.733     2451.755     1370.557        0.842        0.404       88.336       35.464        0.161      344.054       20.602      865.314
05/13/2013  08:48:00       48.563       40.168       30.159       52.295       64.443       44.634     2734.814     4152.917     1992.222        0.688        0.444       63.022       37.133        0.347      344.009       20.525      865.309
05/13/2013  08:49:00       24.407      -20.291       27.290       37.715       58.828       38.535     1422.440     3460.768     1484.956        0.406        0.318       31.740       26.684        0.707      344.192       20.836      865.320
05/13/2013  08:50:00       60.839      -17.689       34.584       45.088       79.207       47.884     2032.903     6273.688     2292.882        0.790        0.530       63.359       46.033        0.528      344.244       20.926      865.318
05/13/2013  08:51:00       68.497       62.176       51.356       44.296       46.819       36.491     1962.155     2192.063     1331.579        0.834        0.274       92.508       15.882        0.029      344.072       20.632      865.303
05/13/2013  08:52:00       53.263       35.376       37.073       29.811       30.683       27.875      888.701      941.417      777.006        0.403        0.130       63.941       13.596        0.045      343.951       20.425      865.278
05/13/2013  08:53:00       12.654        1.348       26.353       35.139       35.971       25.678     1234.718     1293.941      659.337        0.202        0.159       12.726       23.371        3.373      344.304       21.029      865.256
05/13/2013  08:54:00       12.875       18.850       59.861       42.315       68.806       33.578     1790.578     4734.328     1127.488        0.588        0.383       22.827       34.829        2.328      344.564       21.474      865.246
05/13/2013  08:55:00       90.528       82.273       72.688       48.491       38.648       26.339     2351.334     1493.659      693.744        1.239        0.227      122.328       14.992        0.015      344.094       20.670      865.258
05/13/2013  08:56:00       46.321       48.122       61.738       53.601       60.887       36.907     2873.080     3707.200     1362.104        0.811        0.397       66.793       33.884        0.257      344.378       21.154      865.265
05/13/2013  08:57:00       89.117       51.916       47.000       80.281       38.118       44.666     6444.981     1452.992     1995.011        1.137        0.495      103.137       46.872        0.207      344.429       21.241      865.275
05/13/2013  08:58:00       83.771       57.874       26.791       52.399       49.791       34.563     2745.707     2479.156     1194.614        0.875        0.321      101.818       28.774        0.080      344.565       21.473      865.276
05/13/2013  08:59:00       54.677       44.346       42.354       53.480       60.992       34.980     2860.139     3720.017     1223.631        0.728        0.390       70.399       22.344        0.101      344.732       21.761      865.266
05/13/2013  09:00:00       62.927       78.977       71.953       43.491       34.071       44.265     1891.456     1160.835     1959.373        1.019        0.251      100.981       27.768        0.076      344.453       21.282      865.257
05/13/2013  09:01:00       99.684       81.004       20.869       85.624       42.285       47.152     7331.541     1787.990     2223.303        1.414        0.567      128.447       43.336        0.114      344.603       21.538      865.232
05/13/2013  09:02:00      126.361       76.714       19.255       47.865       36.177       32.407     2291.023     1308.780     1050.212        1.344        0.233      147.824       27.243        0.034      344.466       21.304      865.227
05/13/2013  09:03:00       79.184       51.657       21.470       60.740       33.163       37.575     3689.312     1099.797     1411.873        0.780        0.310       94.544       29.092        0.095      344.698       21.702      865.236
05/13/2013  09:04:00      -10.881        7.046       43.700       17.523       29.322       23.930      307.052      859.765      572.662        0.191        0.087       12.963       14.827        1.308      345.407       22.916      865.267
05/13/2013  09:05:00        5.055       19.332       45.383       25.368       34.493       16.023      643.538     1189.764      256.738        0.227        0.105       19.982        9.093        0.207      345.332       22.788      865.313
05/13/2013  09:06:00      -12.969      -79.334       -7.645       42.480       38.938       24.395     1804.552     1516.190      595.092        0.522        0.196       80.387       14.332        0.032      344.670       21.653      865.335
05/13/2013  09:07:00      -16.041      -69.171        1.892       35.726       47.321       35.913     1276.373     2239.314     1289.727        0.492        0.240       71.007       27.855        0.154      344.990       22.201      865.330
05/13/2013  09:08:00       27.224        7.032       77.968       48.048       80.423       49.014     2308.568     6467.849     2402.336        0.902        0.559       28.118       49.738        3.129      345.040       22.287      865.267
05/13/2013  09:09:00       99.418      111.846       75.453       83.911       46.061       42.423     7041.045     2121.614     1799.743        1.952        0.548      149.644       51.433        0.118      344.774       21.831      865.181
05/13/2013  09:10:00      104.941       79.442       16.195       29.103       33.427       29.968      846.960     1117.367      898.058        1.022        0.143      131.619       17.391        0.017      344.506       21.374      865.102
05/13/2013  09:11:00       63.472       76.015       25.555       39.880       40.749       44.560     1590.398     1660.499     1985.591        0.785        0.262       99.031       28.370        0.082      344.842       21.948      865.067
05/13/2013  09:12:00      138.343      109.139       87.398       79.071       48.535       49.464     6252.152     2355.637     2446.710        2.487        0.553      176.210       37.799        0.046      344.840       21.942      865.072
05/13/2013  09:13:00        6.986       -9.113       44.738       74.226       83.939       49.925     5509.444     7045.808     2492.496        0.859        0.752       11.482       57.073       24.707      345.029       22.269      865.080
05/13/2013  09:14:00       56.033     -114.453      -13.192       52.370       50.483       41.899     2742.589     2548.504     1755.535        1.173        0.352      127.433       33.676        0.070      344.741       21.774      865.107
05/13/2013  09:15:00       37.551      -74.137        1.231       44.450       39.220       26.853     1975.841     1538.243      721.080        0.557        0.212       83.105       25.567        0.095      344.826       21.920      865.165
05/13/2013  09:16:00       23.361       -2.678       30.614       34.767       53.270       40.304     1208.764     2837.692     1624.401        0.358        0.284       23.514       34.526        2.156      345.291       22.716      865.211
05/13/2013  09:17:00       30.409       -0.543       19.630       40.753       21.988       32.480     1660.800      483.470     1054.924        0.225        0.160       30.413       27.840        0.838      345.536       23.138      865.189
05/13/2013  09:18:00        6.449       21.531       36.750       33.709       28.395       26.350     1136.304      806.286      694.327        0.225        0.132       22.476       16.518        0.540      345.804       23.597      865.170
05/13/2013  09:19:00       15.355       17.774       33.916       28.491       24.577       22.839      811.763      604.011      521.615        0.182        0.097       23.488        8.271        0.124      346.106       24.115      865.144
05/13/2013  09:20:00       36.956      -27.865       29.566       39.364       40.809       34.668     1549.529     1665.404     1201.881        0.372        0.221       46.284       20.997        0.206      345.400       22.905      865.137
05/13/2013  09:21:00       24.151       35.325       73.407       59.088       68.111       41.178     3491.415     4639.155     1695.646        0.852        0.491       42.792       46.294        1.170      345.427       22.951      865.123
05/13/2013  09:22:00      101.443       91.092       61.283       78.675       36.112       43.775     6189.791     1304.063     1916.270        1.588        0.471      136.340       40.195        0.087      345.166       22.502      865.120
05/13/2013  09:23:00       56.595       54.795       24.227       45.421       41.731       38.410     2063.112     1741.503     1475.347        0.604        0.264       78.774       33.426        0.180      345.285       22.707      865.116
05/13/2013  09:24:00      122.696       74.210       16.794       58.220       40.428       34.713     3389.624     1634.396     1205.019        1.354        0.311      143.393       31.163        0.047      345.102       22.393      865.119
05/13/2013  09:25:00      144.612       76.479       -4.136       73.660       30.255       36.466     5425.866      915.370     1329.799        1.722        0.384      163.590       16.807        0.011      344.884       22.018      865.134
05/13/2013  09:26:00       30.858       78.629       49.065       59.789       43.801       39.018     3574.744     1918.518     1522.434        0.828        0.351       84.467       39.921        0.223      345.602       23.250      865.159
05/13/2013  09:27:00       74.437       69.536       40.549       55.868       28.895       39.856     3121.184      834.923     1588.491        0.878        0.277      101.863       33.778        0.110      345.379       22.868      865.147
05/13/2013  09:28:00       81.807       67.684       31.082       35.246       20.098       34.122     1242.280      403.920     1164.332        0.752        0.141      106.177       12.814        0.015      345.117       22.418      865.136
05/13/2013  09:29:00      101.990       67.391        9.081       30.732       32.326       19.751      944.461     1044.989      390.101        0.870        0.119      122.244       16.697        0.019      344.883       22.018      865.129
05/13/2013  09:30:00       86.560       46.343       -2.501       25.372       26.286       20.744      643.713      690.972      430.321        0.571        0.088       98.185        7.971        0.007      344.941       22.117      865.137
05/13/2013  09:31:00       71.917       38.708       -2.510       23.017       25.597       21.038      529.761      655.215      442.587        0.415        0.081       81.672       12.105        0.022      344.932       22.102      865.145
05/13/2013  09:32:00       92.249       29.756        0.740       32.296       39.299       25.232     1043.019     1544.437      636.664        0.631        0.161       96.930        3.969        0.002      344.965       22.159      865.154
05/13/2013  09:33:00       98.337       83.482        9.078       41.660       24.754       36.841     1735.567      612.778     1357.235        1.021        0.185      128.994       30.200        0.055      345.400       22.904      865.147
05/13/2013  09:34:00       76.158       44.722        9.135       45.478       34.582       36.211     2068.269     1195.946     1311.258        0.623        0.229       88.318       29.403        0.111      345.598       23.242      865.144
05/13/2013  09:35:00       67.749        8.115       -3.116       30.526       27.167       24.265      931.865      738.020      588.771        0.346        0.113       68.233       13.379        0.038      345.270       22.681      865.144
05/13/2013  09:36:00       50.955       54.294       16.282       46.002       54.848       38.810     2116.208     3008.348     1506.254        0.622        0.332       74.459       27.933        0.141      345.516       23.101      865.118
05/13/2013  09:37:00       81.671       71.598        4.661       43.986       36.037       37.674     1934.750     1298.632     1419.340        0.823        0.233      108.611       26.548        0.060      345.431       22.956      865.100
05/13/2013  09:38:00       95.004       50.516       13.141       44.380       37.842       33.901     1969.554     1432.003     1149.285        0.815        0.228      107.599       15.314        0.020      345.560       23.178      865.081
05/13/2013  09:39:00       67.075       65.257       12.369       35.543       26.098       25.940     1263.300      681.120      672.865        0.576        0.131       93.582       11.985        0.016      345.568       23.193      865.068
05/13/2013  09:40:00       66.120       70.664       16.477       30.605       22.452       31.645      936.671      504.083     1001.419        0.604        0.122       96.774       10.443        0.012      345.520       23.107      865.060
05/13/2013  09:41:00       47.608       36.360        3.429       35.979       37.541       37.102     1294.512     1409.343     1376.550        0.384        0.204       59.905       14.765        0.061      345.938       23.826      865.060
05/13/2013  09:42:00       21.919        3.574       31.967       34.934       53.083       38.140     1220.381     2817.848     1454.690        0.350        0.275       22.209       31.158        1.968      346.117       24.134      865.079
05/13/2013  09:43:00        7.664       11.729       59.887       36.179       57.553       24.502     1308.895     3312.390      600.341        0.450        0.261       14.011       14.717        1.103      346.688       25.116      865.086
05/13/2013  09:44:00       98.423       72.166       17.948       54.695       40.728       45.491     2991.596     1658.737     2069.455        1.097        0.336      122.045       26.812        0.048      345.773       23.543      865.096
05/13/2013  09:45:00      125.900       75.199        4.568       63.091       49.099       33.901     3980.535     2410.756     1149.284        1.453        0.377      146.648       27.405        0.035      345.831       23.642      865.082
05/13/2013  09:46:00       67.889       95.677       83.965       67.539       54.616       48.974     4561.510     2982.917     2398.478        1.538        0.497      117.316       38.055        0.105      346.134       24.163      865.070
05/13/2013  09:47:00      160.240       82.048       28.946       55.091       30.735       40.887     3035.064      944.615     1671.776        1.945        0.283      180.024       29.452        0.027      345.662       23.352      865.076
05/13/2013  09:48:00       28.008        4.811       38.800       50.255       63.096       45.629     2525.597     3981.120     2082.016        0.545        0.429       28.418       39.156        1.899      346.346       24.527      865.086
05/13/2013  09:49:00       38.771       24.086       59.243       57.939       72.790       50.351     3356.911     5298.372     2535.270        0.839        0.560       45.644       55.253        1.465      346.493       24.780      865.092
05/13/2013  09:50:00       37.636       49.762       84.084       71.091       54.801       47.582     5053.936     3003.106     2264.020        1.064        0.516       62.391       51.088        0.670      346.461       24.724      865.094
05/13/2013  09:51:00       41.819       62.638       93.137       55.429       57.064       47.146     3072.390     3256.350     2222.717        1.145        0.428       75.315       37.201        0.244      346.368       24.565      865.087
05/13/2013  09:52:00       87.520       -3.198       30.882       70.006      115.075       46.863     4900.899    13242.320     2196.102        1.448        1.017       87.578       57.939        0.438      346.114       24.129      865.076
05/13/2013  09:53:00       71.400      -62.091       17.049       68.234       85.893       45.936     4655.844     7377.558     2110.117        1.169        0.707       94.622       48.097        0.258      346.413       24.642      865.081
05/13/2013  09:54:00       25.898       49.482       99.924       61.517      118.023       65.587     3784.319    13929.384     4301.718        1.756        1.101       55.850       75.656        1.835      346.271       24.397      865.076
05/13/2013  09:55:00       35.877       60.887       69.712       51.926       55.041       49.435     2696.310     3029.497     2443.780        0.901        0.408       70.671       37.853        0.287      346.222       24.314      865.084
05/13/2013  09:56:00        0.186       15.353       45.675       29.060       29.572       20.213      844.462      874.513      408.581        0.222        0.106       15.354        8.137        0.281      346.772       25.261      865.085
05/13/2013  09:57:00       20.416        3.345       27.373       30.909       32.522       31.738      955.343     1057.679     1007.273        0.210        0.151       20.689       19.599        0.897      346.632       25.018      865.099
05/13/2013  09:58:00       41.032      -50.496       11.516       69.587       64.150       61.087     4842.335     4115.205     3731.681        0.853        0.634       65.065       45.243        0.484      346.664       25.074      865.079
05/13/2013  09:59:00       58.762       27.598       65.507       51.664       88.240       62.298     2669.133     7786.214     3880.996        1.142        0.717       64.921       52.554        0.655      346.444       24.697      865.080
05/13/2013  10:00:00       75.799       69.472       53.512       66.642       37.786       46.863     4441.161     1427.784     2196.171        1.075        0.403      102.820       25.468        0.061      346.046       24.013      865.072
05/13/2013  10:01:00       30.715      -11.123       43.265       52.333       63.561       50.855     2738.784     4039.943     2586.264        0.615        0.468       32.667       45.403        1.932      346.538       24.858      865.066
05/13/2013  10:02:00       51.971       25.272       71.553       68.431       62.376       53.681     4682.841     3890.801     2881.667        0.996        0.573       57.790       50.543        0.765      346.625       25.009      865.051
05/13/2013  10:03:00       33.743       68.208       89.051       55.837       96.232       63.447     3117.788     9260.549     4025.458        1.506        0.820       76.098       69.814        0.842      346.364       24.557      865.051
05/13/2013  10:04:00       42.049       26.592       40.397       59.864       71.918       52.573     3583.734     5172.196     2763.880        0.781        0.576       49.752       51.336        1.065      346.268       24.393      865.037
05/13/2013  10:05:00       30.187      -41.652       33.233       77.374      102.031       52.263     5986.801    10410.289     2731.374        1.144        0.956       51.440       72.481        1.985      346.841       25.377      865.022
05/13/2013  10:06:00       58.405      -41.885       19.294       66.452       85.798       50.103     4415.840     7361.214     2510.337        0.991        0.714       71.872       51.222        0.508      346.739       25.203      865.008
05/13/2013  10:07:00       71.475       47.423       58.400       91.751       71.826       51.949     8418.188     5158.990     2698.668        1.352        0.814       85.776       45.755        0.285      346.647       25.043      865.001
05/13/2013  10:08:00       41.559       10.033       86.053       73.494       85.955       55.913     5401.437     7388.321     3126.213        1.257        0.796       42.753       56.304        1.734      346.785       25.283      864.997
05/13/2013  10:09:00      157.893      -66.956       33.972      141.398      136.034       81.564    19993.512    18505.376     6652.650        3.785        2.258      171.503       90.631        0.279      346.636       25.023      864.966
05/13/2013  10:10:00       32.030       34.737       93.970       55.455       87.175       56.798     3075.300     7599.510     3226.050        1.248        0.695       47.251       59.968        1.611      346.799       25.306      864.968
05/13/2013  10:11:00       65.822      124.724      117.188       77.263       67.948       41.217     5969.608     4616.925     1698.851        2.295        0.614      141.027       33.254        0.056      346.639       25.029      864.935
05/13/2013  10:12:00       19.722       77.153       90.501       50.755       75.105       42.852     2576.073     5640.789     1836.300        1.229        0.503       79.634       46.993        0.348      346.756       25.233      864.932
05/13/2013  10:13:00       89.911      -39.005       36.961       69.006      144.288       72.108     4761.784    20819.033     5199.550        2.087        1.539       98.007       80.644        0.677      346.702       25.139      864.929
05/13/2013  10:14:00       72.234     -114.260        2.250       66.266      122.993       50.277     4391.125    15127.308     2527.739        2.016        1.102      135.178       59.746        0.195      346.800       25.306      864.937
05/13/2013  10:15:00       61.128       94.755      115.372       58.064       92.412       61.288     3371.444     8540.065     3756.205        2.084        0.783      112.761       58.859        0.272      346.941       25.552      864.936
05/13/2013  10:16:00       91.471       93.893      135.885      116.784       88.353       73.103    13638.508     7806.183     5344.116        3.121        1.339      131.083       75.629        0.333      346.652       25.052      864.921
05/13/2013  10:17:00      123.090      174.773      144.025      103.635       74.273       71.270    10740.214     5516.419     5079.430        4.388        1.067      213.768       62.308        0.085      346.436       24.678      864.916
05/13/2013  10:18:00       26.152       43.348       71.567       53.096       70.849       49.844     2819.134     5019.632     2484.471        0.900        0.516       50.626       38.357        0.574      346.895       25.471      864.914
05/13/2013  10:19:00       45.255       80.598       77.569       70.414       50.440       48.185     4958.064     2544.146     2321.747        1.219        0.491       92.434       45.754        0.245      346.877       25.440      864.897
05/13/2013  10:20:00      159.906      111.544       55.717       91.721       72.054       84.706     8412.810     5191.806     7175.076        3.094        1.039      194.966       67.850        0.121      346.468       24.735      864.890
05/13/2013  10:21:00      120.458       92.231       82.970       96.457       50.557       66.278     9303.894     2555.966     4392.756        2.307        0.813      151.713       66.871        0.194      346.514       24.814      864.875
05/13/2013  10:22:00       96.722      101.492       98.830       74.712       68.360       51.731     5581.951     4673.132     2676.072        2.117        0.647      140.199       39.614        0.080      346.626       25.007      864.854
05/13/2013  10:23:00       55.612       61.384       96.207       79.223       82.557       55.770     6276.265     6815.710     3110.268        1.616        0.810       82.829       57.652        0.484      346.733       25.193      864.849
05/13/2013  10:24:00      103.608       17.027       64.271      105.406       66.788       51.754    11110.518     4460.600     2678.476        1.670        0.912      104.998       53.628        0.261      346.852       25.397      864.820
05/13/2013  10:25:00       22.248       30.826       74.786       41.761       78.845       50.830     1744.014     6216.487     2583.701        0.879        0.527       38.016       51.011        1.801      346.951       25.567      864.824
05/13/2013  10:26:00       77.236      -74.765       22.998       92.024       95.565       58.709     8468.455     9132.663     3446.738        1.656        1.052      107.495       65.916        0.376      347.054       25.744      864.844
05/13/2013  10:27:00       98.554      -89.507      -13.571       76.422       69.552       55.247     5840.340     4837.452     3052.181        1.582        0.686      133.133       52.483        0.155      346.709       25.150      864.867
05/13/2013  10:28:00       -3.153      -67.442        1.958       41.652       63.691       45.217     1734.869     4056.525     2044.619        0.620        0.392       67.515       44.598        0.436      347.087       25.803      864.874
05/13/2013  10:29:00      -55.772      -58.788       -2.506       49.177       39.952       31.691     2418.360     1596.190     1004.294        0.580        0.251       81.035       21.253        0.069      346.642       25.037      864.893
05/13/2013  10:30:00       -2.669       16.124       14.924       43.758       52.391       40.333     1914.742     2744.782     1626.736        0.339        0.314       16.344       34.902        4.560      346.815       25.334      864.880
05/13/2013  10:31:00        9.516       28.854       64.078       33.074       30.523       18.201     1093.905      931.645      331.276        0.369        0.118       30.383       12.772        0.177      347.287       26.148      864.856
05/13/2013  10:32:00       42.732       42.958       39.453       42.507       48.074       35.084     1806.842     2311.150     1230.918        0.529        0.267       60.592       22.801        0.142      347.340       26.240      864.818
05/13/2013  10:33:00      127.688       77.799       54.084       74.389       81.842       74.632     5533.664     6698.194     5569.915        2.154        0.890      149.523       51.741        0.120      347.106       25.833      864.764
05/13/2013  10:34:00      162.320      157.301      134.182       86.707       71.674       70.282     7518.080     5137.104     4939.522        4.334        0.880      226.034       47.898        0.045      346.699       25.131      864.730
05/13/2013  10:35:00      164.930      148.451       85.267       99.566       66.002       74.045     9913.386     4356.291     5482.704        3.813        0.988      221.900       67.553        0.093      346.618       24.992      864.739
05/13/2013  10:36:00       68.573       98.343       99.779       88.458       79.898       67.612     7824.843     6383.679     4571.406        2.155        0.939      119.890       58.304        0.237      347.069       25.771      864.759
05/13/2013  10:37:00      201.563      171.300      124.819      140.323      111.078      119.941    19690.436    12338.339    14385.961        6.598        2.321      264.521       91.758        0.120      346.494       24.780      864.739
05/13/2013  10:38:00      107.755       82.681       75.578      131.713       76.600       68.487    17348.266     5867.500     4690.477        2.603        1.395      135.820       78.148        0.331      347.073       25.777      864.755
05/13/2013  10:39:00       86.009       62.708      106.821       88.544       95.846       72.840     7839.999     9186.418     5305.654        2.253        1.117      106.442       65.886        0.383      347.192       25.983      864.780
05/13/2013  10:40:00       59.600      113.184      139.421       84.511       97.628       92.256     7142.040     9531.190     8511.249        3.049        1.259      127.917       88.059        0.474      347.055       25.746      864.774
05/13/2013  10:41:00       40.493       69.460      134.563       78.824       82.824       59.122     6213.282     6859.867     3495.437        2.057        0.828       80.401       48.903        0.370      347.223       26.035      864.769
05/13/2013  10:42:00       44.251      177.009      186.147       86.970      111.013       82.856     7563.809    12323.956     6865.158        4.734        1.338      182.456       76.532        0.176      346.776       25.265      864.769
05/13/2013  10:43:00      131.893     -111.481       11.529       61.963      110.997       60.694     3839.396    12320.400     3683.807        2.490        0.992      172.696       73.853        0.183      346.676       25.092      864.761
05/13/2013  10:44:00       79.520      -23.445       61.778       76.596      132.827       71.446     5866.887    17643.040     5104.461        1.965        1.431       82.904       84.212        1.032      347.108       25.838      864.744
05/13/2013  10:45:00      111.162       27.871       62.155      112.577      123.863       70.469    12673.529    15342.138     4965.831        2.498        1.649      114.603       69.797        0.371      347.010       25.668      864.692
05/13/2013  10:46:00      183.141      152.445      158.868      150.701      124.266       90.765    22710.772    15442.109     8238.239        6.420        2.320      238.286       89.698        0.142      346.907       25.489      864.684
05/13/2013  10:47:00      120.629      133.919      115.218      110.495       91.652       74.305    12209.044     8400.022     5521.255        3.594        1.307      180.238       63.223        0.123      346.779       25.269      864.702
05/13/2013  10:48:00      175.493     -156.063       -9.604      161.646      186.789      103.136    26129.367    34890.069    10636.966        6.344        3.583      234.848      116.857        0.248      346.898       25.476      864.724
05/13/2013  10:49:00      107.310     -134.284       12.003      159.814      157.196      100.786    25540.560    24710.624    10157.774        4.504        3.020      171.894      116.998        0.463      346.872       25.431      864.751
05/13/2013  10:50:00       85.241      -59.921       38.828      113.361      124.311      102.826    12850.657    15453.167    10573.195        2.561        1.944      104.195       95.236        0.835      347.226       26.039      864.714
05/13/2013  10:51:00      112.832     -163.264       -9.253      138.740      169.641      119.019    19248.675    28778.102    14165.537        5.082        3.110      198.459      120.229        0.367      347.106       25.831      864.716
05/13/2013  10:52:00      153.608       41.586      130.765      144.462      188.805      132.188    20869.377    35647.284    17473.588        5.819        3.700      159.137      127.081        0.638      346.972       25.602      864.655
05/13/2013  10:53:00      -35.677      -30.260       61.357       55.316      120.451       62.432     3059.852    14508.347     3897.730        1.371        1.073       46.781       29.361        0.394      347.169       25.944      864.671
05/13/2013  10:54:00      -18.690       32.756       82.212       76.136       82.774       70.060     5796.703     6851.553     4908.370        1.287        0.878       37.713       63.357        2.822      347.348       26.253      864.643
05/13/2013  10:55:00       13.365      -83.791        5.208       91.640      123.769       50.690     8397.828    15318.753     2569.466        1.675        1.314       84.850       29.825        0.124      347.072       25.776      864.653
05/13/2013  10:56:00       42.888      -33.390       29.663       59.485       94.881       46.696     3538.452     9002.359     2180.475        0.928        0.736       54.353       51.690        0.904      347.419       26.375      864.688
05/13/2013  10:57:00      -23.929      -80.446      -13.691       66.693       36.994       22.040     4447.923     1368.559      485.764        0.677        0.315       83.930       15.550        0.034      347.202       26.000      864.719
05/13/2013  10:58:00     -157.349       12.486        6.559      125.880      115.962       45.314    15845.744    13447.179     2053.320        2.815        1.567      157.843       50.090        0.101      347.261       26.100      864.722
05/13/2013  10:59:00     -254.246      145.318      -18.925      296.720      209.076      105.198    88042.494    43712.774    11066.563       11.445        7.141      292.845      116.852        0.159      347.455       26.433      864.470
05/13/2013  11:00:00     -523.290     -223.638       -5.614      266.773      209.969      117.449    71167.995    44087.019    13794.378       22.644        6.452      569.075      136.685        0.058      347.363       26.274      864.432
05/13/2013  11:01:00     -399.404     -258.111        2.133      245.827      162.259       95.188    60430.795    26328.096     9060.804       16.097        4.791      475.546      113.256        0.057      347.136       25.883      864.639
05/13/2013  11:02:00     -295.008     -238.697        1.151      252.351      196.051       79.075    63681.041    38435.817     6252.864       12.617        5.418      379.482      110.683        0.085      347.297       26.163      864.703
05/13/2013  11:03:00     -243.482     -129.666       -8.365      161.801      122.166       68.247    26179.559    14924.654     4657.600        6.096        2.288      275.856       55.778        0.041      347.294       26.154      864.716
05/13/2013  11:04:00     -512.563     -104.220      -33.631      232.415      204.585       85.872    54016.924    41855.006     7373.925       18.896        5.162      523.051       88.259        0.028      347.141       25.892      864.693
05/13/2013  11:05:00     -354.765     -142.603       -0.687      212.192      151.715       75.778    45025.376    23017.430     5742.339       10.998        3.689      382.353       73.197        0.037      347.244       26.069      864.749
05/13/2013  11:06:00     -269.103     -247.418        6.076      144.866      170.596       81.527    20986.171    29103.003     6646.626        9.519        2.837      365.557       87.325        0.057      347.073       25.776      864.717
05/13/2013  11:07:00     -242.187     -236.241       -5.498      176.908      141.757       68.840    31296.585    20095.067     4738.955        8.530        2.807      338.325       92.384        0.075      347.105       25.829      864.702
05/13/2013  11:08:00      -31.292      -66.354       30.925       70.508      116.267       44.745     4971.448    13518.088     2002.088        1.341        1.025       73.363       41.566        0.321      347.671       26.808      864.695
05/13/2013  11:09:00     -176.389     -261.947       -4.490      150.898      173.647       62.046    22770.180    30153.279     3849.755        7.825        2.839      315.800       59.370        0.035      347.208       26.008      864.696
05/13/2013  11:10:00     -218.493     -379.972      -15.823      130.000      235.911       71.322    16900.005    55653.786     5086.887       13.499        3.882      438.312       82.845        0.036      347.261       26.099      864.701
05/13/2013  11:11:00     -454.266     -133.590      -29.366      161.528      190.128       72.293    26091.362    36148.511     5226.219       14.626        3.373      473.502       57.544        0.015      347.052       25.740      864.710
05/13/2013  11:12:00     -283.469     -134.879      -30.226      153.982      130.162       60.269    23710.583    16942.062     3632.394        7.187        2.214      313.922       63.383        0.041      347.242       26.066      864.664
05/13/2013  11:13:00      -75.088     -160.573        1.400       98.645      112.202       48.728     9730.789    12589.223     2374.428        2.806        1.235      177.262       45.624        0.066      347.274       26.122      864.663
05/13/2013  11:14:00      -33.844     -108.017       21.229       98.451       84.901       53.368     9692.529     7208.219     2848.142        1.650        0.987      113.195       59.163        0.273      347.523       26.553      864.645
05/13/2013  11:15:00     -240.428     -121.917       -6.257      119.559       95.713       51.539    14294.393     9160.971     2656.236        4.941        1.306      269.572       55.895        0.043      347.650       26.769      864.699
05/13/2013  11:16:00     -312.164      -51.821      -27.901      214.714       99.945       81.790    46101.908     9988.938     6689.619        8.183        3.139      316.436      106.824        0.114      347.623       26.724      864.661
05/13/2013  11:17:00     -252.938      -82.578        5.964      129.139      129.791       76.776    16676.981    16845.604     5894.599        5.512        1.971      266.077       64.058        0.058      347.315       26.191      864.650
05/13/2013  11:18:00     -195.019     -240.503       -2.403      134.367      116.724       74.481    18054.471    13624.452     5547.429        6.655        1.861      309.635       63.758        0.042      347.366       26.280      864.692
05/13/2013  11:19:00     -185.538     -200.428       17.899      148.806      132.694       70.718    22143.221    17607.712     5000.970        5.983        2.238      273.123       67.266        0.061      347.316       26.194      864.703
05/13/2013  11:20:00     -191.444     -185.344        2.090      128.256      100.007       57.203    16449.645    10001.316     3272.232        5.036        1.486      266.464       38.956        0.021      347.386       26.314      864.704
05/13/2013  11:21:00     -113.901     -315.230      -12.188       93.832      142.494       61.537     8804.359    20304.434     3786.832        7.269        1.645      335.176       42.910        0.016      347.137       25.885      864.722
05/13/2013  11:22:00      -94.603     -184.268      -15.323       76.198       75.443       42.651     5806.160     5691.674     1819.076        2.823        0.666      207.133       15.827        0.006      347.073       25.775      864.714
05/13/2013  11:23:00     -131.675     -243.269      -18.101       85.986       96.319       55.157     7393.604     9277.292     3042.322        4.828        0.986      276.619       44.755        0.026      347.112       25.842      864.751
05/13/2013  11:24:00     -246.983     -227.599        4.869      171.328      146.938       79.404    29353.325    21590.920     6304.936        8.503        2.862      335.860       79.981        0.057      347.233       26.049      864.786
05/13/2013  11:25:00     -281.409     -195.983       -8.151      158.576      165.796       72.566    25146.288    27488.209     5265.837        8.777        2.895      342.928       76.378        0.050      347.358       26.265      864.738
05/13/2013  11:26:00     -497.643     -268.427      -28.601      248.036      207.822      108.388    61521.876    43189.795    11747.944       21.847        5.823      565.422      122.823        0.047      347.333       26.223      864.751
05/13/2013  11:27:00     -523.208     -377.904      -22.044      228.590      173.603      106.688    52253.316    30138.070    11382.263       25.539        4.689      645.413      119.763        0.034      347.038       25.714      864.692
05/13/2013  11:28:00     -223.120     -195.274        2.134      214.638      215.964       86.615    46069.669    46640.558     7502.207        9.405        5.011      296.503      100.368        0.115      347.233       26.050      864.726
05/13/2013  11:29:00       17.214     -235.313       -8.452      198.194      142.600       84.120    39280.711    20334.627     7076.196        6.120        3.335      235.941       64.008        0.074      347.329       26.216      864.675
05/13/2013  11:30:00       94.077     -281.320      -36.412      172.458      150.646       80.469    29741.778    22694.086     6475.268        7.410        2.946      296.633       24.154        0.007      347.325       26.209      864.596
05/13/2013  11:31:00      -90.381      -92.358       15.527      115.503      101.073       68.370    13341.026    10215.689     4674.424        2.258        1.412      129.223       55.377        0.184      347.576       26.644      864.608
05/13/2013  11:32:00     -343.711     -180.738       10.182      261.874      138.261       82.266    68578.072    19116.160     6767.727       12.267        4.723      388.334      103.828        0.071      347.431       26.392      864.657
05/13/2013  11:33:00     -456.129     -282.258      -11.918      244.357      189.562      108.659    59710.323    35933.857    11806.832       19.764        5.373      536.398      110.692        0.043      347.273       26.119      864.593
05/13/2013  11:34:00     -428.519     -124.771      -19.343      216.035      221.349      111.927    46671.053    48995.557    12527.759       15.386        5.410      446.314      126.378        0.080      347.413       26.361      864.551
05/13/2013  11:35:00     -301.265     -252.817       22.667      272.952      179.181      123.233    74502.661    32105.730    15186.397       13.847        6.090      393.290      157.814        0.161      347.371       26.289      864.579
05/13/2013  11:36:00     -120.453     -165.334       33.520      205.108      196.227      123.254    42069.156    38504.863    15191.622        6.935        4.788      204.559      130.337        0.406      347.368       26.283      864.514
05/13/2013  11:37:00     -313.041     -211.464      -15.008      156.387      168.630       82.819    24456.926    28436.074     6859.015       10.133        2.988      377.772       73.740        0.038      347.325       26.209      864.480
05/13/2013  11:38:00     -542.118      -50.782      -30.531      208.369      150.447       92.962    43417.529    22634.367     8641.965       18.604        3.735      544.491       75.177        0.019      347.472       26.461      864.434
05/13/2013  11:39:00     -605.960     -364.902      -32.868      272.561      215.071      112.092    74289.653    46255.658    12564.706       31.724        6.656      707.348      125.624        0.032      347.259       26.095      864.446
05/13/2013  11:40:00     -406.338     -313.356       -9.127      203.135      145.603       98.887    41263.740    21200.166     9778.717       16.780        3.612      513.130      105.450        0.042      347.393       26.327      864.464
05/13/2013  11:41:00     -281.749     -226.227        0.390      200.965      123.965       85.247    40386.976    15367.365     7267.006        9.678        3.151      361.333       86.765        0.058      347.664       26.794      864.465
05/13/2013  11:42:00     -250.490     -128.193       -3.415      253.611      191.499       95.953    64318.735    36671.733     9206.911        9.468        5.510      281.387      124.955        0.197      347.811       27.047      864.516
05/13/2013  11:43:00     -647.143     -141.928      -14.335      242.364      193.013       98.822    58740.341    37254.074     9765.863       27.243        5.288      662.523      115.128        0.030      347.299       26.165      864.432
05/13/2013  11:44:00     -412.509     -137.303        3.622      158.056      164.091       86.074    24981.775    26925.922     7408.718       12.416        2.966      434.759       93.416        0.046      347.564       26.621      864.450
05/13/2013  11:45:00     -209.569       22.709       21.004      199.616      137.276       93.159    39846.519    18844.719     8678.625        5.611        3.368      210.796      108.480        0.265      348.018       27.408      864.423
05/13/2013  11:46:00     -466.208     -151.794      -18.242      216.649      196.535       95.319    46936.691    38626.174     9085.622       16.767        4.732      490.297       92.918        0.036      347.700       26.855      864.384
05/13/2013  11:47:00     -406.391     -236.216      -21.733      221.275      189.840       88.121    48962.722    36039.308     7765.260       15.708        4.638      470.055       99.670        0.045      347.715       26.882      864.461
05/13/2013  11:48:00     -472.417     -281.048      -13.244      240.791      196.579      109.832    57980.068    38643.469    12063.061       20.550        5.434      549.696      111.222        0.041      347.534       26.570      864.447
05/13/2013  11:49:00     -560.318     -124.409      -27.381      330.937      173.307      103.588   109519.240    30035.183    10730.524       24.021        7.514      573.963      143.342        0.062      347.461       26.444      864.483
05/13/2013  11:50:00     -352.314      -39.818        6.104      271.217      177.892      106.569    73558.744    31645.416    11356.935       12.114        5.828      354.557      126.651        0.128      347.722       26.895      864.473
05/13/2013  11:51:00     -544.904     -228.067        6.509      296.160      247.694      112.007    87710.859    61352.135    12545.576       25.527        8.080      590.708      117.545        0.040      347.457       26.435      864.456
05/13/2013  11:52:00     -462.389     -257.373      -10.452      176.719      238.533      114.388    31229.499    56898.209    13084.728       19.067        5.061      529.192       94.673        0.032      347.408       26.350      864.468
05/13/2013  11:53:00     -523.428      -75.704        4.869      273.357      205.161      115.243    74723.921    42091.114    13280.900       20.489        6.505      528.874      128.371        0.059      347.584       26.655      864.420
05/13/2013  11:54:00     -306.029     -190.246       32.220      266.834      204.674      124.255    71200.522    41891.350    15439.403       12.969        6.427      360.343      138.538        0.148      347.674       26.811      864.462
05/13/2013  11:55:00     -573.501     -333.737       -1.275      293.065      252.378      132.695    85887.223    63694.665    17607.845       30.371        8.359      663.539      159.656        0.058      347.229       26.043      864.414
05/13/2013  11:56:00     -439.925     -148.678      -25.960      234.510      234.132      112.410    54995.114    54817.926    12636.088       16.936        6.122      464.370      114.756        0.061      347.541       26.581      864.436
05/13/2013  11:57:00     -323.436     -181.690      -17.992      191.863      174.164      119.778    36811.406    30333.011    14346.767       10.970        4.075      370.975      104.663        0.080      347.605       26.692      864.446
05/13/2013  11:58:00     -537.673      -41.858      -32.278      189.850      150.985       87.051    36042.948    22796.339     7577.858       17.914        3.321      539.300       97.612        0.033      347.573       26.635      864.475
05/13/2013  11:59:00     -279.481      -82.703        7.394      184.770      156.391       76.927    34139.776    24458.266     5917.729        7.475        3.226      291.461       73.143        0.063      347.898       27.198      864.485
05/13/2013  12:00:00     -373.749     -161.134      -13.817      221.153      191.116      102.390    48908.477    36525.284    10483.672       13.086        4.796      407.005      114.254        0.079      347.671       26.805      864.548
05/13/2013  12:01:00     -251.502     -138.003       -3.975      168.699      136.885       79.607    28459.458    18737.478     6337.265        6.792        2.677      286.876       79.436        0.077      347.742       26.927      864.501
05/13/2013  12:02:00     -382.446     -278.946      -19.118      156.300      142.197       81.773    24429.613    20219.925     6686.826       13.788        2.567      473.366       63.170        0.018      347.553       26.602      864.470
05/13/2013  12:03:00     -463.167     -300.163      -21.704      187.914      154.109       82.643    35311.544    23749.442     6829.856       18.548        3.295      551.926       91.379        0.027      347.694       26.845      864.503
05/13/2013  12:04:00     -275.746     -232.868       -9.774      136.216      288.083       83.635    18554.875    82991.776     6994.763       11.943        5.427      360.920       84.619        0.055      347.492       26.497      864.505
05/13/2013  12:05:00     -369.634      -75.591      -17.095      223.389      148.859       69.895    49902.587    22159.033     4885.357       10.978        3.847      377.284       83.101        0.049      347.740       26.924      864.484
05/13/2013  12:06:00     -293.676      -80.433      -14.513      210.095      132.006       71.591    44139.735    17425.495     5125.255        7.980        3.335      304.491       88.308        0.084      347.882       27.171      864.481
05/13/2013  12:07:00     -383.835     -166.567      -13.028      248.305      180.376       90.324    61655.151    32535.399     8158.454       13.878        5.117      418.419      104.530        0.062      347.672       26.808      864.438
05/13/2013  12:08:00     -294.682      -82.355       10.258      185.305      201.656       91.593    34337.930    40665.225     8389.270        8.854        4.170      305.974       97.802        0.102      347.841       27.098      864.388
05/13/2013  12:09:00     -387.735     -207.807      -13.835      224.107      166.156       79.743    50224.170    27607.729     6358.907       13.894        4.210      439.911       62.995        0.021      347.889       27.181      864.407
05/13/2013  12:10:00     -426.956     -290.222       -3.689      221.197      188.085       88.072    48928.298    35375.995     7756.654       17.928        4.603      516.256      103.884        0.040      347.826       27.076      864.412
05/13/2013  12:11:00     -417.221     -261.417       -5.138      148.505      158.817       91.920    22053.615    25222.972     8449.265       14.907        2.786      492.354       88.719        0.032      347.841       27.099      864.437
05/13/2013  12:12:00     -387.036      -78.498      -14.229      200.812      195.105       83.526    40325.485    38065.831     6976.642       12.075        4.268      394.917       93.628        0.056      347.735       26.916      864.417
05/13/2013  12:13:00     -353.317     -106.214       -3.122      148.992      143.284       63.118    22198.645    20530.436     3983.911        9.141        2.336      368.937       69.535        0.036      347.960       27.304      864.398
05/13/2013  12:14:00     -342.729     -243.666        1.476      248.233      229.995       97.577    61619.600    52897.869     9521.245       15.042        6.202      420.520      114.405        0.074      347.968       27.319      864.433
05/13/2013  12:15:00     -577.232     -268.194      -14.294      274.632      251.103      128.358    75422.967    63052.819    16475.900       28.011        7.748      636.495      143.523        0.051      347.626       26.727      864.416
05/13/2013  12:16:00     -432.713     -261.590       -6.193      253.289      238.558      128.556    64155.173    56909.736    16526.598       19.663        6.880      505.638      139.354        0.076      347.581       26.649      864.407
05/13/2013  12:17:00     -293.195     -144.840       16.549      249.700      182.455       95.168    62350.159    33289.650     9056.936       10.594        5.235      327.020      119.703        0.134      347.768       26.974      864.379
05/13/2013  12:18:00     -320.094     -316.746       14.400      210.257      191.483      109.449    44208.031    36665.719    11979.163       14.791        4.643      450.320      104.582        0.054      347.510       26.528      864.380
05/13/2013  12:19:00     -388.876     -198.371        9.498      252.359      176.098       90.188    63685.219    31010.511     8133.798       14.673        5.141      436.550      111.107        0.065      347.727       26.902      864.371
05/13/2013  12:20:00     -435.032     -292.895       -0.633      325.291      215.183      116.025   105814.179    46303.764    13461.813       22.028        8.279      524.443      135.014        0.066      347.774       26.983      864.365
05/13/2013  12:21:00     -370.172     -251.832       15.232      246.567      212.988      121.027    60795.439    45363.970    14647.618       16.072        6.040      447.712      123.325        0.076      347.884       27.173      864.392
05/13/2013  12:22:00     -597.379     -277.849      -43.249      310.771      243.865      116.810    96578.503    59469.988    13644.581       30.278        8.485      658.833      139.500        0.045      347.574       26.638      864.425
05/13/2013  12:23:00     -602.669     -301.568      -27.860      280.866      238.585      124.874    78885.829    56922.737    15593.456       30.314        7.570      673.909      138.918        0.042      347.389       26.319      864.436
05/13/2013  12:24:00     -599.651     -194.805      -33.136      269.602      207.825       96.157    72685.429    43191.256     9246.159       26.185        6.256      630.500      113.806        0.033      347.324       26.206      864.435
05/13/2013  12:25:00     -575.674     -282.383      -11.957      282.994      271.218      130.809    80085.762    73559.443    17111.036       29.099        8.538      641.203      147.771        0.053      347.362       26.273      864.435
05/13/2013  12:26:00     -399.021     -331.602        0.442      222.627      233.845      116.089    49562.985    54683.457    13476.622       19.343        5.886      518.823      106.398        0.042      347.396       26.333      864.399
05/13/2013  12:27:00     -463.501     -297.627       -7.151      176.243      168.853       95.741    31061.634    28511.273     9166.405       18.609        3.437      550.831       94.623        0.030      347.490       26.494      864.441
05/13/2013  12:28:00     -379.093     -242.550        3.852      229.054      216.039       95.807    52465.785    46673.041     9179.014       15.542        5.416      450.047      109.236        0.059      347.519       26.543      864.459
05/13/2013  12:29:00     -257.210     -148.327       15.887      156.124      175.133       78.924    24374.782    30671.485     6228.980        7.483        3.064      296.914       71.782        0.058      347.475       26.467      864.432
05/13/2013  12:30:00     -374.111     -180.175      -30.734      121.797      115.447       63.331    14834.451    13328.024     4010.797       10.276        1.609      415.238       65.536        0.025      347.604       26.690      864.427
05/13/2013  12:31:00     -637.449     -138.872      -27.633      240.166      218.678       85.894    57679.670    47820.238     7377.752       26.962        5.644      652.401       94.084        0.021      347.581       26.651      864.434
05/13/2013  12:32:00     -515.707     -254.436       -6.765      290.100      194.501      116.411    84158.282    37830.550    13551.448       23.312        6.777      575.058      135.260        0.055      347.439       26.405      864.442
05/13/2013  12:33:00     -351.556     -262.353       14.037      170.480      160.028       91.248    29063.266    25608.969     8326.200       12.780        3.150      438.658       92.935        0.045      347.409       26.354      864.417
05/13/2013  12:34:00     -439.345     -298.594       -9.177      248.605      163.904       95.483    61804.537    26864.677     9117.043       19.001        4.889      531.209      114.578        0.047      347.679       26.818      864.382
05/13/2013  12:35:00     -590.551     -159.011      -36.047      284.497      160.395       91.625    80938.701    25726.398     8395.230       24.518        5.753      611.585       98.865        0.026      347.638       26.748      864.366
05/13/2013  12:36:00     -595.207      -51.374      -45.047      222.338      197.218       98.362    49434.140    38895.020     9675.177       22.846        4.900      597.420      100.592        0.028      347.541       26.581      864.328
05/13/2013  12:37:00     -363.649      -81.967       10.285      200.120      135.282       85.391    40047.891    18301.213     7291.687       10.234        3.282      372.773       94.894        0.065      347.847       27.109      864.387
05/13/2013  12:38:00     -350.627     -191.599       -1.812      206.288      165.285       82.554    42554.794    27319.187     6815.158       11.816        3.834      399.561       88.626        0.049      347.691       26.840      864.392
05/13/2013  12:39:00     -202.732      -93.524       -8.573      251.255      137.250       91.206    63129.156    18837.514     8318.451        7.009        4.514      223.264      104.637        0.220      347.974       27.331      864.364
05/13/2013  12:40:00     -629.169      -85.826      -33.597      320.797      185.794      110.332   102911.030    34519.285    12173.217       27.695        7.480      634.996      142.886        0.051      347.637       26.749      864.328
05/13/2013  12:41:00     -537.745     -227.076      -17.829      264.179      206.682       96.902    69790.284    42717.477     9390.066       23.145        6.095      583.724      122.525        0.044      347.748       26.939      864.337
05/13/2013  12:42:00     -521.758     -219.247      -11.631      311.838      204.776      125.324    97242.801    41933.122    15706.013       23.763        7.744      565.952      159.735        0.080      347.712       26.878      864.351
05/13/2013  12:43:00     -479.596     -260.286      -13.403      282.923      294.670      122.944    80045.435    86830.582    15115.176       23.994        9.100      545.675      131.303        0.058      347.736       26.919      864.348
05/13/2013  12:44:00     -696.593     -377.756      -35.560      269.667      222.953      118.969    72720.520    49708.046    14153.637       38.287        6.829      792.428      126.305        0.025      347.361       26.271      864.345
05/13/2013  12:45:00     -595.276     -317.283      -12.979      249.606      223.768      123.984    62303.209    50072.136    15371.938       29.145        6.387      674.553      117.188        0.030      347.349       26.251      864.344
05/13/2013  12:46:00     -416.577     -179.848      -25.905      232.206      211.387       95.997    53919.506    44684.400     9215.371       15.717        5.391      453.742      114.696        0.064      347.499       26.508      864.341
05/13/2013  12:47:00     -483.263     -239.267      -15.960      246.746      213.880      106.312    60883.453    45744.862    11302.234       20.447        5.897      539.251      117.171        0.047      347.542       26.583      864.293
05/13/2013  12:48:00     -594.757     -327.798      -32.225      264.675      172.506      106.592    70052.786    29758.246    11361.894       28.668        5.559      679.107       97.411        0.021      347.549       26.596      864.313
05/13/2013  12:49:00     -527.269      -87.644      -20.168      233.865      236.668      110.894    54692.811    56011.929    12297.490       20.453        6.150      534.504      118.984        0.050      347.765       26.968      864.306
05/13/2013  12:50:00     -351.530     -203.024       -7.877      197.410      191.306      102.640    38970.592    36597.833    10534.906       12.546        4.305      405.946      101.256        0.062      347.723       26.897      864.297
05/13/2013  12:51:00     -196.495      -17.661       19.951      227.882      139.096       96.800    51930.259    19347.615     9370.322        5.997        4.032      197.287      100.586        0.260      348.048       27.457      864.278
05/13/2013  12:52:00     -402.714      -80.447       -3.596      212.416      137.885       93.088    45120.370    19012.169     8665.366       12.072        3.640      410.671      107.912        0.069      348.090       27.529      864.277
05/13/2013  12:53:00     -551.160     -165.630      -10.355      293.643      231.207      115.934    86226.148    53456.577    13440.745       24.220        7.656      575.509      133.978        0.054      347.854       27.119      864.328
05/13/2013  12:54:00     -436.026     -214.710      -13.728      243.293      219.556      113.154    59191.615    48204.661    12803.729       17.828        6.010      486.024      121.196        0.062      347.590       26.666      864.326
05/13/2013  12:55:00     -562.618     -197.363      -40.233      256.203      253.392      108.822    65640.118    64207.530    11842.128       24.938        7.084      596.231      136.703        0.053      347.406       26.349      864.318
05/13/2013  12:56:00     -372.061     -207.709      -23.609      183.515      220.100       90.238    33677.903    48443.870     8142.853       13.618        4.513      426.113       90.982        0.046      347.496       26.504      864.330
05/13/2013  12:57:00     -412.529     -220.647       -6.805      230.755      190.775       97.786    53247.855    36395.099     9562.118       15.904        4.960      467.830       95.633        0.042      347.660       26.786      864.312
05/13/2013  12:58:00     -386.372     -164.598       -6.899      254.274      215.204       97.706    64655.468    46312.920     9546.541       14.845        6.026      419.971       96.336        0.053      347.691       26.840      864.307
05/13/2013  12:59:00     -410.466     -270.512       -9.331      257.810      220.383      107.243    66466.042    48568.540    11501.156       18.412        6.327      491.588      142.462        0.084      347.492       26.496      864.303
05/13/2013  13:00:00     -254.314     -196.645        4.106      171.266      154.147       75.741    29331.883    23761.260     5736.699        8.109        2.941      321.473       88.852        0.076      347.624       26.726      864.291
05/13/2013  13:01:00     -545.349     -311.326      -25.658      246.794      193.182      112.745    60907.432    37319.139    12711.406       25.294        5.547      627.956      122.349        0.038      347.509       26.526      864.280
05/13/2013  13:02:00     -401.497     -152.233       -2.518      203.232      173.972       93.894    41303.058    30266.328     8816.045       13.237        4.019      429.389       99.718        0.054      347.798       27.025      864.289
05/13/2013  13:03:00     -530.526     -376.915      -15.128      286.205      216.889      124.641    81913.082    47040.960    15535.262       28.410        7.224      650.786      139.329        0.046      347.485       26.486      864.294
05/13/2013  13:04:00     -576.867     -254.735      -28.214      256.356      180.500       91.236    65718.638    32580.299     8324.078       25.252        5.331      630.607      112.264        0.032      347.333       26.222      864.327
05/13/2013  13:05:00     -412.813     -187.931      -14.095      209.546      135.957       84.788    43909.335    18484.425     7189.084       13.775        3.479      453.578       91.432        0.041      347.302       26.169      864.267
05/13/2013  13:06:00     -163.086     -134.989       -7.164      108.938      117.815       58.745    11867.573    13880.432     3450.947        3.703        1.460      211.705       59.092        0.078      347.586       26.659      864.272
05/13/2013  13:07:00     -332.285     -230.612        1.716      222.100      125.968       80.089    49328.365    15867.993     6414.271       11.759        3.581      404.469       77.218        0.036      347.675       26.813      864.267
05/13/2013  13:08:00     -467.554     -347.635      -15.724      180.374      160.019       91.303    32534.850    25606.130     8336.265       20.308        3.324      582.630       87.086        0.022      347.566       26.624      864.223
05/13/2013  13:09:00     -582.276     -374.581      -23.240      251.429      230.508      116.846    63216.561    53133.780    13652.955       30.493        6.500      692.355      140.269        0.041      347.669       26.802      864.295
05/13/2013  13:10:00     -363.122     -175.094       -9.816      242.224      226.893      112.523    58672.531    51480.539    12661.315       14.269        6.141      403.133      126.245        0.098      347.654       26.777      864.292
05/13/2013  13:11:00     -349.698     -281.053       17.182      258.138      169.078      117.963    66635.214    28587.445    13915.241       15.534        5.457      448.641      138.232        0.095      347.523       26.551      864.297
05/13/2013  13:12:00     -346.127      -97.691      -27.463      197.486      150.260       68.180    39000.605    22578.042     4648.467        9.815        3.311      359.649       65.881        0.034      347.639       26.750      864.247
05/13/2013  13:13:00     -250.679      -34.747        4.568      193.001      122.013       58.945    37249.421    14887.147     3474.545        5.983        2.781      253.076       80.445        0.101      347.837       27.093      864.230
05/13/2013  13:14:00     -264.259      -43.324        8.478      225.600      157.463       95.555    50895.540    24794.471     9130.712        7.829        4.241      267.787       94.480        0.124      347.950       27.289      864.215
05/13/2013  13:15:00     -147.943     -214.280        5.508      143.489      125.707       72.868    20589.203    15802.230     5309.802        5.476        2.085      260.390       66.905        0.066      347.955       27.297      864.236
05/13/2013  13:16:00     -341.686     -128.276       -5.171      182.693      195.686       72.285    33376.855    38293.025     5225.157       10.505        3.845      364.971       68.951        0.036      348.057       27.472      864.252
05/13/2013  13:17:00     -461.135     -284.236      -14.988      272.681      237.884      111.194    74355.014    56589.005    12364.043       21.846        7.165      541.697      121.761        0.051      347.622       26.721      864.261
05/13/2013  13:18:00     -397.705     -181.511       -3.510      296.641      232.496      121.125    87995.788    54054.432    14671.308       17.390        7.836      437.168      153.557        0.123      347.721       26.891      864.258
05/13/2013  13:19:00     -616.661     -154.637      -56.308      196.060      217.536       92.990    38439.626    47322.049     8647.122       25.087        4.720      635.754       79.181        0.016      347.427       26.385      864.259
05/13/2013  13:20:00     -512.430      -92.067       -9.296      304.659      155.494       72.260    92817.398    24178.337     5221.459       19.666        6.111      520.635      105.634        0.041      347.357       26.264      864.248
05/13/2013  13:21:00     -236.220     -191.206       -2.494      132.429      160.856       69.034    17537.361    25874.499     4765.742        7.026        2.409      303.907       74.709        0.060      347.736       26.918      864.274
05/13/2013  13:22:00     -100.489     -218.331       12.410      124.436      168.345       70.849    15484.322    28339.964     5019.510        5.337        2.442      240.347       69.371        0.083      347.652       26.774      864.247
05/13/2013  13:23:00     -348.144     -194.866        3.266      270.440      162.823       85.123    73137.738    26511.441     7245.952       13.302        5.345      398.970      119.858        0.090      347.561       26.617      864.203
05/13/2013  13:24:00     -298.305     -367.770       18.810      265.246      254.070      105.197    70355.599    64551.679    11066.397       18.526        7.299      473.541      123.657        0.068      347.735       26.917      864.206
05/13/2013  13:25:00     -423.553     -270.856       -7.296      226.680      209.647      100.124    51383.784    43951.932    10024.780       17.907        5.268      502.752       82.019        0.027      347.552       26.601      864.213
05/13/2013  13:26:00     -342.355     -170.512        4.627      279.829      157.883       89.303    78304.474    24926.929     7975.081       12.874        5.560      382.467      113.683        0.088      347.867       27.145      864.179
05/13/2013  13:27:00     -296.771     -320.180       -5.254      210.634      163.969       99.261    44366.626    26885.857     9852.797       13.585        4.055      436.564      115.242        0.070      347.884       27.174      864.131
05/13/2013  13:28:00     -361.128     -301.318       -3.735      285.459      186.657      117.699    81486.622    34840.870    13853.142       17.568        6.509      470.326      144.233        0.094      347.779       26.991      864.154
05/13/2013  13:29:00     -732.916     -351.238      -30.645      308.656      229.773      111.064    95268.290    52795.510    12335.233       41.091        8.020      812.733      121.640        0.022      347.663       26.791      864.099
05/13/2013  13:30:00     -451.781     -358.663       -0.848      245.246      224.490      112.725    60145.783    50395.933    12706.917       22.798        6.162      576.841      109.135        0.036      347.887       27.177      864.162
05/13/2013  13:31:00     -506.365     -357.643      -10.376      254.644      201.647      122.648    64843.399    40661.436    15042.564       25.246        6.027      619.931      135.944        0.048      347.659       26.785      864.164
05/13/2013  13:32:00     -525.913     -188.872      -18.095      270.870      197.798       93.160    73370.522    39123.918     8678.802       21.686        6.059      558.800      111.943        0.040      347.825       27.073      864.208
05/13/2013  13:33:00     -306.361      -70.747       -1.167      173.769      133.090       76.443    30195.590    17712.996     5843.584        7.630        2.688      314.424       87.473        0.077      348.040       27.442      864.215
05/13/2013  13:34:00     -402.559     -165.696      -28.300      210.127      159.289       80.418    44153.301    25373.055     6467.104       13.314        3.800      435.326       81.395        0.035      347.766       26.969      864.230
05/13/2013  13:35:00     -387.627     -248.183        1.217      217.043      161.396       88.971    47107.765    26048.761     7915.862       14.645        4.054      460.271      103.704        0.051      347.569       26.630      864.200
05/13/2013  13:36:00     -425.097     -167.754      -14.448      226.435      221.323       96.484    51272.989    48983.675     9309.172       15.929        5.478      457.000      105.986        0.054      347.537       26.573      864.164
05/13/2013  13:37:00     -397.397     -185.108      -33.670      236.932      178.613       92.963    56136.898    31902.584     8642.205       14.499        4.834      438.394      101.902        0.054      347.697       26.850      864.112
05/13/2013  13:38:00     -406.728     -291.839       -1.584      236.536      169.922      106.114    55949.243    28873.631    11260.177       17.333        4.804      500.597      109.078        0.047      347.908       27.215      864.121
05/13/2013  13:39:00     -475.178     -178.261      -24.826      241.013      252.735      106.861    58087.257    63874.774    11419.229       19.576        6.669      507.514      101.825        0.040      348.027       27.422      864.158
05/13/2013  13:40:00     -741.673     -131.597      -34.982      324.945      224.014      128.663   105589.317    50182.213    16554.212       37.044        8.616      753.257      153.428        0.041      347.657       26.782      864.130
05/13/2013  13:41:00     -496.183     -160.831      -16.117      252.739      171.957       95.767    63876.797    29569.163     9171.226       18.745        5.131      521.598      106.225        0.041      347.647       26.764      864.163
05/13/2013  13:42:00     -416.649     -173.737      -22.917      214.404      169.430       82.468    45968.971    28706.426     6800.977       14.288        4.074      451.421       70.944        0.025      347.627       26.729      864.191
05/13/2013  13:43:00     -314.661      -98.811       -1.629      147.948      128.444       68.026    21888.536    16497.823     4627.553        7.589        2.151      329.811       65.924        0.040      347.945       27.278      864.148
05/13/2013  13:44:00     -474.953     -225.318      -30.166      312.177      268.586      122.843    97454.280    72138.193    15090.459       23.094        9.234      525.689      124.789        0.056      347.929       27.250      864.120
05/13/2013  13:45:00     -548.417     -322.123       -8.407      315.093      218.321      132.910    99283.773    47664.143    17665.096       28.458        8.231      636.023      158.976        0.062      347.667       26.799      864.169
05/13/2013  13:46:00     -650.567     -245.166      -46.182      246.705      223.083      107.356    60863.322    49765.876    11525.339       30.380        6.108      695.229      110.423        0.025      347.436       26.402      864.205
05/13/2013  13:47:00     -440.167     -289.153      -11.997      245.736      147.756       84.976    60386.265    21831.807     7220.893       18.345        4.472      526.647      102.568        0.038      347.460       26.442      864.212
05/13/2013  13:48:00     -333.889      -30.735      -13.574      227.139      116.373       82.508    51592.187    13542.565     6807.558        9.226        3.597      335.301      104.108        0.096      347.872       27.154      864.190
05/13/2013  13:49:00     -557.208      -66.278      -14.375      247.011      263.268       81.833    61014.674    69310.226     6696.716       22.603        6.851      561.136       81.858        0.021      347.674       26.809      864.136
05/13/2013  13:50:00     -347.167     -120.089        4.651      225.971      184.873       96.159    51062.883    34177.896     9246.499       11.471        4.724      367.350      104.602        0.081      348.022       27.412      864.167
05/13/2013  13:51:00     -502.242      -94.539      -19.121      213.958      190.431       97.268    45777.839    36263.938     9461.091       17.651        4.575      511.062      112.105        0.048      347.885       27.175      864.197
05/13/2013  13:52:00     -376.752      -47.377       -9.030      250.002      240.672       97.920    62501.244    57922.816     9588.317       13.712        6.501      379.719      105.326        0.077      347.847       27.109      864.195
05/13/2013  13:53:00     -283.641     -253.294       24.196      181.295      186.737       93.748    32867.811    34870.593     8788.692       11.085        3.826      380.276      101.648        0.071      347.739       26.922      864.179
05/13/2013  13:54:00     -504.275     -150.933      -37.681      305.803      155.631       97.753    93515.423    24221.156     9555.732       20.287        6.365      526.378      111.964        0.045      347.884       27.174      864.118
05/13/2013  13:55:00     -476.592     -166.406       10.964      323.499      203.868      101.884   104651.513    41562.283    10380.335       20.575        7.830      504.808      112.797        0.050      348.073       27.501      864.141
05/13/2013  13:56:00     -307.600     -276.788       -2.475      211.202      202.679      100.559    44606.135    41078.967    10112.120       13.350        4.790      413.799      103.834        0.063      347.557       26.610      864.174
05/13/2013  13:57:00     -362.639     -129.176       -9.908      249.784      164.992       90.578    62391.857    27222.325     8204.428       12.304        4.891      384.959      117.781        0.094      347.687       26.834      864.131
05/13/2013  13:58:00     -489.480     -112.406      -14.629      210.288      134.410       90.561    44220.835    18065.919     8201.319       16.145        3.524      502.221       92.834        0.034      347.764       26.965      864.092
05/13/2013  13:59:00     -252.526      -24.306       -5.223      174.226       92.645       71.587    30354.567     8583.089     5124.644        5.422        2.203      253.693       78.907        0.097      348.138       27.614      864.144
05/13/2013  14:00:00     -208.855     -102.686       -3.875      144.416       88.938       67.699    20855.877     7909.923     4583.095        4.376        1.667      232.734       64.483        0.077      348.177       27.680      864.123
05/13/2013  14:01:00     -396.331     -146.450       -4.729      237.850      148.004       71.218    56572.773    21905.158     5072.068       13.104        4.177      422.523       88.336        0.044      348.060       27.477      864.134
05/13/2013  14:02:00     -493.839      -65.159      -19.522      242.778      222.851       97.968    58941.386    49662.516     9597.795       18.333        5.910      498.119       86.851        0.030      347.812       27.048      864.129
05/13/2013  14:03:00     -687.251        0.607      -26.277      298.422      194.769      116.082    89055.488    37934.969    13475.103       30.671        7.023      687.251      134.115        0.038      347.881       27.167      864.078
05/13/2013  14:04:00     -626.797      -32.348      -38.878      229.682      182.186       92.846    52753.919    33191.645     8620.414       24.498        4.728      627.631      104.402        0.028      347.765       26.967      864.099
05/13/2013  14:05:00     -458.608      -42.285       -7.829      292.807      187.171      112.957    85736.006    35033.027    12759.241       17.283        6.676      460.554      143.388        0.097      347.962       27.308      864.076
05/13/2013  14:06:00     -789.681     -108.932      -45.192      284.408      264.769      125.358    80887.770    70102.516    15714.553       40.208        8.335      797.159      131.029        0.027      347.718       26.887      864.008
05/13/2013  14:07:00     -690.080     -205.168       -9.933      283.886      241.612      138.286    80591.253    58376.358    19122.957       33.822        7.905      719.934      149.331        0.043      347.699       26.855      864.036
05/13/2013  14:08:00     -564.285      -78.864      -23.373      262.608      190.252      107.772    68962.895    36195.972    11614.757       22.096        5.839      569.770      115.667        0.041      347.729       26.906      864.092
05/13/2013  14:09:00     -462.739      -91.771        2.091      318.688      153.105      111.538   101562.031    23441.267    12440.837       17.998        6.872      471.752      143.026        0.092      347.641       26.754      864.069
05/13/2013  14:10:00     -132.035      -16.846       39.237      160.986      130.084       66.481    25916.525    16921.812     4419.774        3.325        2.363      133.106       71.186        0.286      348.167       27.664      864.116
05/13/2013  14:11:00     -483.320      -78.969      -34.006      198.725      182.599       74.099    39491.693    33342.439     5490.652       15.964        3.916      489.729       75.769        0.024      348.004       27.380      864.114
05/13/2013  14:12:00     -519.697     -199.432      -15.303      250.592      208.520      102.592    62796.222    43480.624    10525.034       21.343        5.840      556.649      119.253        0.046      347.786       27.005      864.115
05/13/2013  14:13:00     -437.894     -209.971      -10.862      174.935      151.044       87.356    30602.259    22814.297     7631.044       14.849        3.052      485.632       85.188        0.031      347.963       27.311      864.113
05/13/2013  14:14:00     -312.303     -111.965        6.634      197.620      184.446      100.941    39053.547    34020.329    10189.136        9.667        4.163      331.767      104.544        0.099      347.978       27.336      864.102
05/13/2013  14:15:00     -533.281     -170.105      -25.800      212.320      178.921      100.597    45079.789    32012.580    10119.772       20.059        4.361      559.754      101.625        0.033      347.763       26.964      864.040
05/13/2013  14:16:00     -467.260     -144.813       -1.173      264.942      215.880       99.825    70194.121    46604.157     9965.080       18.301        6.338      489.186      101.407        0.043      347.812       27.050      864.015
05/13/2013  14:17:00     -280.952     -117.322        6.140      211.028      145.110      105.111    44532.639    21056.982    11048.293        8.467        3.832      304.464      117.098        0.148      348.020       27.408      864.033
05/13/2013  14:18:00     -386.859     -218.400        0.511      265.337      204.436      107.162    70403.932    41794.142    11483.608       16.050        6.184      444.251      128.402        0.084      347.993       27.361      864.065
05/13/2013  14:19:00     -537.169     -295.794        0.109      317.263      237.819      118.154   100656.015    56557.812    13960.364       27.358        8.559      613.225      150.104        0.060      347.631       26.736      864.033
05/13/2013  14:20:00     -464.081     -187.741      -34.019      214.287      235.901       97.567    45918.756    55649.247     9519.376       18.141        5.554      500.617       90.949        0.033      347.718       26.887      864.025
05/13/2013  14:21:00     -629.958     -181.157        1.929      280.194      241.535      114.730    78508.785    58339.395    13163.038       28.982        7.501      655.489      126.538        0.037      347.671       26.806      863.982
05/13/2013  14:22:00     -222.536     -183.276        3.728      187.210      143.685       97.279    35047.515    20645.240     9463.236        7.413        3.258      288.292      110.992        0.148      347.963       27.309      863.990
05/13/2013  14:23:00     -195.304     -161.556       13.322      195.128      173.691       84.568    38074.763    30168.399     7151.665        6.990        3.770      253.464      101.331        0.160      348.155       27.643      863.990
05/13/2013  14:24:00     -546.223     -337.909       -5.054      298.370      233.667      135.035    89024.585    54600.381    18234.451       28.719        8.093      642.294      160.526        0.062      347.719       26.889      863.951
05/13/2013  14:25:00     -468.604     -194.050       -6.926      203.535      239.361       98.848    41426.416    57293.926     9770.994       18.287        5.425      507.194       86.512        0.029      347.709       26.873      863.965
05/13/2013  14:26:00     -480.791     -313.340      -24.742      255.044      190.132      110.066    65047.326    36150.057    12114.504       22.161        5.666      573.883      119.685        0.043      347.683       26.827      863.996
05/13/2013  14:27:00     -503.174     -324.956       -1.603      251.312      216.761      104.802    63157.841    46985.357    10983.376       23.993        6.056      598.983      125.834        0.044      347.671       26.805      863.998
05/13/2013  14:28:00     -446.431     -296.995       31.272      330.397      268.903      117.412   109161.967    72308.608    13785.659       24.184        9.763      536.196      150.866        0.079      347.757       26.955      863.921
05/13/2013  14:29:00     -363.242     -305.653      -23.839      259.158      216.482      132.741    67162.978    46864.481    17620.281       17.877        6.582      474.730      155.234        0.107      347.840       27.097      863.982
05/13/2013  14:30:00     -324.641      -51.094        6.177      164.458      150.441       77.215    27046.353    22632.596     5962.172        8.183        2.782      328.637       78.021        0.056      347.927       27.248      864.021
05/13/2013  14:31:00     -508.913     -160.855      -25.170      250.493      245.585      109.871    62746.781    60312.142    12071.692       21.029        6.757      533.729      112.865        0.045      347.819       27.062      863.977
05/13/2013  14:32:00     -471.771     -177.314      -25.014      205.474      212.739       99.979    42219.498    45257.782     9995.838       17.604        4.874      503.992      103.623        0.042      347.676       26.813      864.003
05/13/2013  14:33:00     -514.902     -289.362      -23.225      213.721      206.068       86.937    45676.556    42464.126     7558.111       22.253        4.785      590.639       79.393        0.018      347.549       26.595      864.051
05/13/2013  14:34:00     -315.849     -184.735        8.059      188.554      165.981       83.922    35552.589    27549.615     7042.863       10.204        3.507      365.906       85.678        0.055      347.686       26.832      864.023
05/13/2013  14:35:00     -341.220     -295.894       13.829      180.191      168.721       89.787    32468.944    28466.676     8061.781       13.657        3.450      451.646       97.286        0.046      347.477       26.472      863.957
05/13/2013  14:36:00     -375.933     -215.489       -3.836      175.652      164.389       79.858    30853.607    27023.716     6377.304       12.600        3.213      433.314       91.519        0.045      347.731       26.910      863.956
05/13/2013  14:37:00     -335.091       10.983        3.635      205.207      142.413       84.690    42109.745    20281.487     7172.410        9.098        3.478      335.271       82.754        0.061      347.804       27.036      863.905
05/13/2013  14:38:00     -343.656     -128.979       -0.484      199.283      161.227      100.472    39713.522    25994.213    10094.709       10.526        3.790      367.063      118.837        0.105      347.787       27.005      863.902
05/13/2013  14:39:00     -281.124     -136.951        4.545      206.383      155.990       76.669    42593.953    24333.018     5878.136        8.529        3.640      312.708       91.729        0.086      347.951       27.290      863.881
05/13/2013  14:40:00     -449.226     -122.151      -10.140      266.777      214.354      105.244    71170.113    45947.485    11076.263       17.249        6.410      465.537      116.451        0.063      348.025       27.416      863.896
05/13/2013  14:41:00     -593.762     -270.545      -25.495      273.878      198.316      126.321    75009.352    39329.228    15956.907       27.833        6.515      652.494      131.968        0.041      347.647       26.765      863.897
05/13/2013  14:42:00     -425.089     -107.792      -13.013      255.655      151.526       98.451    65359.708    22959.985     9692.592       14.523        4.901      438.543      103.101        0.055      347.776       26.988      863.924
05/13/2013  14:43:00     -694.821     -214.581      -17.518      322.684      217.074      131.654   104125.205    47121.091    17332.883       34.883        8.429      727.201      146.565        0.041      347.707       26.868      863.886
05/13/2013  14:44:00     -327.517     -122.101        7.536      259.351      242.446      107.767    67262.847    58780.186    11613.702       12.992        6.883      349.537      118.803        0.116      347.866       27.143      863.886
05/13/2013  14:45:00     -507.976     -161.008       -8.065      279.160      230.317      100.186    77930.329    53045.947    10037.237       21.250        7.051      532.882      126.143        0.056      347.666       26.798      863.918
05/13/2013  14:46:00     -550.948      -89.899        1.832      338.080      214.020      113.148   114298.077    45804.582    12802.442       24.224        8.645      558.235      131.278        0.055      347.716       26.883      863.885
05/13/2013  14:47:00     -385.516     -158.759       -2.262      273.540      259.514      109.986    74824.192    67347.413    12096.923       16.402        7.713      416.925      118.508        0.081      347.874       27.157      863.891
05/13/2013  14:48:00     -517.460     -289.734      -25.929      207.893      197.325       90.542    43219.682    38937.299     8197.851       22.135        4.518      593.052       99.962        0.028      347.605       26.691      863.941
05/13/2013  14:49:00     -459.611     -297.114      -34.269      265.805      236.560      115.315    70652.110    55960.742    13297.546       22.028        6.996      547.283      127.583        0.054      347.757       26.954      863.884
05/13/2013  14:50:00     -154.168     -116.034       37.157      248.634      162.103      105.755    61818.904    26277.345    11184.094        6.893        4.964      192.955      119.133        0.381      348.179       27.684      863.854
05/13/2013  14:51:00     -588.879     -397.115       -4.726      297.055      284.217      127.963    88241.780    80779.056    16374.528       34.492        9.270      710.267      150.452        0.045      347.770       26.975      863.918
05/13/2013  14:52:00     -516.302     -402.587        0.532      292.343      212.515      127.964    85464.493    45162.781    16374.692       28.780        7.350      654.709      148.732        0.052      347.389       26.320      863.996
05/13/2013  14:53:00     -487.551     -146.907      -26.624      218.124      177.025       96.064    47577.902    31337.871     9228.230       17.406        4.407      509.203       98.824        0.038      347.646       26.761      863.995
05/13/2013  14:54:00     -333.457      -59.313      -26.860      145.513      158.021       85.132    21174.057    24970.611     7247.470        8.440        2.670      338.691       79.691        0.055      347.846       27.108      863.990
05/13/2013  14:55:00     -358.107     -127.509        6.572      234.575      173.400      108.903    55025.466    30067.514    11859.808       12.073        4.848      380.130      126.150        0.110      347.762       26.962      863.973
05/13/2013  14:56:00     -434.408     -256.252      -15.329      214.449      204.061      102.224    45988.268    41640.849    10449.830       17.633        4.904      504.357      117.100        0.054      347.839       27.095      863.984
05/13/2013  14:57:00     -476.046     -245.010       -0.873      255.904      170.670      104.148    65486.760    29128.316    10846.842       19.604        5.273      535.397      111.883        0.044      347.660       26.787      863.940
05/13/2013  14:58:00     -464.249     -357.288      -26.364      251.365      223.037      104.242    63184.392    49745.553    10866.458       23.382        6.190      585.817      108.997        0.035      347.520       26.545      863.976
05/13/2013  14:59:00     -255.375     -312.043      -23.347      138.027      125.086       63.790    19051.417    15646.574     4069.180       10.094        1.938      403.221       48.778        0.015      347.409       26.353      863.931
05/13/2013  15:00:00     -371.816     -184.577       -4.110      249.552      163.251       88.437    62276.242    26650.926     7821.034       13.452        4.837      415.110       93.262        0.050      347.791       27.013      863.921
05/13/2013  15:01:00     -417.947     -275.896      -34.614      312.800      191.011      104.957    97844.136    36485.332    11016.038       19.865        7.267      500.798       99.013        0.039      347.747       26.936      863.892
05/13/2013  15:02:00     -489.086     -180.054      -24.189      279.252      228.448      119.578    77981.462    52188.606    14298.826       20.832        7.223      521.176      139.479        0.072      347.787       27.005      863.891
05/13/2013  15:03:00     -444.215     -300.317        4.403      321.779      205.878      114.469   103541.594    42385.713    13103.046       22.326        7.952      536.206      128.400        0.057      347.756       26.953      863.889
05/13/2013  15:04:00     -562.519     -205.077      -32.343      277.829      227.213      109.518    77188.970    51625.853    11994.231       25.015        7.040      598.736      118.003        0.039      347.680       26.822      863.903
05/13/2013  15:05:00     -412.092     -295.721      -30.761      235.781      208.415      110.809    55592.901    43436.970    12278.737       18.474        5.565      507.219      119.578        0.056      347.669       26.803      863.860
05/13/2013  15:06:00     -763.854     -253.812      -39.427      288.035      243.509      123.646    82963.894    59296.426    15288.220       40.347        7.877      804.918      128.916        0.026      347.673       26.810      863.806
05/13/2013  15:07:00     -570.388     -266.393      -23.577      212.791      215.561      105.900    45280.162    46466.572    11214.866       24.990        5.148      629.530      101.793        0.026      347.665       26.796      863.834
05/13/2013  15:08:00     -299.579     -250.060      -18.282      131.938      171.733       70.704    17407.634    29492.169     4999.074       10.225        2.595      390.228       60.528        0.024      347.756       26.952      863.846
05/13/2013  15:09:00     -359.411      -35.314       -8.874      170.727      163.941       80.284    29147.785    26876.510     6445.482        9.648        3.123      361.142       75.561        0.044      347.860       27.132      863.805
05/13/2013  15:10:00     -498.173      -50.660      -11.067      228.401      166.432       94.523    52167.100    27699.710     8934.671       16.982        4.440      500.742       97.300        0.038      347.933       27.258      863.776
05/13/2013  15:11:00     -217.742     -172.933       47.449      241.524      232.238      122.865    58333.985    53934.539    15095.873       10.345        6.368      278.060      139.767        0.253      348.009       27.389      863.805
05/13/2013  15:12:00     -415.917     -329.599      -11.064      218.658      213.453      104.670    47811.177    45562.067    10955.828       19.302        5.216      530.681      109.243        0.042      347.564       26.621      863.854
05/13/2013  15:13:00     -341.726      -75.343        2.488      171.966      125.279       88.050    29572.317    15694.823     7752.758        8.773        2.651      349.933       80.031        0.052      347.704       26.863      863.801
05/13/2013  15:14:00     -488.398      -19.351      -31.538      179.756      182.853       80.920    32312.118    33435.207     6548.034       15.609        3.615      488.782       82.584        0.029      347.906       27.211      863.774
05/13/2013  15:15:00     -446.420       41.078      -27.090      235.702      115.091       85.756    55555.289    13246.043     7354.045       13.892        3.808      448.306      104.489        0.054      347.950       27.286      863.731
05/13/2013  15:16:00     -270.930     -173.917        3.622      192.600      184.832       89.865    37094.740    34162.992     8075.701        9.149        3.967      321.948       89.877        0.078      348.050       27.460      863.688
05/13/2013  15:17:00     -522.028      -26.651      -45.919      289.605      226.964      129.459    83871.238    51512.692    16759.518       21.371        7.607      522.708      138.213        0.070      348.038       27.440      863.643
05/13/2013  15:18:00     -581.475     -150.758      -28.932      222.669      208.731      120.391    49581.583    43568.578    14493.906       23.464        5.382      600.700      126.128        0.044      347.841       27.098      863.700
05/13/2013  15:19:00     -609.565      -65.672      -16.856      241.600      241.000      101.330    58370.460    58081.230    10267.705       25.142        6.336      613.093      101.787        0.028      347.645       26.760      863.728
05/13/2013  15:20:00     -451.335     -112.946       -3.467      189.199      146.028       86.888    35796.289    21324.066     7549.578       14.056        3.233      465.253       97.913        0.044      347.554       26.605      863.727
05/13/2013  15:21:00     -476.917     -275.153      -24.597      280.914      203.907      111.002    78912.677    41578.135    12321.501       21.827        6.641      550.599      117.773        0.046      347.681       26.824      863.728
05/13/2013  15:22:00     -506.571     -240.615      -28.980      317.482      187.711      127.962   100794.603    35235.314    16374.172       23.385        7.620      560.812      131.691        0.055      347.730       26.907      863.707
05/13/2013  15:23:00     -485.815      -82.343      -13.651      276.630      237.062      114.564    76524.151    56198.175    13124.927       19.439        7.292      492.744      112.885        0.052      347.758       26.956      863.712
05/13/2013  15:24:00     -476.864     -243.585      -24.877      261.300      228.775      110.687    68277.642    52338.062    12251.650       21.009        6.643      535.475      112.934        0.044      347.696       26.849      863.707
05/13/2013  15:25:00     -458.513     -181.734      -12.829      249.369      187.189       98.609    62184.845    35039.594     9723.640       17.517        5.347      493.215      109.141        0.049      347.670       26.803      863.735
05/13/2013  15:26:00     -331.543     -158.657        4.582      190.779      142.311       68.925    36396.488    20252.384     4750.629        9.825        3.070      367.550       75.147        0.042      347.768       26.973      863.734
05/13/2013  15:27:00     -547.325      -99.241      -30.867      209.072      174.844       85.106    43711.295    30570.368     7243.054       19.593        4.076      556.249       93.883        0.028      347.682       26.823      863.687
05/13/2013  15:28:00     -211.389     -109.086       12.236      166.855      152.370       77.077    27840.537    23216.709     5940.848        5.686        2.850      237.876       75.850        0.102      347.836       27.090      863.675
05/13/2013  15:29:00     -334.635     -196.883       11.922      223.970      237.524       93.584    50162.370    56417.793     8757.907       13.309        5.767      388.257      103.517        0.071      347.717       26.884      863.613
05/13/2013  15:30:00     -260.258     -199.049       -0.839      215.516      201.318      107.098    46447.302    40528.771    11469.998       10.288        4.922      327.651      119.883        0.134      347.882       27.171      863.597
05/13/2013  15:31:00     -285.364     -225.488      -14.151      241.734      200.324      104.737    58435.237    40129.744    10969.807       12.099        5.477      363.700      126.946        0.122      347.834       27.089      863.543
05/13/2013  15:32:00     -209.445        4.776        2.139      142.024      121.084       78.910    20170.816    14661.343     6226.841        4.247        2.053      209.500       67.264        0.103      348.098       27.544      863.552
05/13/2013  15:33:00     -347.486     -291.049       -0.548      228.635      151.602       82.345    52274.180    22983.145     6780.678       14.373        4.102      453.272       94.860        0.044      347.846       27.108      863.579
05/13/2013  15:34:00     -471.370     -118.037       -3.274      254.803      195.655      106.774    64924.701    38280.855    11400.707       17.535        5.730      485.924      109.296        0.051      347.774       26.983      863.584
05/13/2013  15:35:00     -420.116     -123.633       -1.910      212.119      173.142      102.565    44994.435    29978.105    10519.629       13.862        4.275      437.930      109.070        0.062      347.578       26.646      863.600
05/13/2013  15:36:00     -537.382     -129.760       -9.760      220.092      149.417       89.812    48440.346    22325.439     8066.207       19.226        3.942      552.827       98.909        0.032      347.489       26.489      863.559
05/13/2013  15:37:00     -313.183     -134.010      -17.839      189.694      166.194       79.768    35983.894    27620.447     6363.002        9.315        3.498      340.650       86.367        0.064      347.800       27.029      863.550
05/13/2013  15:38:00     -309.051     -132.001        6.449      289.389      170.922      103.505    83745.875    29214.401    10713.265       11.831        6.184      336.061      134.208        0.159      347.936       27.262      863.521
05/13/2013  15:39:00     -390.698     -277.341        1.203      258.294      186.735      108.769    66715.651    34870.080    11830.744       17.147        5.671      479.127      122.555        0.065      347.776       26.987      863.486
05/13/2013  15:40:00     -477.678     -175.538      -28.871      249.088      196.907      103.064    62044.874    38772.306    10622.236       18.561        5.572      508.910      113.623        0.050      347.756       26.952      863.482
05/13/2013  15:41:00     -655.229      -76.411      -22.264      249.299      204.161      121.109    62149.847    41681.533    14667.323       27.706        5.925      659.669      134.215        0.041      347.634       26.743      863.502
05/13/2013  15:42:00     -450.982     -195.702       -8.752      215.531      169.004       80.614    46453.420    28562.344     6498.628       16.162        4.076      491.614       80.670        0.027      347.809       27.045      863.487
05/13/2013  15:43:00     -326.070     -126.183       -1.744      235.951      175.009       94.745    55673.062    30628.091     8976.545       10.875        4.764      349.634      108.099        0.096      348.062       27.482      863.500
05/13/2013  15:44:00     -481.986     -166.566      -14.012      296.833      191.854      118.948    88109.616    36808.079    14148.722       19.964        6.953      509.955      145.741        0.082      347.735       26.917      863.478
05/13/2013  15:45:00     -413.758     -189.338       -9.972      216.031      182.152       82.421    46669.600    33179.281     6793.236       14.688        4.332      455.021       84.480        0.034      347.417       26.368      863.448
05/13/2013  15:46:00     -286.499     -252.427        6.078      266.617      166.773       99.252    71084.360    27813.295     9851.034       12.728        5.437      381.839      112.477        0.087      347.619       26.717      863.436
05/13/2013  15:47:00     -571.352     -298.369       -5.247      319.272      194.238      116.406   101934.809    37728.266    13550.307       28.433        7.661      644.567      140.283        0.047      347.568       26.628      863.413
05/13/2013  15:48:00     -460.910     -335.039      -16.711      223.179      195.501      106.869    49808.666    38220.478    11421.042       21.219        4.973      569.815      114.691        0.041      347.531       26.563      863.422
05/13/2013  15:49:00     -384.416     -152.845      -10.519      206.371      223.423       89.684    42588.922    49917.728     8043.199       13.588        5.027      413.687       92.272        0.050      347.643       26.757      863.439
05/13/2013  15:50:00     -355.014      -44.224       13.374      226.546      127.401       76.042    51323.080    16230.963     5782.454       10.074        3.667      357.758       95.045        0.071      347.687       26.834      863.444
05/13/2013  15:51:00     -502.123     -168.776      -10.948      200.746      157.171       81.717    40298.953    24702.792     6677.693       17.619        3.584      529.729       94.623        0.032      347.730       26.906      863.407
05/13/2013  15:52:00     -509.408     -292.304       -4.651      258.199      201.508      114.849    66666.694    40605.294    13190.202       23.269        6.023      587.314      114.503        0.038      347.654       26.776      863.429
05/13/2013  15:53:00     -429.869     -294.739        3.291      261.979      170.084      103.701    68632.867    28928.631    10753.964       18.997        5.416      521.208      110.965        0.045      347.481       26.479      863.409
05/13/2013  15:54:00     -297.206     -269.211      -29.280      145.734      119.511       67.592    21238.436    14282.865     4568.659       10.087        2.004      401.006       70.222        0.031      347.345       26.243      863.400
05/13/2013  15:55:00     -222.319     -157.702       15.745      221.367      224.357       91.086    49003.348    50335.938     8296.652        9.107        5.382      272.572       93.281        0.117      347.730       26.907      863.409
05/13/2013  15:56:00     -427.291     -189.887       12.350      278.709      187.241      112.505    77678.971    35059.113    12657.451       17.207        6.270      467.584      139.032        0.088      347.715       26.882      863.463
05/13/2013  15:57:00     -520.144     -131.068      -43.430      192.877      143.845       77.658    37201.472    20691.433     6030.760       17.676        3.196      536.403       73.694        0.019      347.574       26.638      863.469
05/13/2013  15:58:00     -410.250     -150.864      -18.015      147.331      124.196       73.757    21706.349    15424.764     5440.060       11.697        2.129      437.110       65.387        0.022      347.575       26.640      863.435
05/13/2013  15:59:00     -230.442     -141.027        1.553      189.025      128.294       79.851    35730.290    16459.375     6376.113        6.577        2.928      270.171       89.658        0.110      347.621       26.720      863.436
05/13/2013  16:00:00     -185.233     -103.355        8.096      131.078      102.561       56.813    17181.461    10518.751     3227.671        3.799        1.546      212.117       63.129        0.089      347.807       27.040      863.411
05/13/2013  16:01:00     -517.402      -76.917      -42.042      222.119      182.538       65.230    49336.878    33320.185     4254.979       18.114        4.346      523.088       64.646        0.015      347.745       26.933      863.375
05/13/2013  16:02:00     -416.590      -71.723      -17.360      180.062      158.615       74.112    32422.368    25158.663     5492.583       12.102        3.154      422.719       73.480        0.030      347.761       26.960      863.368
05/13/2013  16:03:00     -403.246     -204.624      -12.357      271.343      138.241       88.472    73627.249    19110.445     7827.247       15.258        5.028      452.193      106.062        0.055      347.787       27.005      863.349
05/13/2013  16:04:00     -551.098     -178.535      -11.579      245.703      189.431      109.053    60369.842    35883.954    11892.595       22.191        5.407      579.296      124.216        0.046      347.543       26.585      863.324
05/13/2013  16:05:00     -554.202      -86.222      -46.271      205.842      194.973      105.395    42370.945    38014.555    11108.138       20.409        4.575      560.869       89.420        0.025      347.540       26.580      863.282
05/13/2013  16:06:00     -502.008     -213.948      -28.976      251.985      171.444      103.355    63496.415    29393.019    10682.355       20.108        5.179      545.698      118.689        0.047      347.666       26.796      863.225
05/13/2013  16:07:00     -345.935      -99.159       -1.425      199.364      157.045       88.885    39746.185    24663.148     7900.525       10.090        3.615      359.866      101.448        0.079      347.779       26.992      863.227
05/13/2013  16:08:00     -254.576      -70.507       16.798      160.839      152.391       70.824    25869.336    23223.081     5016.035        6.208        2.705      264.159       88.311        0.112      348.021       27.411      863.199
05/13/2013  16:09:00     -370.152     -106.730      -13.335      164.791      112.788       81.176    27156.080    12721.211     6589.550        9.752        2.323      385.232       93.638        0.059      348.001       27.374      863.216
05/13/2013  16:10:00     -292.369      -94.019       -1.155      199.169      129.475       77.784    39668.256    16763.670     6050.293        7.839        3.124      307.115       84.513        0.076      348.088       27.525      863.179
05/13/2013  16:11:00     -481.774     -194.453      -24.961      258.856      167.544      120.058    67006.610    28071.033    14413.990       19.000        5.475      519.536      122.471        0.056      347.669       26.802      863.121
05/13/2013  16:12:00     -200.454     -129.009       12.520      261.258      169.610      104.524    68255.799    28767.623    10925.368        8.245        5.397      238.380      132.941        0.311      347.943       27.277      863.148
05/13/2013  16:13:00     -308.800     -183.902       -8.463      178.204      161.518       82.691    31756.488    26087.961     6837.879        9.695        3.234      359.413       98.473        0.075      347.825       27.072      863.208
05/13/2013  16:14:00     -244.713     -138.870       22.896      235.235      187.664       91.079    55335.659    35217.731     8295.446        8.925        4.942      281.370      108.146        0.148      347.650       26.770      863.104
05/13/2013  16:15:00     -407.600     -244.720       -7.464      254.829      187.260      114.126    64937.816    35066.484    13024.809       16.954        5.651      475.421      135.173        0.081      347.574       26.638      863.112
05/13/2013  16:16:00     -236.850      -58.588       20.026      238.987      185.352      100.495    57115.012    34355.402    10099.311        8.073        5.078      243.989      125.741        0.266      347.923       27.242      863.124
05/13/2013  16:17:00     -378.155     -197.331      -19.044      240.479      230.943       94.204    57829.953    53334.460     8874.301       15.115        6.002      426.545      107.395        0.063      347.620       26.718      863.089
05/13/2013  16:18:00     -456.595     -101.736      -35.794      190.833      182.372       83.311    36417.184    33259.617     6940.729       14.835        3.831      467.792       71.840        0.024      347.794       27.018      863.103
05/13/2013  16:19:00     -653.101      -78.595      -35.324      245.751      170.826       95.411    60393.679    29181.641     9103.321       26.631        4.934      657.813      110.325        0.028      347.716       26.881      863.097
05/13/2013  16:20:00     -442.997     -154.311       -8.741      207.389      167.295       89.704    43010.039    27987.720     8046.751       14.958        3.952      469.104       96.828        0.043      347.828       27.076      863.107
05/13/2013  16:21:00     -307.815      -73.659       17.399      184.173      178.097      107.082    33919.529    31718.625    11466.466        8.878        3.855      316.506      101.837        0.104      347.865       27.141      863.126
05/13/2013  16:22:00     -381.986     -119.602        9.745      210.601      210.967      105.973    44352.732    44507.146    11230.346       13.018        5.005      400.272      120.807        0.091      347.686       26.832      863.151
05/13/2013  16:23:00     -324.654     -209.553        3.672      212.953      173.577      107.721    45349.048    30128.890    11603.894       11.819        4.354      386.410      121.051        0.098      347.615       26.707      863.170
05/13/2013  16:24:00     -356.584      -41.393      -21.328      154.029      152.195       73.854    23725.037    23163.285     5454.459        9.082        2.617      358.978       67.467        0.035      347.682       26.823      863.156
05/13/2013  16:25:00     -272.782     -189.854      -11.405      152.042      151.432       73.048    23116.789    22931.746     5336.060        8.098        2.569      332.347       80.872        0.059      347.637       26.747      863.131
05/13/2013  16:26:00     -382.843      -48.398      -32.283      152.554      150.948       64.382    23272.584    22785.340     4145.045       10.007        2.510      385.890       61.399        0.025      347.739       26.922      863.126
05/13/2013  16:27:00     -129.344      -54.799        9.219      135.632      106.921       50.765    18396.032    11432.080     2577.080        2.611        1.620      140.474       53.768        0.147      348.044       27.451      863.138
05/13/2013  16:28:00     -109.321     -106.016        9.494      148.773      102.460       67.115    22133.329    10498.104     4504.359        3.020        1.857      152.284       76.935        0.255      347.894       27.192      863.108
05/13/2013  16:29:00     -211.585     -187.790       10.301      161.884      126.067       73.948    26206.545    15892.813     5468.304        6.385        2.378      282.901       95.360        0.114      347.819       27.061      863.121
05/13/2013  16:30:00     -333.885     -204.434        4.030      186.628      158.403       86.599    34830.137    25091.537     7499.319       11.034        3.371      391.500       98.226        0.063      347.800       27.028      863.100
05/13/2013  16:31:00     -508.434     -196.742      -25.726      319.357      161.944       99.019   101988.775    26225.791     9804.716       21.792        6.901      545.172      135.492        0.062      347.822       27.067      863.113
05/13/2013  16:32:00     -392.176     -175.785       -5.270      233.550      171.935      102.870    54545.496    29561.619    10582.297       13.969        4.734      429.771      127.328        0.088      347.707       26.868      863.168
05/13/2013  16:33:00     -436.181      -47.181      -20.492      242.587      188.662       81.954    58848.559    35593.285     6716.473       14.701        5.058      438.726       95.565        0.047      347.567       26.627      863.160
05/13/2013  16:34:00     -429.326     -228.614      -16.718      235.193      203.174      101.669    55315.594    41279.660    10336.670       17.188        5.347      486.401      110.553        0.052      347.618       26.713      863.122
05/13/2013  16:35:00     -422.476     -331.275       -2.749      202.737      158.910      100.972    41102.158    25252.391    10195.314       18.238        3.827      536.869      120.164        0.050      347.480       26.476      863.160
05/13/2013  16:36:00     -308.555     -149.767      -12.838      178.937      105.465       68.111    32018.361    11122.867     4639.057        8.278        2.389      342.982       76.093        0.049      347.547       26.591      863.124
05/13/2013  16:37:00     -237.332     -109.030      -15.423      130.763       78.063       49.614    17099.055     6093.894     2461.538        4.705        1.283      261.178       59.787        0.052      347.551       26.598      863.096
05/13/2013  16:38:00     -244.638     -167.454       -5.211      151.780      155.724       74.451    23037.198    24250.057     5542.954        7.036        2.642      296.460       73.977        0.062      347.758       26.957      863.060
05/13/2013  16:39:00     -343.760      -42.806      -13.302      220.884      139.528       85.571    48789.755    19468.087     7322.475        9.787        3.779      346.415       94.123        0.074      347.763       26.966      863.026
05/13/2013  16:40:00     -295.412     -166.392       -0.022      158.537      153.212       77.287    25134.103    23473.870     5973.352        8.476        2.729      339.050       66.506        0.038      347.740       26.925      863.065
05/13/2013  16:41:00     -317.999      -43.004      -18.017      135.981      148.757       61.301    18490.838    22128.622     3757.851        7.383        2.219      320.893       51.443        0.026      347.874       27.155      863.052
05/13/2013  16:42:00     -602.058     -134.571      -30.138      305.967      215.108      104.119    93615.701    46271.410    10840.663       26.608        7.536      616.914      122.342        0.039      347.625       26.726      863.020
05/13/2013  16:43:00     -453.593     -154.254      -12.061      228.976      262.508      106.524    52429.970    68910.245    11347.461       18.117        6.634      479.105      121.147        0.064      347.562       26.619      863.045
05/13/2013  16:44:00     -355.411     -220.258      -35.557      269.994      163.942      113.703    72896.537    26877.009    12928.425       14.438        5.635      418.128      117.906        0.080      347.528       26.558      863.087
05/13/2013  16:45:00     -360.803     -136.645       11.512      268.699      188.991       91.951    72199.006    35717.734     8455.000       13.266        5.819      385.811      113.350        0.086      347.383       26.309      863.079
05/13/2013  16:46:00     -415.967      -51.242      -25.711      228.218      129.631       69.882    52083.411    16804.147     4883.459       12.503        3.689      419.111       99.313        0.056      347.447       26.419      863.087
05/13/2013  16:47:00     -330.791       94.785      -12.262      139.153       99.939       63.470    19363.477     9987.764     4028.411        7.596        1.669      344.103       61.177        0.032      347.356       26.263      863.012
05/13/2013  16:48:00     -320.259     -112.666       -4.390      176.847      116.134       75.070    31274.866    13487.018     5635.578        8.283        2.520      339.499       84.746        0.062      347.555       26.606      863.017
05/13/2013  16:49:00     -234.898     -104.574        6.348      250.270      153.174       82.968    62635.044    23462.229     6883.700        7.955        4.649      257.124      110.317        0.184      347.551       26.599      863.012
05/13/2013  16:50:00     -146.976       -9.618       13.665      125.836       93.839       52.149    15834.759     8805.720     2719.522        2.462        1.368      147.290       51.798        0.124      347.862       27.137      863.007
05/13/2013  16:51:00     -415.700     -108.846        4.530      257.844      196.336       89.671    66483.437    38547.929     8040.873       14.885        5.654      429.714      110.848        0.067      347.678       26.818      863.017
05/13/2013  16:52:00     -590.607     -197.630      -26.764      260.576      193.302      120.193    67899.652    37365.495    14446.400       25.413        5.986      622.796      136.222        0.048      347.491       26.494      862.985
05/13/2013  16:53:00     -582.218      -40.663      -21.730      214.629      149.192       92.436    46065.554    22258.220     8544.407       20.897        3.843      583.637       98.765        0.029      347.502       26.513      862.989
05/13/2013  16:54:00     -469.113     -156.687      -39.309      228.306      155.510       86.344    52123.556    24183.312     7455.319       16.495        4.188      494.589      101.761        0.042      347.406       26.349      862.995
05/13/2013  16:55:00     -382.623     -272.347        0.269      182.360      157.530       92.053    33255.222    24815.590     8473.803       14.355        3.327      469.653       95.071        0.041      347.713       26.878      862.969
05/13/2013  16:56:00     -355.185      -98.865      -16.214      209.134      145.038       74.040    43736.918    21036.008     5481.887       10.321        3.513      368.688       80.396        0.048      347.808       27.043      863.014
05/13/2013  16:57:00     -335.840      -52.176       -3.663      198.002      128.612       81.764    39204.970    16541.084     6685.330        8.897        3.122      339.869       94.958        0.078      347.487       26.488      863.018
05/13/2013  16:58:00     -191.099      -95.890       15.550      161.882      102.085       72.959    26205.635    10421.438     5323.061        4.395        2.098      213.808       77.421        0.131      347.578       26.648      862.985
05/13/2013  16:59:00     -277.600     -184.586       -5.182      184.300      123.513       80.011    33966.317    15255.545     6401.705        8.338        2.781      333.367       97.680        0.086      347.481       26.478      862.951
05/13/2013  17:00:00     -210.638     -109.865        3.444      140.428       90.978       61.741    19720.097     8277.016     3811.984        4.412        1.590      237.569       58.451        0.061      347.697       26.851      862.951
05/13/2013  17:01:00     -400.268     -129.120      -29.416      157.123      149.911       83.806    24687.600    22473.305     7023.427       11.596        2.709      420.579       79.006        0.035      347.777       26.988      862.947
05/13/2013  17:02:00     -296.053      -96.539       -8.396      180.678      159.406       75.079    32644.414    25410.168     5636.800        8.035        3.185      311.395       79.384        0.065      347.614       26.708      862.907
05/13/2013  17:03:00     -330.729     -146.182       12.291      275.898      142.658       82.951    76119.493    20351.294     6880.861       11.711        5.168      361.595      103.912        0.083      347.722       26.895      862.916
05/13/2013  17:04:00     -577.026     -333.963      -25.640      228.356      162.290       99.152    52146.395    26337.926     9831.066       26.672        4.416      666.701      108.450        0.026      347.422       26.377      862.883
05/13/2013  17:05:00     -231.448     -113.306       -0.887      173.930      181.618       77.173    30251.794    32985.137     5955.626        6.779        3.460      257.694       90.402        0.123      347.476       26.471      862.883
05/13/2013  17:06:00     -392.334      -92.376       -9.558      194.240      116.889       64.729    37729.338    13663.150     4189.851       10.906        2.779      403.063       77.641        0.037      347.605       26.693      862.860
05/13/2013  17:07:00     -449.623      -56.430      -29.771      186.757      132.199       81.684    34878.181    17476.502     6672.242       13.262        2.951      453.150       99.641        0.048      347.565       26.623      862.841
05/13/2013  17:08:00     -352.007     -127.634        1.602      167.589       96.169       70.899    28085.968     9248.480     5026.615        9.127        2.118      374.432       80.477        0.046      347.632       26.740      862.823
05/13/2013  17:09:00     -508.158     -160.040      -34.697      212.570      181.258       93.823    45185.966    32854.457     8802.687       18.593        4.342      532.764       91.813        0.030      347.611       26.701      862.830
05/13/2013  17:10:00     -431.704     -136.821       -0.146      201.883      212.751       86.586    40756.921    45263.050     7497.217       14.929        4.676      452.867       93.112        0.042      347.308       26.179      862.808
05/13/2013  17:11:00     -542.104      -35.811      -46.034      171.926      149.262       79.593    29558.392    22279.101     6335.021       17.772        2.909      543.286       79.383        0.021      347.310       26.184      862.788
05/13/2013  17:12:00     -574.791       33.131      -47.898      195.957      182.083       73.149    38398.963    33154.220     5350.754       20.533        3.845      575.745       65.259        0.013      347.426       26.383      862.735
05/13/2013  17:13:00     -556.793      -95.122      -15.075      297.122      237.331      118.880    88281.698    56326.178    14132.536       23.899        7.937      564.860      140.874        0.062      347.568       26.628      862.657
05/13/2013  17:14:00     -675.185      -78.296      -28.718      296.497      205.928      116.266    87910.718    42406.462    13517.788       30.331        7.192      679.710      132.448        0.038      347.523       26.549      862.678
05/13/2013  17:15:00     -534.517      -78.577      -18.948      215.549      199.992       93.731    46461.280    39996.959     8785.452       19.373        4.762      540.261       89.448        0.027      347.510       26.528      862.711
05/13/2013  17:16:00     -444.847       38.798      -31.557      255.154      161.875       88.933    65103.404    26203.493     7909.025       14.979        4.961      446.536      102.850        0.053      347.513       26.533      862.728
05/13/2013  17:17:00     -505.101     -249.738       -7.859      241.035      195.174       97.614    58097.796    38092.831     9528.582       21.162        5.286      563.468      111.945        0.039      347.374       26.294      862.721
05/13/2013  17:18:00     -466.931     -297.450       -7.701      287.431      238.813      137.923    82616.612    57031.456    19022.872       23.259        7.934      553.626      159.614        0.083      347.362       26.274      862.727
05/13/2013  17:19:00     -492.551      -52.372      -13.912      198.469      158.144       84.473    39390.003    25009.474     7135.630       15.853        3.577      495.328       85.746        0.030      347.324       26.207      862.748
05/13/2013  17:20:00     -349.906      -92.023      -21.301      139.125      115.032       56.344    19355.716    13232.309     3174.691        8.355        1.788      361.804       63.374        0.031      347.323       26.206      862.752
05/13/2013  17:21:00     -447.304      -81.747      -23.246      158.892      157.940       68.203    25246.765    24945.196     4651.664       13.106        2.742      454.712       66.501        0.021      347.366       26.280      862.717
05/13/2013  17:22:00     -375.103     -198.385      -15.279      157.903      130.535       68.814    24933.250    17039.421     4735.362       11.349        2.335      424.333       73.395        0.030      347.316       26.193      862.702
05/13/2013  17:23:00     -318.225     -182.765       -5.723      192.265      171.031       81.949    36965.974    29251.625     6715.717       10.381        3.647      366.974       90.536        0.061      347.464       26.448      862.711
05/13/2013  17:24:00     -284.051     -226.645      -11.099      170.315      137.883       77.116    29007.191    19011.599     5946.896        9.306        2.698      363.391       85.402        0.055      347.283       26.138      862.683
05/13/2013  17:25:00     -372.761     -245.951      -14.958      241.994      149.721       82.665    58561.050    22416.475     6833.543       14.372        4.391      446.590       98.716        0.049      347.373       26.293      862.628
05/13/2013  17:26:00     -441.816     -202.080       -6.746      245.562      188.343      102.192    60300.596    35472.905    10443.221       17.113        5.311      485.837      107.558        0.049      347.521       26.547      862.624
05/13/2013  17:27:00     -567.726     -324.301      -11.346      297.362      262.446      144.779    88423.913    68877.894    20961.072       30.291        8.913      653.823      154.259        0.056      347.248       26.076      862.582
05/13/2013  17:28:00     -477.670     -314.322      -14.597      257.957      219.170      115.855    66541.751    48035.348    13422.374       22.757        6.400      571.810      126.673        0.049      347.280       26.131      862.557
05/13/2013  17:29:00     -487.899     -242.323       -7.961      292.708      206.921       97.497    85677.830    42816.266     9505.568       21.739        6.900      544.762      129.384        0.056      347.270       26.114      862.605
05/13/2013  17:30:00     -434.701     -226.137      -16.642      245.099      196.606       80.606    60073.434    38653.734     6497.289       17.278        5.261      490.003       99.049        0.041      347.272       26.117      862.608
05/13/2013  17:31:00     -179.007     -104.640       19.838      148.512      129.683       73.782    22055.731    16817.786     5443.726        4.384        2.216      207.348       81.570        0.155      347.469       26.459      862.581
05/13/2013  17:32:00     -197.040      -94.272       -3.375      132.371      111.691       59.877    17522.080    12474.829     3585.288        4.065        1.679      218.431       64.070        0.086      347.556       26.609      862.570
05/13/2013  17:33:00     -311.797      -37.557       -0.976      214.741      125.199       94.705    46113.886    15674.750     8968.997        8.468        3.538      314.051      103.712        0.109      347.562       26.619      862.548
05/13/2013  17:34:00     -232.757     -126.269       12.924      193.614      160.153       92.191    37486.220    25648.874     8499.128        7.095        3.582      264.802      102.005        0.148      347.578       26.645      862.521
05/13/2013  17:35:00     -439.847      -80.757       -3.266      212.806      153.708       79.036    45286.531    23626.093     6246.657       13.757        3.758      447.199       96.067        0.046      347.573       26.638      862.530
05/13/2013  17:36:00     -559.001     -196.532      -12.756      144.283      141.857       74.651    20817.705    20123.369     5572.774       19.888        2.326      592.543       72.588        0.015      347.194       25.983      862.490
05/13/2013  17:37:00     -279.842     -162.624        8.502      176.662      174.050       75.829    31209.567    30293.483     5750.034        8.603        3.363      323.663       91.831        0.080      347.407       26.350      862.484
05/13/2013  17:38:00     -300.843     -176.553        2.336      185.792      111.160       86.058    34518.828    12356.467     7405.973        8.797        2.714      348.822       80.258        0.053      347.484       26.484      862.468
05/13/2013  17:39:00     -228.907     -205.109       12.330      181.986      142.611       78.070    33118.970    20337.824     6094.932        7.708        2.978      307.356       91.974        0.090      347.522       26.549      862.456
05/13/2013  17:40:00     -238.462     -207.747       16.208      236.099      174.827      123.919    55742.877    30564.359    15356.030       10.096        5.083      316.264      118.699        0.141      347.451       26.426      862.438
05/13/2013  17:41:00     -538.737     -239.816      -21.504      283.688      182.741      112.832    80478.811    33394.346    12731.021       23.739        6.330      589.703      146.543        0.062      347.262       26.101      862.406
05/13/2013  17:42:00     -451.576     -246.593       -6.215      228.638      188.548      105.950    52275.417    35550.459    11225.324       18.189        4.953      514.518      107.714        0.044      347.280       26.132      862.439
05/13/2013  17:43:00     -258.965      -79.998        4.934      209.710      179.452       81.947    43978.124    32202.898     6715.332        7.818        4.145      271.040      101.870        0.141      347.407       26.350      862.444
05/13/2013  17:44:00     -472.303     -155.146      -14.510      216.227      196.907      101.530    46754.069    38772.273    10308.374       17.158        4.792      497.132      105.739        0.045      347.329       26.217      862.440
05/13/2013  17:45:00     -313.070     -139.615        0.728      197.764      167.834       83.392    39110.645    28168.409     6954.286        9.586        3.712      342.790      104.681        0.093      347.309       26.182      862.427
05/13/2013  17:46:00     -406.312      -17.502      -20.238      170.621      134.091       62.621    29111.568    17980.512     3921.400       10.840        2.551      406.688       66.451        0.027      347.295       26.158      862.378
05/13/2013  17:47:00     -385.047       -6.331      -17.974      194.075      188.336       95.770    37665.284    35470.497     9171.816       11.545        4.115      385.099      109.061        0.080      347.298       26.163      862.321
05/13/2013  17:48:00     -260.659     -161.289       11.473      182.775      159.938       97.540    33406.798    25580.122     9514.046        8.128        3.425      306.525       84.074        0.075      347.468       26.455      862.311
05/13/2013  17:49:00     -266.055     -152.411      -17.078      175.361      110.068       77.813    30751.438    12114.895     6054.807        7.161        2.446      306.617       79.250        0.067      347.439       26.405      862.333
05/13/2013  17:50:00     -305.841     -143.608      -28.112      139.813      123.334       63.777    19547.557    15211.200     4067.530        7.688        1.941      337.879       62.800        0.035      347.427       26.383      862.333
05/13/2013  17:51:00     -204.706       -7.519       18.196      184.749      105.916       64.253    34132.234    11218.107     4128.453        4.588        2.474      204.845       82.006        0.160      347.523       26.553      862.327
05/13/2013  17:52:00     -250.384     -220.017       -6.478      193.372      138.521       73.064    37392.550    19187.948     5338.295        8.652        3.096      333.316       69.265        0.043      347.497       26.506      862.323
05/13/2013  17:53:00     -272.753     -209.147      -12.467      163.289      154.951       75.892    26663.311    24009.742     5759.562        8.735        2.822      343.710       78.936        0.053      347.420       26.373      862.314
05/13/2013  17:54:00     -213.475     -124.716       -7.044      128.698      103.425       63.882    16563.121    10696.640     4080.923        4.625        1.567      247.236       58.094        0.055      347.524       26.552      862.291
05/13/2013  17:55:00     -133.860     -160.081       14.353      169.273      134.807       97.447    28653.424    18172.845     9495.999        5.003        2.816      208.673      101.121        0.235      347.463       26.448      862.296
05/13/2013  17:56:00     -285.144     -220.213      -10.624      209.134      161.472       78.571    43736.841    26073.292     6173.411       10.294        3.799      360.279       75.585        0.044      347.409       26.354      862.284
05/13/2013  17:57:00     -254.953     -111.192       -8.965      179.343      115.258       73.833    32163.908    13284.403     5451.244        6.416        2.545      278.145       68.779        0.061      347.384       26.310      862.266
05/13/2013  17:58:00     -380.992     -224.702      -14.894      146.416      149.018       78.748    21437.670    22206.314     6201.290       12.285        2.492      442.319       72.517        0.027      347.343       26.239      862.223
05/13/2013  17:59:00     -348.102     -166.732       -7.759      195.836      130.389       65.909    38351.894    17001.165     4344.028       10.436        2.985      385.972       69.416        0.032      347.341       26.236      862.223
05/13/2013  18:00:00     -476.659     -178.290      -42.381      236.078      238.092      103.600    55732.882    56687.588    10732.989       19.195        6.158      508.911      102.001        0.040      347.155       25.917      862.193
05/13/2013  18:01:00     -295.631     -198.599        4.461      234.654      194.234       88.630    55062.627    37726.913     7855.344       11.374        5.032      356.145       99.825        0.079      347.318       26.198      862.222
05/13/2013  18:02:00     -417.992     -316.269      -16.149      246.541      158.698       99.047    60782.242    25185.023     9810.389       18.537        4.789      524.159      121.283        0.054      347.103       25.827      862.227
05/13/2013  18:03:00     -289.913     -198.678      -16.372      182.417      163.038       95.327    33275.821    26581.298     9087.254        9.636        3.447      351.458       99.578        0.080      347.197       25.989      862.210
05/13/2013  18:04:00     -205.837     -289.353       -8.965      120.928      150.417       58.696    14623.463    22625.340     3445.175        8.343        2.035      355.097       55.674        0.025      347.273       26.118      862.241
05/13/2013  18:05:00     -177.709     -158.891       -0.274      145.409      103.533       67.178    21143.839    10719.005     4512.823        4.660        1.819      238.384       87.161        0.134      347.391       26.323      862.222
05/13/2013  18:06:00     -201.077     -130.455        9.076      141.991      100.344       61.823    20161.398    10068.848     3822.039        4.579        1.703      239.689       73.074        0.093      347.412       26.357      862.233
05/13/2013  18:07:00     -337.910     -290.383        0.407      201.648      179.043      107.540    40662.090    32056.220    11564.879       14.138        4.214      445.539      118.956        0.071      347.233       26.051      862.235
05/13/2013  18:08:00     -317.527     -181.019       -0.097      234.840      155.055       84.004    55149.733    24042.083     7056.708       10.991        4.312      365.502       95.941        0.069      347.235       26.054      862.213
05/13/2013  18:09:00     -366.894     -135.598       -1.263      214.465      180.860       88.352    45995.039    32710.395     7806.108       11.974        4.326      391.150      107.115        0.075      347.240       26.062      862.246
05/13/2013  18:10:00     -245.084     -177.948      -12.164      188.336      174.807      106.465    35470.525    30557.399    11334.741        8.461        3.868      302.872       98.314        0.105      347.182       25.963      862.249
05/13/2013  18:11:00     -395.283     -262.123      -25.970      178.838      129.223       91.027    31982.864    16698.551     8285.933       14.129        2.848      474.296       86.919        0.034      347.192       25.979      862.253
05/13/2013  18:12:00     -416.569     -258.633       -6.606      201.965      135.951       82.864    40789.739    18482.648     6866.503       15.329        3.307      490.328       81.961        0.028      347.119       25.854      862.273
05/13/2013  18:13:00     -269.668     -211.539       -1.941      152.369      119.587       86.625    23216.194    14301.042     7503.867        8.124        2.251      342.738       82.259        0.058      347.117       25.850      862.228
05/13/2013  18:14:00     -300.607     -114.535      -23.725      137.692      146.606       59.793    18959.163    21493.379     3575.245        7.403        2.201      321.687       51.488        0.026      347.260       26.096      862.240
05/13/2013  18:15:00     -350.525     -128.617        2.608      257.652      162.632       78.579    66384.630    26449.131     6174.639       11.920        4.950      373.376      108.092        0.084      347.211       26.013      862.228
05/13/2013  18:16:00     -263.688     -135.319       -0.115      167.000      124.715       65.169    27889.133    15553.904     4247.016        6.776        2.385      296.383       73.462        0.061      347.246       26.074      862.250
05/13/2013  18:17:00     -202.758     -149.174        9.491      155.499      133.997       69.828    24179.787    17955.234     4875.946        5.522        2.351      251.722       62.840        0.062      347.322       26.203      862.258
05/13/2013  18:18:00     -202.631     -208.390        3.576      153.972      137.599       80.529    23707.526    18933.541     6484.993        6.680        2.456      290.665       83.697        0.083      347.288       26.145      862.265
05/13/2013  18:19:00     -200.907     -123.133       10.100      128.933      120.714       61.197    16623.762    14571.921     3745.020        4.528        1.747      235.638       57.504        0.060      347.400       26.339      862.276
05/13/2013  18:20:00     -272.313     -216.788        0.442      171.083      127.682       80.592    29269.529    16302.568     6495.125        8.660        2.603      348.068       86.271        0.061      347.256       26.089      862.254
05/13/2013  18:21:00     -412.421     -256.237      -12.484      226.132      171.700       99.287    51135.847    29480.734     9857.908       16.317        4.524      485.539      111.735        0.053      347.200       25.994      862.252
05/13/2013  18:22:00     -269.058     -189.851        9.515      258.181      195.844      113.189    66657.571    38354.805    12811.656       11.316        5.891      329.296      143.720        0.190      347.149       25.906      862.257
05/13/2013  18:23:00     -459.752      -97.817       -8.887      230.908      122.340       92.963    53318.535    14967.053     8642.071       14.896        3.846      470.043      114.342        0.059      347.047       25.730      862.276
05/13/2013  18:24:00     -423.196     -229.470      -25.665      152.239      125.371       78.248    23176.699    15718.002     6122.720       13.871        2.251      481.406       82.862        0.030      347.084       25.792      862.282
05/13/2013  18:25:00     -372.499      -72.219      -18.608      205.943      125.875       77.879    42412.439    15844.526     6065.148       10.431        3.216      379.435       90.945        0.057      347.154       25.915      862.280
05/13/2013  18:26:00     -277.746      -77.566       -3.898      171.835       97.726       70.051    29527.133     9550.389     4907.116        6.357        2.199      288.374       82.559        0.082      347.253       26.086      862.280
05/13/2013  18:27:00     -318.246     -225.031        1.547      152.714      138.077       72.392    23321.548    19065.277     5240.632        9.977        2.381      389.769       75.463        0.037      347.123       25.862      862.270
05/13/2013  18:28:00     -306.301     -213.167      -12.104      188.036      142.722       83.858    35357.480    20369.695     7032.133       10.107        3.138      373.176       95.555        0.066      347.098       25.817      862.217
05/13/2013  18:29:00     -190.606     -157.995       -6.094      140.047      117.827       63.500    19613.063    13883.126     4032.264        4.942        1.876      247.574       58.297        0.055      347.236       26.058      862.210
05/13/2013  18:30:00     -445.017     -239.849      -25.719      193.574      176.896       86.274    37471.009    31292.305     7443.180       16.621        3.810      505.537       96.744        0.037      347.083       25.792      862.192
05/13/2013  18:31:00     -398.484     -120.043       -4.198      219.728      166.145      104.838    48280.561    27604.238    10991.109       13.003        4.344      416.173      123.124        0.088      347.076       25.780      862.173
05/13/2013  18:32:00     -424.259     -205.055        0.005      287.273      247.373       93.882    82526.026    61193.518     8813.749       18.726        7.627      471.214      122.952        0.068      347.045       25.726      862.176
05/13/2013  18:33:00     -409.211     -304.305       -4.392      191.636      224.030       89.176    36724.223    50189.399     7952.366       17.745        4.743      509.956       95.922        0.035      346.970       25.597      862.183
05/13/2013  18:34:00     -519.767     -358.808      -19.875      248.691      171.817      101.831    61847.140    29521.211    10369.517       25.050        5.087      631.586      109.597        0.030      346.932       25.530      862.160
05/13/2013  18:35:00     -469.321     -393.104      -17.965      228.067      185.338      105.668    52014.385    34350.192    11165.739       23.631        4.877      612.203      119.703        0.038      346.932       25.530      862.171
05/13/2013  18:36:00     -456.785     -428.520       -8.460      227.843      184.833      114.186    51912.653    34163.363    13038.398       24.572        4.956      626.324      129.069        0.042      346.961       25.581      862.173
05/13/2013  18:37:00     -406.830     -156.077        3.504      208.010      142.086       82.802    43268.113    20188.564     6856.128       13.009        3.516      435.742       91.180        0.044      346.984       25.622      862.202
05/13/2013  18:38:00     -340.229     -250.737      -16.926      221.775      151.319       96.079    49184.309    22897.500     9231.207       13.010        4.066      422.640      109.555        0.067      346.966       25.591      862.220
05/13/2013  18:39:00     -425.751        0.991      -41.045      114.429      120.827       68.784    13093.926    14599.208     4731.270       10.768        1.621      425.752       64.010        0.023      347.024       25.689      862.149
05/13/2013  18:40:00     -351.426     -104.272      -15.738      140.515      106.408       58.071    19744.408    11322.598     3372.214        8.452        1.722      366.569       63.356        0.030      346.964       25.588      862.139
05/13/2013  18:41:00     -274.812     -130.137       -8.362      154.371       84.321       58.641    23830.257     7110.102     3438.713        6.345        1.719      304.068       63.317        0.043      346.951       25.566      862.176
05/13/2013  18:42:00     -239.490     -167.287        3.621      166.902      102.450       72.819    27856.255    10495.907     5302.616        6.450        2.183      292.130       94.015        0.104      347.046       25.728      862.156
05/13/2013  18:43:00     -349.420     -202.401      -22.956      151.435      113.292       66.416    22932.580    12835.088     4411.043       10.188        2.009      403.808       49.602        0.015      347.068       25.766      862.128
05/13/2013  18:44:00     -473.664     -217.890      -10.487      210.093      185.408       92.765    44138.908    34376.171     8605.303       17.952        4.356      521.377      106.162        0.041      346.934       25.535      862.092
05/13/2013  18:45:00     -293.906     -154.297        0.758      176.671      136.877       70.167    31212.766    18735.287     4923.352        8.252        2.744      331.946       89.189        0.072      347.001       25.651      862.065
05/13/2013  18:46:00     -353.641      -94.241       -9.451      194.555      235.152       76.068    37851.818    55296.542     5786.372       11.647        4.947      365.983       83.326        0.052      346.962       25.583      862.030
05/13/2013  18:47:00     -290.911      -44.726       -1.205      136.062      119.827       77.290    18512.825    14358.397     5973.704        6.273        1.942      294.329       69.115        0.055      347.017       25.678      862.017
05/13/2013  18:48:00     -238.606      -62.333       -9.252      103.942      108.893       49.660    10804.028    11857.637     2466.081        4.301        1.256      246.614       53.473        0.047      347.067       25.764      862.002
05/13/2013  18:49:00     -257.219     -144.157       10.577      164.725      123.214       65.095    27134.200    15181.596     4237.420        6.680        2.328      294.861       78.819        0.071      347.094       25.811      862.003
05/13/2013  18:50:00     -293.398      -65.194        0.781      158.937      128.122       66.628    25260.849    16415.199     4439.314        6.822        2.306      300.554       67.561        0.051      347.052       25.737      861.998
05/13/2013  18:51:00     -244.896      -34.383       -3.977      191.439      128.660       73.292    36649.069    16553.347     5371.790        5.986        2.929      247.298       81.782        0.109      347.029       25.700      861.945
05/13/2013  18:52:00     -316.440      -72.181       -7.161      169.303      160.461       76.069    28663.407    25747.695     5786.431        8.279        3.010      324.568       76.310        0.055      346.982       25.618      861.922
05/13/2013  18:53:00     -438.565     -217.988       -0.724      276.411      173.555      101.425    76403.057    30121.227    10287.083       17.832        5.841      489.754      109.499        0.050      346.966       25.590      861.960
05/13/2013  18:54:00     -475.493     -400.690      -17.397      243.655      215.994      121.804    59367.827    46653.268    14836.294       25.388        6.043      621.809      135.919        0.048      346.875       25.434      861.945
05/13/2013  18:55:00     -339.669     -290.329        6.700      219.065      155.603      102.198    47989.404    24212.356    10444.378       14.116        4.132      446.840      122.268        0.075      346.894       25.465      861.986
05/13/2013  18:56:00     -231.502     -258.530        7.340      169.094      153.042       76.342    28592.828    23421.890     5828.153        8.915        2.892      347.031       77.594        0.050      346.888       25.455      861.979
05/13/2013  18:57:00     -234.421     -214.142       -3.688      156.799      139.091       70.463    24585.778    19346.323     4964.988        7.485        2.445      317.506       56.509        0.032      346.917       25.505      861.960
05/13/2013  18:58:00     -344.040     -173.949      -25.390      237.481      148.936       93.028    56397.436    22181.854     8654.149       11.824        4.362      385.515       99.547        0.067      346.887       25.455      861.968
05/13/2013  18:59:00     -304.302     -145.046      -16.126      231.820      194.734       78.825    53740.715    37921.436     6213.435       10.587        4.894      337.103      101.944        0.091      346.881       25.444      861.986
05/13/2013  19:00:00     -304.524     -250.948       -7.345      219.422      155.201      105.192    48145.981    24087.326    11065.414       11.952        4.165      394.601      119.941        0.092      346.782       25.274      861.958
05/13/2013  19:01:00     -314.950     -228.912      -12.571      191.727      137.171       91.363    36759.125    18815.776     8347.190       10.783        3.196      389.351       93.531        0.058      346.771       25.256      861.955
05/13/2013  19:02:00     -310.268     -217.480      -19.330      168.421      190.221       72.888    28365.475    36184.171     5312.707       10.689        3.493      378.898       69.843        0.034      346.780       25.271      861.960
05/13/2013  19:03:00     -384.564     -188.800       -2.107      180.055      148.520       82.887    32419.766    22058.166     6870.255       12.243        3.067      428.410       79.427        0.034      346.771       25.254      861.935
05/13/2013  19:04:00     -395.102     -250.120      -18.995      178.127      161.818       88.597    31729.197    26184.915     7849.445       14.238        3.288      467.617       92.979        0.040      346.746       25.212      861.913
05/13/2013  19:05:00     -307.989     -207.259        1.169      175.014      141.649       93.114    30629.869    20064.488     8670.185        9.858        2.968      371.232       98.918        0.071      346.760       25.234      861.910
05/13/2013  19:06:00     -263.125     -176.020       -6.567      142.277      120.155       64.592    20242.649    14437.182     4172.104        6.955        1.943      316.572       66.905        0.045      346.757       25.231      861.889
05/13/2013  19:07:00     -344.745     -153.947      -16.917      198.722      153.904       81.734    39490.413    23686.409     6680.413       10.633        3.493      377.556      104.804        0.077      346.791       25.289      861.867
05/13/2013  19:08:00     -464.587     -236.663      -29.051      245.831      195.932      104.891    60432.838    38389.393    11002.115       19.124        5.491      521.393      116.148        0.050      346.763       25.241      861.839
05/13/2013  19:09:00     -258.121     -192.000        1.287      155.022      165.574       73.038    24031.769    27414.881     5334.586        8.013        2.839      321.699       76.979        0.057      346.788       25.285      861.859
05/13/2013  19:10:00     -221.939     -220.655      -13.302      126.758      118.069       58.854    16067.676    13940.195     3463.771        6.579        1.674      312.963       43.490        0.019      346.789       25.286      861.826
05/13/2013  19:11:00     -273.485     -231.759       -1.701      178.111      148.288       82.341    31723.366    21989.267     6780.108        9.449        3.025      358.478       97.624        0.074      346.779       25.269      861.833
05/13/2013  19:12:00     -274.967     -213.285        8.239      147.006      126.229       70.316    21610.744    15933.750     4944.379        8.182        2.124      347.990       76.276        0.048      346.755       25.227      861.815
05/13/2013  19:13:00     -215.113     -153.048       -1.681      160.546      152.514       74.140    25775.091    23260.635     5496.686        6.211        2.727      264.003       77.890        0.087      346.726       25.178      861.791
05/13/2013  19:14:00     -311.279     -217.116      -15.737      181.121      125.335       67.460    32804.659    15708.843     4550.914        9.866        2.653      379.518       85.835        0.051      346.698       25.129      861.768
05/13/2013  19:15:00     -442.035     -263.429       -3.372      228.145      148.870       85.828    52050.273    22162.413     7366.436       17.318        4.079      514.578       88.447        0.030      346.626       25.006      861.761
05/13/2013  19:16:00     -453.967     -174.642      -11.602      312.119      186.383      102.851    97418.193    34738.752    10578.284       18.970        7.137      486.401      126.648        0.068      346.602       24.964      861.743
05/13/2013  19:17:00     -490.354     -318.483      -15.762      198.786      150.505       99.580    39515.727    22651.810     9916.171       20.709        3.604      584.703      113.055        0.037      346.579       24.925      861.692
05/13/2013  19:18:00     -425.771     -201.311       -3.976      187.889      131.929       76.769    35302.380    17405.360     5893.408       14.020        2.930      470.964       66.119        0.020      346.590       24.943      861.690
05/13/2013  19:19:00     -274.215     -231.105        1.405      160.406      132.885       81.858    25730.000    17658.421     6700.741        8.934        2.504      358.614       83.643        0.054      346.598       24.958      861.681
05/13/2013  19:20:00     -279.803     -186.599       -0.311      177.848      138.119       81.704    31629.803    19076.824     6675.599        8.524        2.869      336.317       94.924        0.080      346.600       24.962      861.671
05/13/2013  19:21:00     -233.829     -171.584       -3.692      172.302      123.543       79.115    29687.861    15262.813     6259.228        6.766        2.560      290.029       84.836        0.086      346.554       24.883      861.681
05/13/2013  19:22:00     -444.556     -132.090      -19.021      247.160      138.709       82.491    61087.923    19240.235     6804.747       15.127        4.357      463.765       98.398        0.045      346.579       24.924      861.670
05/13/2013  19:23:00     -334.635     -209.309       -2.415      188.889      145.835       84.200    35679.036    21267.889     7089.570       10.991        3.202      394.703       87.351        0.049      346.571       24.911      861.695
05/13/2013  19:24:00     -390.524     -245.365      -11.389      206.617      167.269       90.312    42690.455    27978.906     8156.207       14.582        3.941      461.208      111.338        0.058      346.530       24.842      861.711
05/13/2013  19:25:00     -296.562     -198.763       26.988      197.460      183.331      100.090    38990.367    33610.195    10017.955       10.539        4.131      357.009      108.333        0.092      346.540       24.858      861.713
05/13/2013  19:26:00     -323.843     -185.104      -12.676      162.173      122.495       77.715    26299.930    15005.040     6039.691        9.331        2.367      373.012       76.585        0.042      346.543       24.862      861.738
05/13/2013  19:27:00     -365.469      -98.904      -12.491      181.904      120.111       81.390    33089.066    14426.637     6624.290        9.881        2.707      378.616       85.136        0.051      346.503       24.796      861.750
05/13/2013  19:28:00     -199.652      -56.097       16.378      174.158      133.780       76.637    30331.009    17896.958     5873.289        4.868        2.705      207.383       85.092        0.168      346.525       24.833      861.738
05/13/2013  19:29:00     -320.082     -114.421       11.854      228.721      181.487       83.634    52313.329    32937.494     6994.627       10.395        4.612      339.918       93.905        0.076      346.492       24.776      861.720
05/13/2013  19:30:00     -325.780     -118.276        9.501      183.392      155.026       80.303    33632.560    24032.922     6448.569        9.215        3.206      346.586       98.562        0.081      346.473       24.741      861.730
05/13/2013  19:31:00     -288.472     -159.977       12.137      255.179      163.085       98.019    65116.145    26596.835     9607.701       10.512        5.066      329.862      127.442        0.149      346.457       24.715      861.742
05/13/2013  19:32:00     -305.605     -215.999       -8.147      209.392      156.717       86.321    43844.839    24560.255     7451.274       10.797        3.793      374.233      111.132        0.088      346.466       24.732      861.786
05/13/2013  19:33:00     -161.091     -100.134        7.556      141.175      121.494       69.174    19930.430    14760.784     4784.996        3.775        1.974      189.676       78.778        0.172      346.467       24.733      861.823
05/13/2013  19:34:00     -320.871     -154.219      -15.821      163.620      137.071       75.456    26771.450    18788.428     5693.683        8.911        2.563      356.008       78.365        0.048      346.438       24.680      861.836
05/13/2013  19:35:00     -297.263     -204.350      -26.013      172.274      143.632       82.496    29678.363    20630.210     6805.583        9.395        2.856      360.727       90.140        0.062      346.408       24.630      861.845
05/13/2013  19:36:00     -316.430     -287.349      -19.634      191.509      130.740       68.403    36675.609    17093.032     4678.948       12.076        2.922      427.431       74.404        0.030      346.368       24.562      861.873
05/13/2013  19:37:00     -208.958     -196.928        8.729      154.951      105.628       75.936    24009.784    11157.217     5766.281        6.172        2.047      287.131       87.385        0.093      346.364       24.554      861.887
05/13/2013  19:38:00     -174.859      -16.960        9.464      143.548       92.102       59.324    20606.145     8482.723     3519.379        3.178        1.630      175.679       64.818        0.136      346.330       24.498      861.908
05/13/2013  19:39:00     -377.587     -150.474      -23.969      191.073      158.639       61.818    36508.936    25166.327     3821.438       11.563        3.275      406.466       87.847        0.047      346.347       24.526      861.923
05/13/2013  19:40:00     -236.279     -115.322        7.926      127.604      151.777       65.805    16282.808    23036.245     4330.287        5.641        2.182      262.920       72.211        0.075      346.323       24.485      861.962
05/13/2013  19:41:00     -220.435      -40.687        9.667      123.351      122.037       60.953    15215.499    14893.002     3715.238        4.208        1.691      224.159       63.508        0.080      346.304       24.451      861.993
05/13/2013  19:42:00     -217.078      -43.438        2.995      134.094      106.509       58.312    17981.175    11344.232     3400.266        4.087        1.636      221.382       68.610        0.096      346.263       24.381      862.034
05/13/2013  19:43:00     -259.617      -68.614       -7.218      130.094      114.157       58.631    16924.467    13031.792     3437.584        5.277        1.670      268.531       62.942        0.055      346.276       24.403      862.059
05/13/2013  19:44:00     -314.779     -136.733       -9.844      155.462      127.666       73.836    24168.484    16298.483     5451.756        8.189        2.296      343.194       69.181        0.041      346.275       24.400      862.063
05/13/2013  19:45:00     -306.402     -244.088      -17.557      155.028      145.211       89.584    24033.531    21086.163     8025.333       10.345        2.657      391.741       96.892        0.061      346.220       24.308      862.066
05/13/2013  19:46:00     -287.842     -117.214      -11.558      154.874      114.626       64.461    23985.827    13139.016     4155.212        6.900        2.064      310.793       82.299        0.070      346.215       24.299      862.050
05/13/2013  19:47:00     -289.412     -172.094      -25.612      130.847      190.982       85.539    17120.856    36474.101     7316.845        8.746        3.046      336.713       73.884        0.048      346.233       24.328      862.061
05/13/2013  19:48:00     -359.191     -158.705       -9.318      183.369      160.219       92.547    33624.320    25669.971     8564.976       11.106        3.393      392.690      101.227        0.066      346.182       24.242      862.059
05/13/2013  19:49:00     -301.788     -136.891        6.748      140.354      123.234       74.775    19699.118    15186.505     5591.329        7.516        2.024      331.383       76.185        0.053      346.200       24.272      862.104
05/13/2013  19:50:00     -350.205     -129.991       -8.827      172.695      104.845       62.726    29823.574    10992.409     3934.508        9.218        2.238      373.552       71.804        0.037      346.226       24.317      862.101
05/13/2013  19:51:00     -342.881      -86.389      -17.919      115.195       89.084       51.711    13269.866     7935.966     2674.017        7.461        1.194      353.596       53.813        0.023      346.243       24.345      862.139
05/13/2013  19:52:00     -374.179     -132.286       -2.412      193.621      168.700       72.074    37489.242    28459.641     5194.656       11.432        3.557      396.875       69.071        0.030      346.196       24.266      862.144
05/13/2013  19:53:00     -326.789     -202.188      -15.440      217.040      126.661       73.733    47106.503    16043.027     5436.564       10.824        3.429      384.280       91.046        0.056      346.211       24.290      862.140
05/13/2013  19:54:00     -268.989     -175.648       -3.888      244.255      152.149       76.392    59660.276    23149.463     5835.761        9.592        4.432      321.259      101.362        0.100      346.180       24.238      862.127
05/13/2013  19:55:00     -362.398      -73.905       -5.970      152.096      104.471       71.501    23133.203    10914.159     5112.384        8.799        1.958      369.857       70.292        0.036      346.184       24.243      862.138
05/13/2013  19:56:00     -215.618     -100.846        3.430      124.028      105.130       51.071    15383.053    11052.401     2608.261        4.285        1.452      238.036       60.433        0.064      346.138       24.166      862.168
05/13/2013  19:57:00      -89.172      -26.920       20.137      108.835       75.232       48.050    11845.000     5659.928     2308.797        1.444        0.991       93.147       47.706        0.262      346.055       24.026      862.193
05/13/2013  19:58:00     -221.557      -92.517      -12.212      176.784      101.961       45.711    31252.425    10396.010     2089.467        5.076        2.187      240.097       57.280        0.057      346.106       24.111      862.187
05/13/2013  19:59:00     -255.744      -27.137      -10.386      102.336      108.232       58.406    10472.662    11714.172     3411.259        4.592        1.280      257.180       59.019        0.053      346.038       23.995      862.203
05/13/2013  20:00:00     -253.978     -134.668        0.197      176.021      134.676       70.307    30983.459    18137.508     4943.018        6.834        2.703      287.472       76.915        0.072      346.044       24.004      862.216
05/13/2013  20:01:00     -181.190     -155.924       13.681      145.537      118.952       85.332    21181.155    14149.505     7281.467        4.996        2.131      239.044       89.444        0.140      346.043       24.003      862.228
05/13/2013  20:02:00     -275.288      -93.880       -7.519      134.581      128.298       59.651    18112.124    16460.443     3558.287        6.139        1.907      290.856       71.252        0.060      346.038       23.994      862.240
05/13/2013  20:03:00     -238.620     -152.968       -4.981      166.370      107.087       70.453    27678.826    11467.704     4963.621        6.223        2.206      283.441       62.192        0.048      346.023       23.969      862.241
05/13/2013  20:04:00     -250.218      -89.472       -6.077       94.185       81.361       49.865     8870.864     6619.664     2486.532        4.431        0.899      265.733       42.039        0.025      345.995       23.921      862.274
05/13/2013  20:05:00     -388.594      -51.225      -27.603      118.818       73.384       49.130    14117.823     5385.167     2413.714        8.815        1.096      391.956       45.933        0.014      345.983       23.901      862.298
05/13/2013  20:06:00     -230.138      -88.175      -18.590       94.606       67.787       40.234     8950.210     4595.135     1618.744        3.812        0.758      246.452       19.658        0.006      345.951       23.847      862.332
05/13/2013  20:07:00     -251.352      -67.687      -14.483      122.672      103.374       54.517    15048.495    10686.206     2972.111        4.833        1.435      260.306       50.595        0.038      345.904       23.765      862.346
05/13/2013  20:08:00     -375.403      -98.128       -8.589      156.026      120.818       72.750    24344.015    14596.902     5292.635        9.742        2.212      388.016       76.720        0.039      345.944       23.832      862.367
05/13/2013  20:09:00     -254.462      -79.273       -4.393      143.018       99.956       57.339    20454.279     9991.185     3287.816        5.239        1.687      266.524       68.443        0.066      345.910       23.774      862.407
05/13/2013  20:10:00     -218.715     -147.326       -6.348      129.748      137.577       73.341    16834.479    18927.457     5378.872        5.535        2.057      263.707       71.550        0.074      345.901       23.760      862.439
05/13/2013  20:11:00      -79.849      -32.246       19.078      130.761       91.208       50.393    17098.435     8318.952     2539.436        1.786        1.398       86.114       66.430        0.595      345.847       23.668      862.444
05/13/2013  20:12:00     -258.857      -63.781      -25.291       88.205       90.813       48.474     7780.199     8247.016     2349.701        4.504        0.919      266.598       48.125        0.033      345.869       23.703      862.467
05/13/2013  20:13:00     -349.991      -82.625       -7.589      106.631      127.653       62.312    11370.107    16295.180     3882.779        8.046        1.577      359.612       60.665        0.028      345.846       23.667      862.454
05/13/2013  20:14:00     -269.208      -58.756      -18.881      111.740       77.813       49.234    12485.772     6054.905     2423.957        4.862        1.048      275.546       57.490        0.044      345.844       23.662      862.479
05/13/2013  20:15:00     -295.651     -102.454       -8.189      124.750      118.398       55.361    15562.485    14017.979     3064.824        6.530        1.632      312.900       67.543        0.047      345.810       23.603      862.472
05/13/2013  20:16:00     -134.972      -91.109        7.969      107.870       85.868       52.235    11635.962     7373.242     2728.473        2.416        1.087      162.845       59.231        0.132      345.807       23.600      862.473
05/13/2013  20:17:00      -90.376      -44.725       17.044      109.398       76.825       46.439    11967.833     5902.068     2156.558        1.524        1.001      100.837       49.597        0.242      345.775       23.545      862.455
05/13/2013  20:18:00     -370.747      -59.002      -12.185      142.627      113.883       63.772    20342.369    12969.301     4066.804        8.922        1.869      375.412       69.525        0.034      345.797       23.582      862.453
05/13/2013  20:19:00     -326.172      -72.425      -14.327      162.566      124.736       58.967    26427.808    15558.974     3477.085        7.864        2.273      334.116       67.884        0.041      345.807       23.598      862.470
05/13/2013  20:20:00     -222.277     -168.518       -1.408      141.824      115.582       66.396    20113.966    13359.232     4408.486        5.784        1.894      278.936       67.644        0.059      345.802       23.591      862.474
05/13/2013  20:21:00     -250.912      -49.609       -1.798      121.559      118.132       57.296    14776.606    13955.102     3282.780        4.871        1.601      255.769       50.110        0.038      345.816       23.614      862.477
05/13/2013  20:22:00     -271.063      -71.095      -14.892       98.049       84.350       40.054     9613.612     7114.917     1604.295        4.854        0.917      280.232       32.963        0.014      345.811       23.604      862.475
05/13/2013  20:23:00     -441.623      -73.585      -24.200      143.840      107.351       68.542    20689.855    11524.201     4697.964       11.897        1.846      447.712       67.003        0.022      345.824       23.628      862.471
05/13/2013  20:24:00     -237.052     -121.862       10.542      158.627      160.632       67.059    25162.648    25802.591     4496.952        6.330        2.773      266.541       76.193        0.082      345.818       23.617      862.502
05/13/2013  20:25:00     -218.296     -144.362        2.785      161.064      103.836       68.037    25941.695    10781.978     4629.082        5.492        2.068      261.713       70.990        0.074      345.854       23.680      862.490
05/13/2013  20:26:00     -337.073     -125.284      -13.097      188.233      138.057       75.008    35431.780    19059.762     5626.236        9.479        3.006      359.603       94.313        0.069      345.858       23.686      862.480
05/13/2013  20:27:00     -386.384     -163.222       -1.085      193.205      139.752       70.243    37328.117    19530.645     4934.146       11.885        3.090      419.445       80.177        0.037      345.901       23.759      862.468
05/13/2013  20:28:00     -305.741     -157.502      -17.207      128.702      127.297       71.678    16564.258    16204.457     5137.708        7.824        1.895      343.925       65.785        0.037      345.905       23.766      862.458
05/13/2013  20:29:00     -299.320      -39.805       -9.281      109.780       76.515       49.414    12051.575     5854.481     2441.723        5.580        1.017      301.956       51.108        0.029      345.846       23.665      862.485
05/13/2013  20:30:00     -198.326     -132.712        1.621      158.258      157.355       65.649    25045.722    24760.696     4309.857        5.552        2.706      238.633       82.597        0.120      345.757       23.515      862.489
05/13/2013  20:31:00     -310.730     -171.061       -5.865      136.261      120.208       72.000    18567.043    14449.916     5183.937        8.202        1.910      354.704       73.466        0.043      345.829       23.636      862.478
05/13/2013  20:32:00     -219.593      -98.669        8.230      141.183      124.849       77.545    19932.688    15587.313     6013.241        4.977        2.077      240.742       75.828        0.099      345.801       23.590      862.474
05/13/2013  20:33:00     -264.414      -72.784      -16.492      139.716      107.321       64.806    19520.584    11517.756     4199.796        5.536        1.762      274.249       74.900        0.075      345.796       23.582      862.476
05/13/2013  20:34:00     -320.425     -104.157      -18.307      141.784      114.530       57.011    20102.634    13117.165     3250.299        7.516        1.824      336.928       58.533        0.030      345.785       23.560      862.481
05/13/2013  20:35:00     -269.298     -153.635       -4.433      191.622      151.349       73.747    36718.855    22906.434     5438.623        8.059        3.253      310.041       87.137        0.079      345.812       23.608      862.469
05/13/2013  20:36:00     -240.750     -112.703       -1.946      138.163      107.438       53.153    19088.895    11542.853     2825.278        5.206        1.673      265.824       55.058        0.043      345.846       23.666      862.486
05/13/2013  20:37:00     -277.594      -26.224      -22.272      122.806       71.240       50.036    15081.340     5075.135     2503.609        5.045        1.133      278.830       54.699        0.038      345.771       23.538      862.518
05/13/2013  20:38:00     -315.931      -27.787      -18.712      123.598      139.932       53.858    15276.444    19580.906     2900.674        6.934        1.888      317.150       56.320        0.032      345.697       23.410      862.510
05/13/2013  20:39:00     -294.080     -171.816      -21.294      144.106      156.133       73.871    20766.652    24377.554     5456.954        8.352        2.530      340.593       84.933        0.062      345.742       23.487      862.511
05/13/2013  20:40:00     -250.323     -107.583       -7.136      146.499      141.335       62.663    21461.941    19975.448     3926.704        5.982        2.268      272.462       69.457        0.065      345.715       23.440      862.507
05/13/2013  20:41:00     -316.534       20.269      -31.836       69.653       74.752       46.960     4851.495     5587.889     2205.287        5.713        0.632      317.183       38.893        0.015      345.610       23.258      862.541
05/13/2013  20:42:00     -180.500      -47.680       -1.395       61.194       59.669       36.947     3744.676     3560.391     1365.063        2.176        0.434      186.691       24.523        0.017      345.544       23.147      862.521
05/13/2013  20:43:00     -154.441      -71.667        8.465       72.272       71.724       38.728     5223.278     5144.384     1499.845        2.046        0.593      170.259       29.710        0.030      345.491       23.058      862.541
05/13/2013  20:44:00     -151.420      -74.961       -2.506       80.686       45.681       30.095     6510.151     2086.759      905.696        1.903        0.475      168.959       23.021        0.019      345.473       23.026      862.550
05/13/2013  20:45:00     -103.734      -23.470      -10.596       71.415       46.929       36.800     5100.135     2202.338     1354.231        1.004        0.433      106.355       26.549        0.062      345.490       23.057      862.552
05/13/2013  20:46:00     -248.748       50.960      -14.110      105.084       59.905       36.199    11042.640     3588.565     1310.390        4.030        0.797      253.915       43.856        0.030      345.464       23.009      862.538
05/13/2013  20:47:00     -271.212      -21.859      -17.873      117.781      102.508       51.710    13872.371    10507.868     2673.929        5.070        1.353      272.091       56.382        0.043      345.565       23.184      862.510
05/13/2013  20:48:00     -263.486      -56.589       -7.121       89.663       78.542       48.669     8039.464     6168.842     2368.704        4.462        0.829      269.495       44.387        0.027      345.504       23.077      862.524
05/13/2013  20:49:00     -276.534      -61.026      -20.299       49.491       48.199       35.564     2449.323     2323.180     1264.833        4.332        0.302      283.188       24.714        0.008      345.456       22.995      862.509
05/13/2013  20:50:00     -222.298      -62.016      -18.895       73.982       69.671       41.338     5473.391     4854.005     1708.806        3.283        0.602      230.786       33.409        0.021      345.440       22.969      862.507
05/13/2013  20:51:00     -246.305      -67.763      -23.591       47.763       58.692       31.078     2281.268     3444.767      965.817        3.625        0.335      255.457       22.485        0.008      345.382       22.869      862.506
05/13/2013  20:52:00     -232.205      -56.822       -5.317       86.225       62.056       40.066     7434.820     3850.913     1605.275        3.503        0.645      239.056       39.693        0.028      345.366       22.840      862.490
05/13/2013  20:53:00     -281.905      -80.384      -25.350       63.154       81.001       41.630     3988.411     6561.239     1733.050        4.943        0.614      293.141       33.053        0.013      345.316       22.755      862.474
05/13/2013  20:54:00     -248.193      -19.913      -27.266       74.564       66.355       39.628     5559.730     4402.999     1570.348        3.713        0.577      248.991       21.198        0.007      345.376       22.858      862.484
05/13/2013  20:55:00     -199.563       -6.339       -0.249       96.976       75.441       60.309     9404.360     5691.370     3637.166        2.930        0.937      199.664       49.296        0.061      345.399       22.897      862.481
05/13/2013  20:56:00     -320.825      -54.784       -0.987      106.407       79.729       54.800    11322.355     6356.759     3003.088        6.330        1.034      325.468       55.568        0.029      345.417       22.928      862.490
05/13/2013  20:57:00     -266.472     -114.448       -3.285       87.526       63.823       44.396     7660.747     4073.380     1971.008        4.891        0.685      290.010       41.573        0.021      345.388       22.877      862.492
05/13/2013  20:58:00     -199.990       -1.002       -8.610      148.455      100.864       53.206    22038.887    10173.534     2830.861        3.755        1.752      199.992       58.243        0.085      345.227       22.603      862.503
05/13/2013  20:59:00     -318.095      -40.241      -25.121       80.644       79.037       51.061     6503.455     6246.778     2607.248        5.939        0.768      320.630       45.076        0.020      345.262       22.662      862.507
05/13/2013  21:00:00     -198.146      -26.715       -3.810       83.881       70.998       41.656     7036.100     5040.729     1735.225        2.690        0.691      199.938       46.062        0.053      345.084       22.359      862.517
05/13/2013  21:01:00     -263.094       -3.384      -11.464      109.755       72.789       41.537    12046.089     5298.286     1725.298        4.421        0.953      263.116       48.683        0.034      344.987       22.191      862.524
05/13/2013  21:02:00     -321.781       50.123      -34.735       84.566       92.302       43.181     7151.428     8519.589     1864.565        6.240        0.877      325.661       33.149        0.010      344.969       22.161      862.523
05/13/2013  21:03:00     -302.047      -38.989      -32.769       66.483       66.770       41.453     4419.945     4458.273     1718.392        5.221        0.530      304.553       31.710        0.011      344.892       22.030      862.530
05/13/2013  21:04:00     -309.419      -33.617      -31.825       85.364       60.058       37.792     7286.931     3606.940     1428.245        5.510        0.616      311.239       37.808        0.015      344.933       22.099      862.521
05/13/2013  21:05:00     -213.253      -68.018      -32.049       68.338       39.380       38.154     4670.039     1550.760     1455.739        2.940        0.384      223.837       14.012        0.004      345.040       22.283      862.498
05/13/2013  21:06:00     -251.792      -59.844      -24.355       87.594       90.769       48.924     7672.761     8238.980     2393.575        4.294        0.915      258.806       40.141        0.024      345.035       22.275      862.494
05/13/2013  21:07:00     -272.815      -13.356      -25.380       80.305       58.929       42.281     6448.817     3472.653     1787.656        4.348        0.585      273.142       42.233        0.024      345.064       22.323      862.477
05/13/2013  21:08:00     -165.340      -58.121      -27.928       45.151       40.885       27.854     2038.592     1671.585      775.840        1.799        0.224      175.258       19.299        0.012      345.046       22.297      862.489
05/13/2013  21:09:00     -238.926      -79.693      -20.502       69.133       57.937       36.700     4779.390     3356.658     1346.925        3.667        0.474      251.866       26.858        0.011      345.088       22.365      862.500
05/13/2013  21:10:00     -191.954      -17.662      -26.018       71.649       59.165       34.493     5133.640     3500.506     1189.786        2.383        0.491      192.765       35.762        0.034      345.021       22.253      862.511
05/13/2013  21:11:00     -162.563        3.194       -7.884       54.837       63.521       39.148     3007.117     4034.902     1532.550        1.754        0.429      162.595       31.672        0.038      344.957       22.142      862.527
05/13/2013  21:12:00     -209.385       -1.803       -8.955      100.825       78.436       39.598    10165.641     6152.211     1567.994        3.090        0.894      209.393       46.642        0.050      344.920       22.080      862.528
05/13/2013  21:13:00     -181.712      -67.985       -0.915       74.397       69.330       36.157     5534.929     4806.679     1307.320        2.464        0.582      194.013       35.924        0.034      344.901       22.047      862.556
05/13/2013  21:14:00     -236.508      -74.739       -9.892       73.328       55.060       36.921     5376.979     3031.570     1363.167        3.569        0.489      248.037       34.079        0.019      344.934       22.103      862.593
05/13/2013  21:15:00     -305.190      -78.534       -5.398      104.024       94.032       46.542    10820.974     8842.057     2166.173        6.058        1.091      315.132       47.848        0.023      345.103       22.392      862.613
05/13/2013  21:16:00     -236.532      -70.965        3.373       80.208       67.694       38.833     6433.356     4582.430     1508.038        3.676        0.626      246.948       35.299        0.020      345.098       22.384      862.648
05/13/2013  21:17:00     -225.793      -37.756       -2.268       64.455       64.842       36.116     4154.472     4204.541     1304.343        3.104        0.483      228.928       34.371        0.023      345.087       22.363      862.658
05/13/2013  21:18:00     -124.275      -67.255        9.905       83.969       82.020       40.056     7050.852     6727.260     1604.469        1.772        0.769      141.307       39.726        0.079      345.092       22.374      862.676
05/13/2013  21:19:00     -113.278      -39.630       -3.010       67.453       49.968       31.461     4549.952     2496.847      989.805        1.122        0.402      120.010       30.427        0.064      345.152       22.478      862.681
05/13/2013  21:20:00      -94.360      -27.504       -1.420       52.826       38.593       30.776     2790.628     1489.401      947.157        0.744        0.261       98.287       26.891        0.075      345.115       22.416      862.674
05/13/2013  21:21:00     -131.276      -53.973       -3.316       43.970       42.996       23.534     1933.382     1848.642      553.834        1.225        0.217      141.938       18.550        0.017      345.112       22.410      862.682
05/13/2013  21:22:00     -156.366       15.816       -4.876       69.305       45.142       34.239     4803.194     2037.796     1172.291        1.637        0.401      157.163       29.368        0.035      345.190       22.542      862.675
05/13/2013  21:23:00     -201.239        0.171      -18.841       66.401       69.629       41.792     4409.035     4848.130     1746.599        2.593        0.550      201.239       39.281        0.038      345.122       22.425      862.667
05/13/2013  21:24:00     -222.315     -116.344      -17.541       79.334       50.030       37.499     6293.921     2502.982     1406.169        3.673        0.510      250.918       35.442        0.020      345.125       22.429      862.678
05/13/2013  21:25:00     -196.926      -76.977        1.091       71.972       73.254       37.975     5179.940     5366.076     1442.113        2.835        0.599      211.437       39.986        0.036      345.126       22.430      862.689
05/13/2013  21:26:00     -179.213      -93.535        6.032       95.430       78.608       48.231     9106.834     6179.208     2326.269        2.925        0.881      202.153       50.384        0.062      345.140       22.455      862.686
05/13/2013  21:27:00     -247.348      -75.870        6.792      157.115      107.368       62.251    24685.123    11527.871     3875.242        5.353        2.004      258.722       74.985        0.084      345.122       22.425      862.695
05/13/2013  21:28:00     -241.987      -61.892       -9.697      103.385      104.604       60.134    10688.457    10941.932     3616.139        4.386        1.262      249.777       48.672        0.038      345.149       22.470      862.703
05/13/2013  21:29:00     -187.556     -101.683       -5.370      119.996      113.271       58.790    14398.954    12830.373     3456.263        3.811        1.534      213.346       64.139        0.090      345.226       22.603      862.692
05/13/2013  21:30:00     -215.946      -85.399       -4.276      124.232       87.334       55.527    15433.551     7627.310     3083.286        4.004        1.307      232.219       52.438        0.051      345.248       22.640      862.686
05/13/2013  21:31:00     -232.533      -76.733        1.202      120.467       90.502       55.842    14512.179     8190.628     3118.319        4.289        1.291      244.866       65.812        0.072      345.242       22.628      862.680
05/13/2013  21:32:00      -96.406      -58.055       10.317      100.178       73.547       45.278    10035.562     5409.127     2050.114        1.513        0.875      112.537       49.991        0.197      345.213       22.580      862.662
05/13/2013  21:33:00     -234.062      -55.537       -7.352       92.888       78.398       49.752     8628.169     6146.271     2475.222        3.758        0.862      240.561       47.080        0.038      345.180       22.523      862.659
05/13/2013  21:34:00     -237.923      -61.097      -12.416       83.692       95.844       49.034     7004.370     9186.130     2404.321        3.954        0.930      245.643       39.356        0.026      345.216       22.585      862.647
05/13/2013  21:35:00     -229.868      -97.647       12.358      126.376       96.238       62.131    15970.871     9261.839     3860.226        4.581        1.455      249.748       65.088        0.068      345.164       22.496      862.651
05/13/2013  21:36:00     -242.657      -43.261       -2.040      115.888       73.104       50.613    13430.052     5344.123     2561.689        4.104        1.067      246.483       61.035        0.061      345.162       22.492      862.657
05/13/2013  21:37:00     -200.835      -39.978        2.508      106.644       70.139       49.177    11372.998     4919.429     2418.328        3.032        0.936      204.775       53.310        0.068      345.126       22.432      862.674
05/13/2013  21:38:00     -305.571      -83.519       -6.498      132.306      102.968       62.554    17504.983    10602.452     3913.064        6.620        1.601      316.779       68.252        0.046      345.234       22.614      862.686
05/13/2013  21:39:00     -282.596      -35.333      -14.098      159.980       88.144       56.672    25593.553     7769.427     3211.768        5.894        1.829      284.796       72.915        0.066      345.224       22.598      862.705
05/13/2013  21:40:00     -304.871      -24.972      -11.179       86.413       80.835       48.811     7467.154     6534.271     2382.543        5.504        0.819      305.892       43.977        0.021      345.247       22.636      862.726
05/13/2013  21:41:00     -256.317      -38.228      -17.124       95.166       82.152       45.387     9056.653     6748.898     2059.945        4.266        0.893      259.152       38.413        0.022      345.209       22.571      862.739
05/13/2013  21:42:00     -222.796      -95.005        0.761      121.398       91.722       59.592    14737.446     8412.913     3551.197        4.268        1.335      242.206       72.181        0.089      345.178       22.520      862.750
05/13/2013  21:43:00     -157.753      -10.139       13.783       80.066       67.364       47.105     6410.515     4537.875     2218.894        1.917        0.658      158.078       46.728        0.087      345.046       22.296      862.780
05/13/2013  21:44:00     -159.557      -25.017       -1.711      110.379       69.802       39.097    12183.440     4872.363     1528.537        2.233        0.929      161.506       47.069        0.085      345.048       22.299      862.787
05/13/2013  21:45:00     -288.614      -89.691       -3.693      103.698       62.790       48.373    10753.206     3942.534     2339.931        5.419        0.852      302.230       50.124        0.028      345.102       22.390      862.782
05/13/2013  21:46:00     -242.881      -71.990       -7.323       85.118       73.412       43.520     7245.064     5389.298     1894.011        3.938        0.726      253.326       47.647        0.035      345.074       22.342      862.780
05/13/2013  21:47:00     -254.349      -75.737      -20.788       88.500       66.820       49.369     7832.335     4464.885     2437.333        4.280        0.737      265.386       47.486        0.032      345.085       22.361      862.778
05/13/2013  21:48:00     -247.292      -74.926       -1.779      105.780       73.880       56.115    11189.306     5458.288     3148.869        4.328        0.990      258.394       58.205        0.051      345.001       22.218      862.783
05/13/2013  21:49:00     -262.468      -25.675      -26.038       95.921       77.232       52.863     9200.862     5964.819     2794.469        4.409        0.898      263.721       53.356        0.041      344.984       22.187      862.796
05/13/2013  21:50:00     -247.479      -52.945       -8.063       95.401       58.731       46.426     9101.386     3449.327     2155.403        3.941        0.735      253.079       48.389        0.037      344.965       22.155      862.806
05/13/2013  21:51:00     -273.636      -39.471       -7.643      101.459       70.865       44.835    10293.928     5021.857     2010.133        4.691        0.866      276.468       48.426        0.031      344.939       22.112      862.830
05/13/2013  21:52:00     -251.681      -76.297       -1.499      101.934       89.198       46.489    10390.443     7956.323     2161.212        4.483        1.025      262.991       48.064        0.033      344.881       22.011      862.851
05/13/2013  21:53:00     -274.462      -83.835       -8.490       94.383       95.077       45.166     8908.216     9039.655     2040.003        5.121        0.999      286.980       45.190        0.025      344.929       22.093      862.873
05/13/2013  21:54:00     -151.461      -35.250        2.740       80.697       49.933       37.404     6512.044     2493.347     1399.053        1.730        0.520      155.509       46.311        0.089      344.840       21.944      862.897
05/13/2013  21:55:00     -218.221      -36.022       -9.244       72.488       65.853       35.121     5254.451     4336.643     1233.461        2.991        0.541      221.174       33.537        0.023      344.870       21.992      862.905
05/13/2013  21:56:00     -179.800      -44.305       -4.374       75.495       60.673       31.425     5699.423     3681.241      987.499        2.234        0.518      185.178       31.265        0.029      344.852       21.962      862.907
05/13/2013  21:57:00     -144.074      -18.171       -6.168       77.612       74.028       41.981     6023.569     5480.182     1762.377        1.719        0.663      145.216       43.167        0.088      344.801       21.876      862.902
05/13/2013  21:58:00     -226.982      -44.285      -13.751       84.323       67.029       38.196     7110.299     4492.940     1458.934        3.336        0.653      231.262       31.945        0.019      344.849       21.956      862.897
05/13/2013  21:59:00     -220.658       -4.143       -6.488       71.128       58.644       42.902     5059.209     3439.111     1840.569        2.954        0.517      220.697       34.587        0.025      344.781       21.839      862.908
05/13/2013  22:00:00     -243.082      -43.755      -16.769      111.244       68.606       50.439    12375.229     4706.766     2544.127        4.045        0.981      246.989       56.431        0.052      344.773       21.826      862.894
05/13/2013  22:01:00     -183.134      -34.190       -0.433       95.497       54.028       40.065     9119.597     2919.018     1605.218        2.417        0.682      186.298       44.916        0.058      344.725       21.745      862.880
05/13/2013  22:02:00     -249.043      -76.126      -17.712       83.758      106.766       44.438     7015.481    11399.001     1974.770        4.426        1.019      260.418       41.075        0.025      344.717       21.729      862.861
05/13/2013  22:03:00     -225.727      -71.809        0.873      103.936       81.094       47.512    10802.792     6576.273     2257.409        3.787        0.982      236.874       47.765        0.041      344.696       21.694      862.849
05/13/2013  22:04:00     -211.021      -37.317       -3.276       94.375       77.026       45.624     8906.656     5932.932     2081.517        3.142        0.846      214.295       36.795        0.029      344.673       21.655      862.829
05/13/2013  22:05:00     -376.894     -107.359      -16.441      119.569       86.566       55.560    14296.800     7493.693     3086.897        8.936        1.244      391.886       60.929        0.024      344.856       21.969      862.820
05/13/2013  22:06:00     -199.063      -89.479       -8.776       88.619       62.965       46.190     7853.375     3964.541     2133.518        3.083        0.698      218.249       43.931        0.041      344.769       21.821      862.828
05/13/2013  22:07:00     -247.476      -88.968      -12.791      105.383       71.035       46.433    11105.682     5045.923     2155.999        4.381        0.915      262.982       57.757        0.048      344.706       21.713      862.840
05/13/2013  22:08:00     -310.084      -75.676      -18.271       81.087       82.058       48.073     6575.087     6733.466     2311.035        5.891        0.781      319.185       34.986        0.012      344.729       21.752      862.839
05/13/2013  22:09:00     -277.579      -40.649        4.877      108.674       76.189       57.055    11810.122     5804.821     3255.326        4.979        1.044      280.540       55.176        0.039      344.707       21.713      862.843
05/13/2013  22:10:00     -239.904      -41.698       -2.246       94.361       64.224       49.264     8903.917     4124.712     2426.893        3.737        0.773      243.501       50.088        0.042      344.650       21.617      862.845
05/13/2013  22:11:00     -285.247      -70.954       -0.739      100.198       75.751       45.718    10039.737     5738.197     2090.170        5.213        0.893      293.939       55.242        0.035      344.707       21.712      862.864
05/13/2013  22:12:00     -253.339      -80.161       -6.945      100.662       73.913       51.773    10132.885     5463.083     2680.448        4.446        0.914      265.719       45.374        0.029      344.709       21.716      862.854
05/13/2013  22:13:00     -326.138      -66.969       -1.693      119.961       97.583       56.369    14390.678     9522.500     3177.453        6.897        1.355      332.943       59.684        0.032      344.795       21.863      862.836
05/13/2013  22:14:00     -184.158      -48.227        1.058      117.249       85.266       47.810    13747.347     7270.319     2285.754        2.977        1.165      190.368       57.577        0.091      344.660       21.633      862.828
05/13/2013  22:15:00     -223.753      -76.770       -8.156       86.318       83.899       39.363     7450.718     7038.971     1549.450        3.603        0.802      236.556       40.190        0.029      344.695       21.694      862.838
05/13/2013  22:16:00     -212.994      -79.528        0.719       99.228       73.743       46.393     9846.177     5438.037     2152.354        3.456        0.872      227.357       54.592        0.058      344.639       21.598      862.840
05/13/2013  22:17:00     -208.168      -56.777        3.978       99.244       79.687       38.085     9849.274     6350.058     1450.434        3.211        0.882      215.772       40.995        0.036      344.608       21.544      862.837
05/13/2013  22:18:00     -235.712      -95.605       -8.020      106.133       76.649       45.407    11264.255     5875.013     2061.837        4.198        0.960      254.363       45.854        0.032      344.624       21.571      862.829
05/13/2013  22:19:00     -182.273      -68.581       -8.900      132.343       73.473       54.297    17514.705     5398.348     2948.204        3.193        1.293      194.748       61.766        0.101      344.685       21.678      862.820
05/13/2013  22:20:00     -297.056      -82.182      -21.453      131.201       92.394       63.596    17213.577     8536.675     4044.402        6.262        1.490      308.215       68.336        0.049      344.754       21.795      862.825
05/13/2013  22:21:00     -260.710      -65.913      -28.282       74.652       75.852       43.812     5572.933     5753.452     1919.449        4.318        0.662      268.913       26.534        0.010      344.741       21.770      862.842
05/13/2013  22:22:00     -197.936      -66.105       -5.185       82.469       86.504       39.654     6801.107     7483.016     1572.465        2.971        0.793      208.683       41.688        0.040      344.730       21.754      862.860
05/13/2013  22:23:00     -227.620      -45.311       -7.545       90.766       59.907       44.510     8238.398     3588.902     1981.101        3.386        0.690      232.087       40.875        0.031      344.725       21.745      862.856
05/13/2013  22:24:00     -242.498      -42.907       -3.265       79.148       85.699       42.803     6264.458     7344.318     1832.071        3.805        0.772      246.264       43.726        0.032      344.744       21.775      862.846
05/13/2013  22:25:00      -97.823      -46.311        2.990       75.022       61.322       34.358     5628.341     3760.334     1180.479        1.114        0.528      108.231       38.046        0.124      344.626       21.578      862.854
05/13/2013  22:26:00     -272.254      -66.721       -9.016       78.797       72.889       41.526     6208.957     5312.782     1724.437        4.595        0.662      280.311       39.191        0.020      344.621       21.566      862.853
05/13/2013  22:27:00     -255.287      -49.297       -1.657      115.302       78.169       53.747    13294.505     6110.347     2888.753        4.495        1.115      260.003       48.638        0.035      344.621       21.566      862.856
05/13/2013  22:28:00     -330.751      -87.814      -12.390      124.342       83.152       50.014    15460.862     6914.337     2501.403        7.106        1.244      342.209       48.161        0.020      344.676       21.660      862.870
05/13/2013  22:29:00     -382.037      -54.699       -8.681      110.152       96.403       58.978    12133.478     9293.584     3478.350        8.696        1.245      385.933       55.614        0.021      344.705       21.708      862.870
05/13/2013  22:30:00     -248.466      -49.881       -4.943      148.141       78.804       54.005    21945.743     6210.013     2916.593        4.765        1.554      253.424       58.084        0.053      344.678       21.664      862.859
05/13/2013  22:31:00     -310.820     -103.583      -23.411      124.957       95.380       47.456    15614.226     9097.359     2252.043        6.742        1.348      327.626       35.686        0.012      344.711       21.720      862.842
05/13/2013  22:32:00     -266.249      -41.851      -13.094       86.120       78.612       44.102     7416.640     6179.886     1944.987        4.417        0.777      269.519       36.707        0.019      344.690       21.683      862.846
05/13/2013  22:33:00     -255.140      -46.328       -8.274      118.734       69.528       51.691    14097.843     4834.131     2671.941        4.445        1.080      259.312       50.397        0.038      344.642       21.601      862.844
05/13/2013  22:34:00     -246.818      -62.198      -11.251       90.839       92.413       46.624     8251.798     8540.247     2173.753        4.194        0.948      254.534       47.017        0.034      344.632       21.585      862.832
05/13/2013  22:35:00     -305.208      -18.823      -28.700       97.695       84.037       51.712     9544.309     7062.223     2674.115        5.680        0.964      305.788       52.309        0.029      344.609       21.546      862.827
05/13/2013  22:36:00     -331.945        9.120      -32.888       86.452       86.408       52.800     7473.965     7466.259     2787.889        6.454        0.886      332.071       45.636        0.019      344.618       21.559      862.828
05/13/2013  22:37:00     -284.502      -42.484      -24.230       95.546       91.087       49.234     9128.993     8296.776     2423.963        5.159        0.992      287.657       46.123        0.026      344.550       21.444      862.810
05/13/2013  22:38:00     -320.291      -69.505       -5.326      157.270      125.696       62.795    24733.920    15799.431     3943.179        7.595        2.224      327.746       71.228        0.047      344.567       21.473      862.788
05/13/2013  22:39:00     -295.843      -47.303        3.606      157.841      107.048       66.920    24913.791    11459.376     4478.302        6.531        2.043      299.601       82.263        0.075      344.516       21.387      862.783
05/13/2013  22:40:00     -364.253     -113.350      -19.823      139.295      107.935       60.409    19403.027    11649.990     3649.284        9.031        1.735      381.482       63.233        0.027      344.598       21.526      862.761
05/13/2013  22:41:00     -308.460     -109.652       -2.807       90.531       85.603       60.555     8195.905     7327.808     3666.909        6.318        0.960      327.370       52.475        0.026      344.573       21.482      862.748
05/13/2013  22:42:00     -272.801      -58.918       -8.549      108.876       91.472       55.083    11854.012     8367.049     3034.177        5.061        1.163      279.091       51.692        0.034      344.538       21.424      862.758
05/13/2013  22:43:00     -251.820      -45.116      -16.102       96.374       96.343       54.628     9287.913     9281.965     2984.182        4.363        1.078      255.830       45.690        0.032      344.520       21.392      862.762
05/13/2013  22:44:00     -241.369      -49.680        1.249      108.740       81.511       47.852    11824.305     6644.031     2289.777        4.074        1.038      246.429       48.780        0.039      344.448       21.270      862.755
05/13/2013  22:45:00     -293.224      -51.987       -2.027      149.939       87.498       57.656    22481.735     7655.957     3324.175        6.107        1.673      297.797       65.432        0.048      344.514       21.382      862.739
05/13/2013  22:46:00     -239.659      -85.862       -7.394      111.312       64.136       47.407    12390.277     4113.386     2247.465        4.180        0.938      254.575       58.671        0.053      344.434       21.246      862.725
05/13/2013  22:47:00     -195.069      -37.429        2.255       88.076       92.742       43.149     7757.367     8601.014     1861.844        2.884        0.911      198.628       40.844        0.042      344.386       21.166      862.693
05/13/2013  22:48:00     -295.602      -50.782      -25.762       71.841       66.711       44.793     5161.199     4450.336     2006.415        5.112        0.581      299.932       40.822        0.019      344.404       21.196      862.671
05/13/2013  22:49:00     -270.836      -39.094      -24.347       77.465       88.472       49.193     6000.840     7827.234     2419.943        4.586        0.812      273.643       45.491        0.028      344.398       21.186      862.671
05/13/2013  22:50:00     -301.785      -40.413      -16.714       84.997      101.879       50.156     7224.564    10379.265     2515.633        5.655        1.006      304.478       42.881        0.020      344.434       21.244      862.671
05/13/2013  22:51:00     -339.810      -39.423      -25.970       91.811       94.226       43.221     8429.244     8878.552     1868.017        6.843        0.959      342.089       38.421        0.013      344.467       21.304      862.684
05/13/2013  22:52:00     -253.184      -13.037      -24.583       66.868       65.515       41.851     4471.286     4292.276     1751.514        3.769        0.526      253.519       39.457        0.024      344.380       21.153      862.680
05/13/2013  22:53:00     -265.517        3.270      -22.077       79.743       68.896       38.901     6358.935     4746.697     1513.253        4.181        0.631      265.537       44.405        0.028      344.381       21.154      862.678
05/13/2013  22:54:00     -211.925      -48.227      -14.023       65.755       46.473       41.759     4323.726     2159.714     1743.849        2.783        0.411      217.344       37.279        0.029      344.354       21.110      862.670
05/13/2013  22:55:00     -267.823      -41.570      -24.514       94.981       62.421       37.709     9021.407     3896.424     1421.939        4.420        0.717      271.030       40.137        0.022      344.373       21.143      862.645
05/13/2013  22:56:00     -304.321      -19.828      -19.398       83.309       82.562       47.160     6940.383     6816.479     2224.109        5.468        0.799      304.966       48.070        0.025      344.331       21.071      862.622
05/13/2013  22:57:00     -282.486      -88.598       -7.361       95.169       88.099       49.227     9057.050     7761.418     2423.258        5.347        0.962      296.054       51.149        0.030      344.338       21.083      862.609
05/13/2013  22:58:00     -236.641      -65.801      -17.984       97.708       74.243       50.260     9546.820     5512.086     2526.096        3.912        0.879      245.619       53.604        0.048      344.330       21.070      862.625
05/13/2013  22:59:00     -352.469      -10.452      -33.375      130.230       91.128       60.716    16959.822     8304.243     3686.441        7.720        1.448      352.624       70.596        0.040      344.328       21.066      862.631
05/13/2013  23:00:00     -311.580      -32.873      -24.085      146.232       79.498       50.385    21383.786     6319.863     2538.641        6.449        1.512      313.310       61.993        0.039      344.300       21.018      862.619
05/13/2013  23:01:00     -364.804      -44.599      -44.374       59.319       68.624       41.952     3518.699     4709.306     1759.974        7.351        0.499      367.520       27.976        0.006      344.327       21.066      862.598
05/13/2013  23:02:00     -269.419      -73.428      -14.779      101.985       73.266       47.178    10401.021     5367.975     2225.769        4.809        0.900      279.246       47.369        0.029      344.294       21.007      862.611
05/13/2013  23:03:00     -250.358      -73.303       -8.697       75.028       68.197       43.351     5629.150     4650.800     1879.282        4.014        0.608      260.868       38.745        0.022      344.308       21.030      862.618
05/13/2013  23:04:00     -233.576     -108.534      -11.636       87.962       57.720       41.775     7737.367     3331.645     1745.152        3.964        0.641      257.561       38.260        0.022      344.315       21.043      862.621
05/13/2013  23:05:00     -211.839      -44.691       -9.921       94.202       53.045       41.728     8873.983     2813.744     1741.265        3.020        0.671      216.502       37.883        0.031      344.327       21.064      862.636
05/13/2013  23:06:00     -209.274      -67.833      -13.588      112.304       73.426       48.205    12612.194     5391.343     2323.674        3.445        1.016      219.993       45.586        0.043      344.340       21.089      862.646
05/13/2013  23:07:00     -104.158      -57.774       -2.762       70.042       62.785       33.632     4905.938     3941.914     1131.121        1.208        0.499      119.108       31.833        0.071      344.310       21.037      862.654
05/13/2013  23:08:00     -225.323      -19.092       -9.528       72.059       68.770       46.735     5192.531     4729.245     2184.164        3.166        0.605      226.130       40.790        0.033      344.334       21.075      862.654
05/13/2013  23:09:00     -210.569      -86.026      -19.519       75.057       55.140       41.334     5633.583     3040.452     1708.538        3.125        0.519      227.464       36.299        0.025      344.328       21.066      862.651
05/13/2013  23:10:00     -182.963      -26.350       -9.696       64.758       50.349       40.287     4193.628     2535.009     1623.050        2.131        0.418      184.851       36.658        0.039      344.287       20.997      862.662
05/13/2013  23:11:00     -212.147      -25.824      -11.624       62.859       50.873       34.036     3951.196     2588.095     1158.439        2.675        0.385      213.713       26.700        0.016      344.307       21.029      862.654
05/13/2013  23:12:00     -247.705      -46.676       -6.088       70.113       55.058       40.991     4915.802     3031.371     1680.299        3.660        0.481      252.065       38.303        0.023      344.356       21.112      862.659
05/13/2013  23:13:00     -249.850      -66.324       -9.594       78.058       55.327       46.959     6093.125     3061.027     2205.179        3.914        0.568      258.503       45.990        0.032      344.321       21.052      862.671
05/13/2013  23:14:00     -260.436      -11.134       -5.641       80.539       54.671       44.834     6486.563     2988.942     2010.071        3.973        0.574      260.674       41.223        0.025      344.375       21.145      862.680
05/13/2013  23:15:00     -191.725      -17.826       -4.724       75.846       46.935       35.400     5752.656     2202.940     1253.194        2.315        0.460      192.552       35.718        0.034      344.299       21.017      862.670
05/13/2013  23:16:00     -182.082      -34.667      -11.202       92.550       62.119       44.009     8565.482     3858.726     1936.812        2.442        0.718      185.352       48.793        0.069      344.275       20.975      862.650
05/13/2013  23:17:00     -175.151      -16.286       -1.102       81.928       64.829       39.337     6712.213     4202.786     1547.398        2.170        0.623      175.906       38.399        0.048      344.232       20.901      862.644
05/13/2013  23:18:00     -249.930      -68.814      -22.110      112.369       60.486       39.937    12626.816     3658.569     1594.979        4.278        0.894      259.230       46.098        0.032      344.244       20.922      862.647
05/13/2013  23:19:00     -229.575      -23.440       -0.552      115.478       97.588       45.516    13335.205     9523.407     2071.688        3.909        1.247      230.769       39.778        0.030      344.189       20.829      862.639
05/13/2013  23:20:00     -215.970      -59.541      -11.357       91.757       74.845       48.512     8419.405     5601.808     2353.438        3.334        0.819      224.027       45.532        0.041      344.166       20.788      862.621
05/13/2013  23:21:00     -227.054      -61.579       -5.318      115.134       83.171       44.249    13255.815     6917.334     1957.991        3.875        1.107      235.256       49.567        0.044      344.152       20.766      862.607
05/13/2013  23:22:00     -152.952      -46.894       -1.578       98.238       88.732       44.736     9650.640     7873.432     2001.267        2.256        0.976      159.979       37.311        0.054      344.085       20.653      862.603
05/13/2013  23:23:00     -281.362      -51.077      -14.682      108.428       85.555       44.412    11756.639     7319.736     1972.408        5.152        1.052      285.960       51.448        0.032      344.136       20.738      862.606
05/13/2013  23:24:00     -250.499      -52.910      -12.922       79.637       78.215       41.712     6342.052     6117.516     1739.930        3.996        0.710      256.026       42.784        0.028      344.076       20.634      862.595
05/13/2013  23:25:00     -234.277      -58.577      -11.237      103.879       88.275       55.006    10790.903     7792.491     3025.607        4.002        1.080      241.489       53.642        0.049      344.083       20.646      862.588
05/13/2013  23:26:00     -264.729      -58.648       -1.437      104.394       89.772       49.508    10898.139     8058.932     2451.089        4.746        1.070      271.148       52.893        0.038      344.143       20.748      862.599
05/13/2013  23:27:00     -237.866      -90.349       -8.543      101.790       80.144       47.985    10361.108     6423.126     2302.603        4.195        0.954      254.447       52.869        0.043      344.101       20.679      862.597
05/13/2013  23:28:00     -219.785      -86.787       -2.718      153.725       83.594       55.052    23631.244     6987.992     3030.693        4.474        1.682      236.300       65.460        0.077      344.148       20.759      862.591
05/13/2013  23:29:00     -227.844      -57.923      -14.139      114.864       79.259       42.070    13193.852     6281.913     1769.863        3.835        1.062      235.092       36.746        0.024      344.149       20.759      862.585
05/13/2013  23:30:00     -259.567      -74.582       -8.720       87.805       72.212       51.544     7709.753     5214.568     2656.819        4.429        0.779      270.069       44.977        0.028      344.145       20.752      862.581
05/13/2013  23:31:00     -275.826      -52.559      -13.162       78.844       73.891       41.750     6216.348     5459.814     1743.059        4.622        0.671      280.789       41.393        0.022      344.115       20.700      862.583
05/13/2013  23:32:00     -162.309      -36.136      -14.505      101.987       69.077       46.773    10401.392     4771.646     2187.724        2.261        0.868      166.283       40.219        0.059      344.108       20.691      862.597
05/13/2013  23:33:00     -282.780      -96.075      -29.059      122.106       75.172       40.657    14909.776     5650.813     1653.001        5.612        1.111      298.655       25.415        0.007      344.189       20.828      862.595
05/13/2013  23:34:00     -252.432      -37.702       -4.531      119.819       73.264       47.714    14356.543     5367.652     2276.620        4.358        1.100      255.232       53.958        0.045      344.124       20.718      862.606
05/13/2013  23:35:00     -278.077      -43.486      -15.772       90.447       79.480       41.553     8180.738     6317.031     1726.654        4.784        0.811      281.457       40.917        0.021      344.137       20.740      862.599
05/13/2013  23:36:00     -183.385      -18.273       -4.623      101.358       66.273       46.000    10273.422     4392.172     2115.970        2.538        0.839      184.293       45.405        0.061      344.083       20.648      862.592
05/13/2013  23:37:00     -246.380      -40.084      -21.688       66.952       63.452       38.633     4482.525     4026.152     1492.523        3.639        0.500      249.619       36.380        0.021      344.041       20.575      862.599
05/13/2013  23:38:00     -257.397      -44.972      -20.400       58.798       61.153       43.187     3457.166     3739.723     1865.109        3.888        0.453      261.296       30.703        0.014      343.966       20.445      862.617
05/13/2013  23:39:00     -260.732      -74.240      -23.727       70.639       87.065       42.608     4989.921     7580.284     1815.431        4.422        0.719      271.095       31.196        0.013      343.954       20.425      862.615
05/13/2013  23:40:00     -291.804      -72.914      -37.906       68.434       83.308       31.047     4683.271     6940.155      963.903        5.224        0.629      300.776       21.121        0.005      343.955       20.426      862.600
05/13/2013  23:41:00     -277.183      -87.284      -23.213       83.362       86.847       45.484     6949.172     7542.347     2068.814        5.077        0.828      290.601       42.552        0.021      343.940       20.402      862.597
05/13/2013  23:42:00     -248.705      -60.662      -19.008       83.498       76.766       44.141     6971.845     5893.058     1948.471        4.035        0.741      255.997       39.018        0.023      343.974       20.461      862.596
05/13/2013  23:43:00     -229.562      -72.310      -11.436       80.521       71.755       34.756     6483.627     5148.730     1208.005        3.545        0.642      240.681       26.156        0.012      343.919       20.366      862.596
05/13/2013  23:44:00     -241.815      -57.464      -20.303       78.141       67.941       44.268     6106.093     4616.017     1959.653        3.743        0.634      248.549       43.303        0.030      343.876       20.293      862.586
05/13/2013  23:45:00     -317.369      -75.783      -22.804      115.326       90.556       51.284    13300.000     8200.412     2630.074        6.555        1.207      326.292       58.620        0.032      343.888       20.314      862.588
05/13/2013  23:46:00     -251.495      -61.847       -8.709       97.748       66.518       45.519     9554.756     4424.616     2072.009        4.160        0.803      258.988       43.468        0.028      343.843       20.236      862.609
05/13/2013  23:47:00     -266.193      -16.471      -18.314       79.194       73.385       44.812     6271.704     5385.310     2008.155        4.256        0.683      266.703       35.712        0.018      343.866       20.277      862.625
05/13/2013  23:48:00     -278.221       -4.322      -17.377       85.153       62.194       37.391     7250.966     3868.052     1398.081        4.512        0.626      278.254       40.253        0.021      343.820       20.198      862.613
05/13/2013  23:49:00     -294.799      -21.848      -15.190       98.538       89.671       47.076     9709.763     8040.865     2216.114        5.379        0.998      295.608       52.650        0.032      343.818       20.195      862.593
05/13/2013  23:50:00     -317.721      -68.496       -9.563      101.806       81.535       57.588    10364.372     6647.911     3316.363        6.303        1.016      325.021       59.597        0.034      343.850       20.249      862.595
05/13/2013  23:51:00     -298.382      -73.707      -25.695       62.668       67.790       40.165     3927.234     4595.526     1613.227        5.263        0.507      307.351       27.895        0.008      343.854       20.255      862.598
05/13/2013  23:52:00     -273.104      -28.301      -16.814      100.908       78.573       51.976    10182.481     6173.771     2701.502        4.736        0.953      274.566       57.164        0.043      343.761       20.096      862.602
05/13/2013  23:53:00     -306.739      -68.241      -14.619       90.978       75.646       47.385     8276.971     5722.318     2245.378        5.760        0.812      314.238       43.595        0.019      343.735       20.052      862.615
05/13/2013  23:54:00     -244.810       -9.465       -5.204       87.544       95.796       47.281     7664.015     9176.789     2235.540        3.956        0.954      244.993       32.204        0.017      343.743       20.066      862.629
05/13/2013  23:55:00     -319.104      -49.473      -16.555      101.712       83.992       55.440    10345.408     7054.609     3073.635        6.251        1.024      322.916       53.398        0.027      343.800       20.165      862.629
05/13/2013  23:56:00     -310.740      -22.311      -15.974      111.354       73.591       49.006    12399.632     5415.609     2401.616        5.876        1.011      311.540       51.578        0.027      343.809       20.180      862.623
05/13/2013  23:57:00     -336.394      -51.646      -19.116      103.810       70.058       49.273    10776.437     4908.106     2427.854        6.715        0.906      340.335       49.765        0.021      343.791       20.148      862.624
05/13/2013  23:58:00     -313.848      -42.220      -20.212      131.150      113.490       57.026    17200.215    12879.906     3252.018        6.701        1.667      316.675       57.929        0.033      343.825       20.206      862.630
05/13/2013  23:59:00     -321.395     -105.488      -13.400      118.731       83.902       56.156    14097.049     7039.486     3153.523        6.944        1.215      338.264       61.254        0.033      343.822       20.200      862.634
